Wetterdaten: Dienstag, 26.03.2019
Datum Zeit Temp. A. Pool Temp. Temp. 5cm Feuchte A. Luftdruck Regen Wind Richtung Richtung Sonnenschein ET UV Solar Taupunkt Windchill Windben Empfang
26.03.2019 00:00 3,2 C 8,3 C 2,8 C 86 % 1022,0 hPa 0,0 l/m 11,9 km/h (2 Bft) W 271 0 min 0,000 mm 0,0 UV-I 0 W/m 1,1 C -1,3 C 16,1 km/h (3 Bft) 100,00 %
26.03.2019 00:02 3,2 C 8,3 C 2,8 C 86 % 1022,1 hPa 0,0 l/m 14,1 km/h (3 Bft) W-NW 290 0 min 0,000 mm 0,0 UV-I 0 W/m 1,1 C -2,6 C 19,3 km/h (3 Bft) 6,67 %
26.03.2019 00:04 3,2 C 8,3 C 2,8 C 86 % 1022,1 hPa 0,0 l/m 16,2 km/h (3 Bft) W-NW 292 0 min 0,000 mm 0,0 UV-I 0 W/m 1,1 C -3,7 C 27,4 km/h (4 Bft) 82,93 %
26.03.2019 00:06 3,2 C 8,3 C 2,8 C 86 % 1022,3 hPa 0,0 l/m 15,4 km/h (3 Bft) W 270 0 min 0,000 mm 0,0 UV-I 0 W/m 1,1 C -3,3 C 20,9 km/h (4 Bft) 94,00 %
26.03.2019 00:08 3,2 C 8,3 C 2,8 C 86 % 1022,3 hPa 0,0 l/m 12,9 km/h (3 Bft) W 265 0 min 0,000 mm 0,0 UV-I 0 W/m 1,1 C -1,9 C 22,5 km/h (4 Bft) 97,37 %
26.03.2019 00:10 3,2 C 8,3 C 2,8 C 87 % 1022,3 hPa 0,0 l/m 11,8 km/h (2 Bft) W-SW 258 0 min 0,000 mm 0,0 UV-I 0 W/m 1,2 C -1,2 C 16,1 km/h (3 Bft) 98,21 %
26.03.2019 00:12 3,1 C 8,3 C 2,8 C 87 % 1022,4 hPa 0,0 l/m 12,2 km/h (2 Bft) W 261 0 min 0,000 mm 0,0 UV-I 0 W/m 1,2 C -1,6 C 17,7 km/h (3 Bft) 97,62 %
26.03.2019 00:14 3,2 C 8,3 C 2,8 C 87 % 1022,4 hPa 0,0 l/m 11,4 km/h (2 Bft) W-NW 292 0 min 0,000 mm 0,0 UV-I 0 W/m 1,2 C -0,9 C 19,3 km/h (3 Bft) 100,00 %
26.03.2019 00:16 3,1 C 8,3 C 2,8 C 87 % 1022,4 hPa 0,0 l/m 11,4 km/h (2 Bft) W 271 0 min 0,000 mm 0,0 UV-I 0 W/m 1,2 C -1,0 C 17,7 km/h (3 Bft) 100,00 %
26.03.2019 00:18 3,1 C 8,3 C 2,8 C 87 % 1022,4 hPa 0,0 l/m 11,2 km/h (2 Bft) W 261 0 min 0,000 mm 0,0 UV-I 0 W/m 1,2 C -0,9 C 16,1 km/h (3 Bft) 98,00 %
26.03.2019 00:20 3,1 C 8,3 C 2,8 C 87 % 1022,4 hPa 0,0 l/m 15,3 km/h (3 Bft) W-SW 243 0 min 0,000 mm 0,0 UV-I 0 W/m 1,2 C -3,4 C 22,5 km/h (4 Bft) 100,00 %
26.03.2019 00:22 3,1 C 8,3 C 2,8 C 87 % 1022,4 hPa 0,0 l/m 17,0 km/h (3 Bft) W-NW 298 0 min 0,000 mm 0,0 UV-I 0 W/m 1,2 C -4,3 C 24,1 km/h (4 Bft) 98,11 %
26.03.2019 00:24 3,1 C 8,3 C 2,8 C 87 % 1022,5 hPa 0,0 l/m 9,7 km/h (2 Bft) W 262 0 min 0,000 mm 0,0 UV-I 0 W/m 1,2 C 0,2 C 16,1 km/h (3 Bft) 100,00 %
26.03.2019 00:26 3,2 C 8,3 C 2,8 C 87 % 1022,5 hPa 0,0 l/m 14,3 km/h (3 Bft) W 263 0 min 0,000 mm 0,0 UV-I 0 W/m 1,2 C -2,7 C 20,9 km/h (4 Bft) 100,00 %
26.03.2019 00:28 3,1 C 8,3 C 2,8 C 87 % 1022,6 hPa 0,0 l/m 16,2 km/h (3 Bft) W-SW 256 0 min 0,000 mm 0,0 UV-I 0 W/m 1,2 C -3,9 C 22,5 km/h (4 Bft) 100,00 %
26.03.2019 00:30 3,1 C 8,3 C 2,8 C 87 % 1022,5 hPa 0,0 l/m 19,9 km/h (4 Bft) W 261 0 min 0,000 mm 0,0 UV-I 0 W/m 1,2 C -5,6 C 29,0 km/h (5 Bft) 97,87 %
26.03.2019 00:32 3,1 C 8,3 C 2,8 C 87 % 1022,4 hPa 0,0 l/m 18,4 km/h (3 Bft) W-SW 258 0 min 0,000 mm 0,0 UV-I 0 W/m 1,2 C -4,9 C 22,5 km/h (4 Bft) 95,74 %
26.03.2019 00:34 3,1 C 8,3 C 2,8 C 87 % 1022,4 hPa 0,0 l/m 15,8 km/h (3 Bft) W 273 0 min 0,000 mm 0,0 UV-I 0 W/m 1,2 C -3,7 C 24,1 km/h (4 Bft) 96,00 %
26.03.2019 00:36 3,1 C 8,3 C 2,8 C 87 % 1022,4 hPa 0,0 l/m 17,4 km/h (3 Bft) W 281 0 min 0,000 mm 0,0 UV-I 0 W/m 1,2 C -4,5 C 25,7 km/h (4 Bft) 97,73 %
26.03.2019 00:38 3,2 C 8,3 C 2,8 C 87 % 1022,5 hPa 0,0 l/m 15,2 km/h (3 Bft) W 262 0 min 0,000 mm 0,0 UV-I 0 W/m 1,2 C -3,2 C 20,9 km/h (4 Bft) 98,00 %
26.03.2019 00:40 3,2 C 8,3 C 2,8 C 86 % 1022,5 hPa 0,0 l/m 15,7 km/h (3 Bft) W 267 0 min 0,000 mm 0,0 UV-I 0 W/m 1,1 C -3,5 C 22,5 km/h (4 Bft) 97,37 %
26.03.2019 00:42 3,2 C 8,3 C 2,8 C 87 % 1022,4 hPa 0,0 l/m 14,9 km/h (3 Bft) W 273 0 min 0,000 mm 0,0 UV-I 0 W/m 1,2 C -3,0 C 22,5 km/h (4 Bft) 98,11 %
26.03.2019 00:44 3,2 C 8,3 C 2,8 C 86 % 1022,5 hPa 0,0 l/m 16,9 km/h (3 Bft) W 269 0 min 0,000 mm 0,0 UV-I 0 W/m 1,1 C -4,1 C 25,7 km/h (4 Bft) 98,00 %
26.03.2019 00:46 3,1 C 8,3 C 2,8 C 86 % 1022,5 hPa 0,0 l/m 15,4 km/h (3 Bft) W 266 0 min 0,000 mm 0,0 UV-I 0 W/m 1,0 C -3,4 C 24,1 km/h (4 Bft) 97,87 %
26.03.2019 00:48 3,2 C 8,3 C 2,8 C 86 % 1022,5 hPa 0,0 l/m 12,6 km/h (3 Bft) W-SW 253 0 min 0,000 mm 0,0 UV-I 0 W/m 1,1 C -1,7 C 22,5 km/h (4 Bft) 97,87 %
26.03.2019 00:50 3,2 C 8,3 C 2,8 C 86 % 1022,6 hPa 0,0 l/m 16,4 km/h (3 Bft) W 259 0 min 0,000 mm 0,0 UV-I 0 W/m 1,1 C -3,8 C 27,4 km/h (4 Bft) 95,45 %
26.03.2019 00:52 3,1 C 8,3 C 2,8 C 86 % 1022,6 hPa 0,0 l/m 10,1 km/h (2 Bft) W 264 0 min 0,000 mm 0,0 UV-I 0 W/m 1,0 C -0,1 C 16,1 km/h (3 Bft) 100,00 %
26.03.2019 00:54 3,1 C 8,3 C 2,8 C 87 % 1022,6 hPa 0,0 l/m 15,2 km/h (3 Bft) W-SW 245 0 min 0,000 mm 0,0 UV-I 0 W/m 1,2 C -3,3 C 24,1 km/h (4 Bft) 100,00 %
26.03.2019 00:56 3,1 C 8,3 C 2,8 C 87 % 1022,6 hPa 0,0 l/m 14,7 km/h (3 Bft) W 268 0 min 0,000 mm 0,0 UV-I 0 W/m 1,2 C -3,1 C 25,7 km/h (4 Bft) 97,56 %
26.03.2019 00:58 3,1 C 8,3 C 2,8 C 86 % 1022,6 hPa 0,0 l/m 12,8 km/h (3 Bft) W 276 0 min 0,000 mm 0,0 UV-I 0 W/m 1,0 C -1,9 C 25,7 km/h (4 Bft) 100,00 %
26.03.2019 01:00 3,1 C 8,3 C 2,8 C 86 % 1022,6 hPa 0,0 l/m 11,5 km/h (2 Bft) W 275 0 min 0,025 mm 0,0 UV-I 0 W/m 1,0 C -1,1 C 17,7 km/h (3 Bft) 100,00 %
26.03.2019 01:02 3,1 C 8,3 C 2,8 C 87 % 1022,5 hPa 0,0 l/m 14,8 km/h (3 Bft) W-NW 289 0 min 0,000 mm 0,0 UV-I 0 W/m 1,2 C -3,1 C 22,5 km/h (4 Bft) 96,00 %
26.03.2019 01:04 3,1 C 8,3 C 2,2 C 86 % 1022,6 hPa 0,0 l/m 16,1 km/h (3 Bft) W-NW 288 0 min 0,000 mm 0,0 UV-I 0 W/m 1,0 C -3,8 C 22,5 km/h (4 Bft) 100,00 %
26.03.2019 01:06 3,1 C 8,3 C 2,8 C 86 % 1022,6 hPa 0,0 l/m 16,1 km/h (3 Bft) W 279 0 min 0,000 mm 0,0 UV-I 0 W/m 1,0 C -3,8 C 20,9 km/h (4 Bft) 100,00 %
26.03.2019 01:08 3,1 C 8,3 C 2,8 C 86 % 1022,6 hPa 0,0 l/m 12,8 km/h (3 Bft) W-SW 242 0 min 0,000 mm 0,0 UV-I 0 W/m 1,0 C -1,9 C 17,7 km/h (3 Bft) 97,37 %
26.03.2019 01:10 3,1 C 8,3 C 2,8 C 87 % 1022,6 hPa 0,0 l/m 11,0 km/h (2 Bft) W 260 0 min 0,000 mm 0,0 UV-I 0 W/m 1,2 C -0,8 C 16,1 km/h (3 Bft) 96,43 %
26.03.2019 01:12 3,1 C 8,3 C 2,2 C 87 % 1022,6 hPa 0,0 l/m 13,9 km/h (3 Bft) W-NW 284 0 min 0,000 mm 0,0 UV-I 0 W/m 1,2 C -2,6 C 20,9 km/h (4 Bft) 100,00 %
26.03.2019 01:14 3,1 C 8,3 C 2,2 C 87 % 1022,6 hPa 0,0 l/m 12,9 km/h (3 Bft) W 259 0 min 0,000 mm 0,0 UV-I 0 W/m 1,2 C -2,0 C 19,3 km/h (3 Bft) 100,00 %
26.03.2019 01:16 3,1 C 8,3 C 2,8 C 87 % 1022,6 hPa 0,0 l/m 15,8 km/h (3 Bft) W 279 0 min 0,000 mm 0,0 UV-I 0 W/m 1,2 C -3,7 C 22,5 km/h (4 Bft) 100,00 %
26.03.2019 01:18 3,1 C 8,3 C 2,2 C 87 % 1022,7 hPa 0,0 l/m 11,9 km/h (2 Bft) W 266 0 min 0,000 mm 0,0 UV-I 0 W/m 1,2 C -1,4 C 22,5 km/h (4 Bft) 100,00 %
26.03.2019 01:20 3,1 C 8,3 C 2,2 C 87 % 1022,6 hPa 0,0 l/m 15,8 km/h (3 Bft) W 268 0 min 0,000 mm 0,0 UV-I 0 W/m 1,2 C -3,7 C 24,1 km/h (4 Bft) 98,11 %
26.03.2019 01:22 3,1 C 8,3 C 2,8 C 86 % 1022,7 hPa 0,0 l/m 14,6 km/h (3 Bft) W 276 0 min 0,000 mm 0,0 UV-I 0 W/m 1,0 C -3,0 C 19,3 km/h (3 Bft) 100,00 %
26.03.2019 01:24 3,1 C 8,3 C 2,2 C 86 % 1022,7 hPa 0,0 l/m 14,3 km/h (3 Bft) W 262 0 min 0,000 mm 0,0 UV-I 0 W/m 1,0 C -2,8 C 20,9 km/h (4 Bft) 100,00 %
26.03.2019 01:26 3,1 C 8,3 C 2,2 C 86 % 1022,7 hPa 0,0 l/m 12,9 km/h (3 Bft) W 278 0 min 0,000 mm 0,0 UV-I 0 W/m 1,0 C -2,0 C 22,5 km/h (4 Bft) 100,00 %
26.03.2019 01:28 3,1 C 8,3 C 2,2 C 87 % 1022,7 hPa 0,0 l/m 9,4 km/h (2 Bft) W-NW 289 0 min 0,000 mm 0,0 UV-I 0 W/m 1,2 C 0,4 C 14,5 km/h (3 Bft) 98,00 %
26.03.2019 01:30 3,0 C 8,3 C 2,2 C 87 % 1022,7 hPa 0,0 l/m 10,2 km/h (2 Bft) W-NW 289 0 min 0,000 mm 0,0 UV-I 0 W/m 1,1 C -0,3 C 14,5 km/h (3 Bft) 100,00 %
26.03.2019 01:32 3,0 C 8,3 C 2,2 C 87 % 1022,7 hPa 0,0 l/m 15,1 km/h (3 Bft) W-SW 256 0 min 0,000 mm 0,0 UV-I 0 W/m 1,1 C -3,4 C 20,9 km/h (4 Bft) 100,00 %
26.03.2019 01:34 3,0 C 8,3 C 2,2 C 87 % 1022,7 hPa 0,0 l/m 13,3 km/h (3 Bft) W 263 0 min 0,000 mm 0,0 UV-I 0 W/m 1,1 C -2,4 C 17,7 km/h (3 Bft) 100,00 %
26.03.2019 01:36 3,0 C 8,3 C 2,2 C 87 % 1022,7 hPa 0,0 l/m 13,8 km/h (3 Bft) W 266 0 min 0,000 mm 0,0 UV-I 0 W/m 1,1 C -2,7 C 20,9 km/h (4 Bft) 100,00 %
26.03.2019 01:38 2,9 C 8,3 C 2,2 C 87 % 1022,8 hPa 0,0 l/m 11,9 km/h (2 Bft) W 263 0 min 0,000 mm 0,0 UV-I 0 W/m 1,0 C -1,6 C 19,3 km/h (3 Bft) 100,00 %
26.03.2019 01:40 2,9 C 8,3 C 2,2 C 87 % 1022,9 hPa 0,0 l/m 15,4 km/h (3 Bft) W 270 0 min 0,000 mm 0,0 UV-I 0 W/m 1,0 C -3,7 C 24,1 km/h (4 Bft) 100,00 %
26.03.2019 01:42 2,9 C 8,3 C 2,2 C 87 % 1022,8 hPa 0,0 l/m 13,2 km/h (3 Bft) W 278 0 min 0,000 mm 0,0 UV-I 0 W/m 1,0 C -2,4 C 20,9 km/h (4 Bft) 97,87 %
26.03.2019 01:44 2,9 C 8,3 C 2,2 C 87 % 1022,8 hPa 0,0 l/m 14,1 km/h (3 Bft) W-NW 289 0 min 0,000 mm 0,0 UV-I 0 W/m 1,0 C -3,0 C 19,3 km/h (3 Bft) 97,87 %
26.03.2019 01:46 2,9 C 8,3 C 2,2 C 87 % 1022,8 hPa 0,0 l/m 11,0 km/h (2 Bft) W-NW 295 0 min 0,000 mm 0,0 UV-I 0 W/m 1,0 C -1,0 C 17,7 km/h (3 Bft) 98,00 %
26.03.2019 01:48 2,9 C 8,3 C 2,2 C 87 % 1022,8 hPa 0,0 l/m 13,0 km/h (3 Bft) W-SW 258 0 min 0,000 mm 0,0 UV-I 0 W/m 1,0 C -2,3 C 20,9 km/h (4 Bft) 95,12 %
26.03.2019 01:50 2,9 C 8,3 C 2,2 C 87 % 1022,8 hPa 0,0 l/m 12,3 km/h (3 Bft) W 265 0 min 0,000 mm 0,0 UV-I 0 W/m 1,0 C -1,9 C 20,9 km/h (4 Bft) 94,34 %
26.03.2019 01:52 2,9 C 8,3 C 2,2 C 87 % 1022,8 hPa 0,0 l/m 13,6 km/h (3 Bft) W 279 0 min 0,000 mm 0,0 UV-I 0 W/m 1,0 C -2,7 C 17,7 km/h (3 Bft) 95,12 %
26.03.2019 01:54 2,9 C 8,3 C 2,2 C 87 % 1022,8 hPa 0,0 l/m 16,0 km/h (3 Bft) W-SW 246 0 min 0,000 mm 0,0 UV-I 0 W/m 1,0 C -4,0 C 24,1 km/h (4 Bft) 94,74 %
26.03.2019 01:56 2,9 C 8,3 C 2,2 C 87 % 1022,8 hPa 0,0 l/m 9,9 km/h (2 Bft) W 271 0 min 0,000 mm 0,0 UV-I 0 W/m 1,0 C -0,2 C 19,3 km/h (3 Bft) 90,32 %
26.03.2019 01:58 2,9 C 8,3 C 2,2 C 87 % 1022,9 hPa 0,0 l/m 12,0 km/h (2 Bft) W 265 0 min 0,000 mm 0,0 UV-I 0 W/m 1,0 C -1,7 C 19,3 km/h (3 Bft) 91,49 %
26.03.2019 02:00 2,9 C 8,3 C 2,2 C 87 % 1022,9 hPa 0,0 l/m 12,5 km/h (3 Bft) W 267 0 min 0,026 mm 0,0 UV-I 0 W/m 1,0 C -2,0 C 19,3 km/h (3 Bft) 91,49 %
26.03.2019 02:02 2,9 C 8,3 C 2,2 C 87 % 1023,0 hPa 0,0 l/m 12,2 km/h (2 Bft) W 271 0 min 0,000 mm 0,0 UV-I 0 W/m 1,0 C -1,8 C 17,7 km/h (3 Bft) 97,22 %
26.03.2019 02:04 2,9 C 8,3 C 2,2 C 87 % 1022,9 hPa 0,0 l/m 12,7 km/h (3 Bft) W-SW 258 0 min 0,000 mm 0,0 UV-I 0 W/m 1,0 C -2,1 C 17,7 km/h (3 Bft) 90,20 %
26.03.2019 02:06 2,8 C 8,3 C 2,2 C 87 % 1022,9 hPa 0,0 l/m 14,7 km/h (3 Bft) W-NW 296 0 min 0,000 mm 0,0 UV-I 0 W/m 0,9 C -3,4 C 22,5 km/h (4 Bft) 94,23 %
26.03.2019 02:08 2,8 C 8,3 C 2,2 C 87 % 1023,0 hPa 0,0 l/m 16,9 km/h (3 Bft) W-NW 293 0 min 0,000 mm 0,0 UV-I 0 W/m 0,9 C -4,6 C 24,1 km/h (4 Bft) 94,00 %
26.03.2019 02:10 2,8 C 8,3 C 2,2 C 87 % 1023,0 hPa 0,0 l/m 16,2 km/h (3 Bft) W-NW 292 0 min 0,000 mm 0,0 UV-I 0 W/m 0,9 C -4,2 C 22,5 km/h (4 Bft) 95,74 %
26.03.2019 02:12 2,8 C 8,3 C 2,2 C 87 % 1023,1 hPa 0,0 l/m 10,9 km/h (2 Bft) W 266 0 min 0,000 mm 0,0 UV-I 0 W/m 0,9 C -1,0 C 17,7 km/h (3 Bft) 93,75 %
26.03.2019 02:14 2,8 C 8,3 C 2,2 C 87 % 1023,2 hPa 0,0 l/m 13,0 km/h (3 Bft) W 271 0 min 0,000 mm 0,0 UV-I 0 W/m 0,9 C -2,4 C 17,7 km/h (3 Bft) 94,29 %
26.03.2019 02:16 2,8 C 8,3 C 2,2 C 87 % 1023,1 hPa 0,0 l/m 12,2 km/h (2 Bft) W 264 0 min 0,000 mm 0,0 UV-I 0 W/m 0,9 C -1,9 C 20,9 km/h (4 Bft) 96,00 %
26.03.2019 02:18 2,8 C 8,3 C 2,2 C 87 % 1023,1 hPa 0,0 l/m 9,3 km/h (2 Bft) W 279 0 min 0,000 mm 0,0 UV-I 0 W/m 0,9 C 0,2 C 12,9 km/h (3 Bft) 96,43 %
26.03.2019 02:20 2,8 C 8,3 C 2,2 C 87 % 1023,2 hPa 0,0 l/m 11,4 km/h (2 Bft) W 265 0 min 0,000 mm 0,0 UV-I 0 W/m 0,9 C -1,4 C 17,7 km/h (3 Bft) 94,74 %
26.03.2019 02:22 2,8 C 8,3 C 2,2 C 87 % 1023,2 hPa 0,0 l/m 10,6 km/h (2 Bft) W 271 0 min 0,000 mm 0,0 UV-I 0 W/m 0,9 C -0,8 C 16,1 km/h (3 Bft) 96,00 %
26.03.2019 02:24 2,8 C 8,3 C 2,2 C 87 % 1023,2 hPa 0,0 l/m 9,6 km/h (2 Bft) W 275 0 min 0,000 mm 0,0 UV-I 0 W/m 0,9 C -0,0 C 16,1 km/h (3 Bft) 95,74 %
26.03.2019 02:26 2,7 C 8,3 C 1,7 C 87 % 1023,2 hPa 0,0 l/m 8,2 km/h (2 Bft) W 275 0 min 0,000 mm 0,0 UV-I 0 W/m 0,8 C 1,0 C 12,9 km/h (3 Bft) 97,87 %
26.03.2019 02:28 2,7 C 8,3 C 1,7 C 87 % 1023,2 hPa 0,0 l/m 9,0 km/h (2 Bft) W-SW 257 0 min 0,000 mm 0,0 UV-I 0 W/m 0,8 C 0,3 C 14,5 km/h (3 Bft) 96,00 %
26.03.2019 02:30 2,7 C 8,3 C 1,7 C 88 % 1023,2 hPa 0,0 l/m 10,5 km/h (2 Bft) W 267 0 min 0,000 mm 0,0 UV-I 0 W/m 0,9 C -0,8 C 17,7 km/h (3 Bft) 97,87 %
26.03.2019 02:32 2,6 C 8,3 C 1,7 C 87 % 1023,2 hPa 0,0 l/m 9,4 km/h (2 Bft) W 274 0 min 0,000 mm 0,0 UV-I 0 W/m 0,7 C -0,1 C 17,7 km/h (3 Bft) 97,87 %
26.03.2019 02:34 2,6 C 8,3 C 1,7 C 88 % 1023,3 hPa 0,0 l/m 13,7 km/h (3 Bft) W 271 0 min 0,000 mm 0,0 UV-I 0 W/m 0,8 C -3,1 C 20,9 km/h (4 Bft) 97,37 %
26.03.2019 02:36 2,6 C 8,3 C 1,7 C 88 % 1023,3 hPa 0,0 l/m 12,3 km/h (3 Bft) W 278 0 min 0,000 mm 0,0 UV-I 0 W/m 0,8 C -2,2 C 22,5 km/h (4 Bft) 97,87 %
26.03.2019 02:38 2,6 C 8,3 C 1,7 C 87 % 1023,4 hPa 0,0 l/m 11,5 km/h (2 Bft) W 276 0 min 0,000 mm 0,0 UV-I 0 W/m 0,7 C -1,7 C 20,9 km/h (4 Bft) 97,87 %
26.03.2019 02:40 2,6 C 8,3 C 1,7 C 87 % 1023,4 hPa 0,0 l/m 11,8 km/h (2 Bft) W 275 0 min 0,000 mm 0,0 UV-I 0 W/m 0,7 C -1,9 C 17,7 km/h (3 Bft) 96,43 %
26.03.2019 02:42 2,6 C 8,3 C 1,7 C 87 % 1023,4 hPa 0,0 l/m 10,2 km/h (2 Bft) W 264 0 min 0,000 mm 0,0 UV-I 0 W/m 0,7 C -0,7 C 14,5 km/h (3 Bft) 92,11 %
26.03.2019 02:44 2,6 C 8,3 C 1,7 C 87 % 1023,5 hPa 0,0 l/m 11,1 km/h (2 Bft) W 264 0 min 0,000 mm 0,0 UV-I 0 W/m 0,7 C -1,4 C 16,1 km/h (3 Bft) 97,92 %
26.03.2019 02:46 2,6 C 8,3 C 2,2 C 87 % 1023,4 hPa 0,0 l/m 5,9 km/h (2 Bft) NW 313 0 min 0,000 mm 0,0 UV-I 0 W/m 0,7 C 2,6 C 9,7 km/h (2 Bft) 96,15 %
26.03.2019 02:48 2,6 C 8,3 C 2,2 C 87 % 1023,5 hPa 0,0 l/m 12,9 km/h (3 Bft) W-SW 249 0 min 0,000 mm 0,0 UV-I 0 W/m 0,7 C -2,6 C 19,3 km/h (3 Bft) 97,62 %
26.03.2019 02:50 2,6 C 8,3 C 2,2 C 87 % 1023,4 hPa 0,0 l/m 10,6 km/h (2 Bft) W 269 0 min 0,000 mm 0,0 UV-I 0 W/m 0,7 C -1,0 C 17,7 km/h (3 Bft) 98,00 %
26.03.2019 02:52 2,6 C 8,3 C 2,2 C 87 % 1023,5 hPa 0,0 l/m 12,6 km/h (3 Bft) W 266 0 min 0,000 mm 0,0 UV-I 0 W/m 0,7 C -2,4 C 22,5 km/h (4 Bft) 97,56 %
26.03.2019 02:54 2,6 C 8,3 C 1,7 C 87 % 1023,4 hPa 0,0 l/m 15,1 km/h (3 Bft) W-NW 288 0 min 0,000 mm 0,0 UV-I 0 W/m 0,7 C -3,9 C 20,9 km/h (4 Bft) 96,23 %
26.03.2019 02:56 2,5 C 8,3 C 2,2 C 87 % 1023,4 hPa 0,0 l/m 12,2 km/h (2 Bft) W 265 0 min 0,000 mm 0,0 UV-I 0 W/m 0,6 C -2,3 C 17,7 km/h (3 Bft) 97,87 %
26.03.2019 02:58 2,5 C 8,3 C 1,7 C 87 % 1023,5 hPa 0,0 l/m 7,6 km/h (2 Bft) W 271 0 min 0,000 mm 0,0 UV-I 0 W/m 0,6 C 1,3 C 12,9 km/h (3 Bft) 96,00 %
26.03.2019 03:00 2,5 C 8,3 C 1,7 C 87 % 1023,5 hPa 0,0 l/m 7,9 km/h (2 Bft) W-NW 303 0 min 0,025 mm 0,0 UV-I 0 W/m 0,6 C 1,1 C 16,1 km/h (3 Bft) 97,37 %
26.03.2019 03:02 2,5 C 8,3 C 1,7 C 87 % 1023,5 hPa 0,0 l/m 12,0 km/h (2 Bft) W-SW 254 0 min 0,000 mm 0,0 UV-I 0 W/m 0,6 C -2,1 C 22,5 km/h (4 Bft) 98,11 %
26.03.2019 03:04 2,5 C 8,3 C 1,7 C 87 % 1023,5 hPa 0,0 l/m 10,9 km/h (2 Bft) W 274 0 min 0,000 mm 0,0 UV-I 0 W/m 0,6 C -1,4 C 16,1 km/h (3 Bft) 95,12 %
26.03.2019 03:06 2,4 C 8,3 C 1,7 C 88 % 1023,5 hPa 0,0 l/m 9,4 km/h (2 Bft) W-NW 288 0 min 0,000 mm 0,0 UV-I 0 W/m 0,6 C -0,3 C 17,7 km/h (3 Bft) 98,00 %
26.03.2019 03:08 2,4 C 8,3 C 1,7 C 88 % 1023,5 hPa 0,0 l/m 14,4 km/h (3 Bft) W-NW 292 0 min 0,000 mm 0,0 UV-I 0 W/m 0,6 C -3,7 C 24,1 km/h (4 Bft) 98,11 %
26.03.2019 03:10 2,4 C 8,3 C 1,7 C 87 % 1023,5 hPa 0,0 l/m 11,8 km/h (2 Bft) W 273 0 min 0,000 mm 0,0 UV-I 0 W/m 0,5 C -2,1 C 20,9 km/h (4 Bft) 97,87 %
26.03.2019 03:12 2,4 C 8,3 C 1,7 C 87 % 1023,6 hPa 0,0 l/m 9,3 km/h (2 Bft) W-NW 294 0 min 0,000 mm 0,0 UV-I 0 W/m 0,5 C -0,2 C 14,5 km/h (3 Bft) 97,37 %
26.03.2019 03:14 2,4 C 8,3 C 1,7 C 88 % 1023,6 hPa 0,0 l/m 13,5 km/h (3 Bft) W 275 0 min 0,000 mm 0,0 UV-I 0 W/m 0,6 C -3,2 C 25,7 km/h (4 Bft) 97,22 %
26.03.2019 03:16 2,4 C 8,3 C 1,7 C 87 % 1023,7 hPa 0,0 l/m 10,5 km/h (2 Bft) W 268 0 min 0,000 mm 0,0 UV-I 0 W/m 0,5 C -1,2 C 16,1 km/h (3 Bft) 98,08 %
26.03.2019 03:18 2,4 C 8,3 C 1,7 C 87 % 1023,7 hPa 0,0 l/m 11,7 km/h (2 Bft) W 260 0 min 0,000 mm 0,0 UV-I 0 W/m 0,5 C -2,0 C 16,1 km/h (3 Bft) 98,11 %
26.03.2019 03:20 2,4 C 8,3 C 1,7 C 87 % 1023,7 hPa 0,0 l/m 9,3 km/h (2 Bft) W 276 0 min 0,000 mm 0,0 UV-I 0 W/m 0,5 C -0,2 C 16,1 km/h (3 Bft) 95,74 %
26.03.2019 03:22 2,4 C 8,3 C 1,7 C 87 % 1023,7 hPa 0,0 l/m 9,4 km/h (2 Bft) W 277 0 min 0,000 mm 0,0 UV-I 0 W/m 0,5 C -0,3 C 14,5 km/h (3 Bft) 92,45 %
26.03.2019 03:24 2,4 C 8,3 C 1,7 C 88 % 1023,8 hPa 0,0 l/m 11,5 km/h (2 Bft) W 269 0 min 0,000 mm 0,0 UV-I 0 W/m 0,6 C -1,9 C 16,1 km/h (3 Bft) 97,62 %
26.03.2019 03:26 2,4 C 8,3 C 1,7 C 87 % 1023,8 hPa 0,0 l/m 12,1 km/h (2 Bft) W-NW 288 0 min 0,000 mm 0,0 UV-I 0 W/m 0,5 C -2,3 C 20,9 km/h (4 Bft) 100,00 %
26.03.2019 03:28 2,4 C 8,3 C 1,7 C 88 % 1023,8 hPa 0,0 l/m 11,4 km/h (2 Bft) W-NW 286 0 min 0,000 mm 0,0 UV-I 0 W/m 0,6 C -1,8 C 16,1 km/h (3 Bft) 100,00 %
26.03.2019 03:30 2,4 C 8,3 C 2,2 C 88 % 1023,9 hPa 0,0 l/m 9,8 km/h (2 Bft) W 277 0 min 0,000 mm 0,0 UV-I 0 W/m 0,6 C -0,6 C 16,1 km/h (3 Bft) 100,00 %
26.03.2019 03:32 2,4 C 8,3 C 1,7 C 88 % 1023,9 hPa 0,0 l/m 13,2 km/h (3 Bft) W 273 0 min 0,000 mm 0,0 UV-I 0 W/m 0,6 C -3,0 C 22,5 km/h (4 Bft) 100,00 %
26.03.2019 03:34 2,4 C 8,3 C 2,2 C 88 % 1023,9 hPa 0,0 l/m 10,8 km/h (2 Bft) W 277 0 min 0,000 mm 0,0 UV-I 0 W/m 0,6 C -1,4 C 14,5 km/h (3 Bft) 100,00 %
26.03.2019 03:36 2,4 C 8,3 C 2,2 C 88 % 1024,0 hPa 0,0 l/m 10,6 km/h (2 Bft) W-NW 294 0 min 0,000 mm 0,0 UV-I 0 W/m 0,6 C -1,3 C 19,3 km/h (3 Bft) 100,00 %
26.03.2019 03:38 2,4 C 8,3 C 1,7 C 88 % 1024,0 hPa 0,0 l/m 10,9 km/h (2 Bft) W-NW 282 0 min 0,000 mm 0,0 UV-I 0 W/m 0,6 C -1,5 C 16,1 km/h (3 Bft) 100,00 %
26.03.2019 03:40 2,4 C 8,3 C 2,2 C 88 % 1024,1 hPa 0,0 l/m 8,8 km/h (2 Bft) W 273 0 min 0,000 mm 0,0 UV-I 0 W/m 0,6 C 0,2 C 16,1 km/h (3 Bft) 100,00 %
26.03.2019 03:42 2,4 C 8,3 C 2,2 C 88 % 1024,1 hPa 0,0 l/m 8,4 km/h (2 Bft) W-SW 244 0 min 0,000 mm 0,0 UV-I 0 W/m 0,6 C 0,5 C 16,1 km/h (3 Bft) 100,00 %
26.03.2019 03:44 2,4 C 8,3 C 2,2 C 88 % 1024,1 hPa 0,0 l/m 9,8 km/h (2 Bft) W-NW 290 0 min 0,000 mm 0,0 UV-I 0 W/m 0,6 C -0,6 C 16,1 km/h (3 Bft) 100,00 %
26.03.2019 03:46 2,4 C 8,3 C 2,2 C 88 % 1024,2 hPa 0,0 l/m 9,9 km/h (2 Bft) W 277 0 min 0,000 mm 0,0 UV-I 0 W/m 0,6 C -0,7 C 16,1 km/h (3 Bft) 98,11 %
26.03.2019 03:48 2,4 C 8,3 C 2,2 C 88 % 1024,2 hPa 0,0 l/m 8,8 km/h (2 Bft) W 273 0 min 0,000 mm 0,0 UV-I 0 W/m 0,6 C 0,2 C 12,9 km/h (3 Bft) 100,00 %
26.03.2019 03:50 2,4 C 8,3 C 2,2 C 88 % 1024,1 hPa 0,0 l/m 7,2 km/h (2 Bft) W 267 0 min 0,000 mm 0,0 UV-I 0 W/m 0,6 C 1,6 C 14,5 km/h (3 Bft) 96,61 %
26.03.2019 03:52 2,4 C 8,3 C 2,2 C 88 % 1024,1 hPa 0,0 l/m 7,1 km/h (2 Bft) W 261 0 min 0,000 mm 0,0 UV-I 0 W/m 0,6 C 1,7 C 12,9 km/h (3 Bft) 97,37 %
26.03.2019 03:54 2,4 C 8,3 C 2,2 C 88 % 1024,2 hPa 0,0 l/m 9,9 km/h (2 Bft) W 273 0 min 0,000 mm 0,0 UV-I 0 W/m 0,6 C -0,7 C 16,1 km/h (3 Bft) 96,23 %
26.03.2019 03:56 2,4 C 8,3 C 2,2 C 88 % 1024,2 hPa 0,0 l/m 5,4 km/h (1 Bft) W 278 0 min 0,000 mm 0,0 UV-I 0 W/m 0,6 C 2,4 C 12,9 km/h (3 Bft) 97,37 %
26.03.2019 03:58 2,4 C 8,3 C 2,2 C 88 % 1024,2 hPa 0,0 l/m 13,1 km/h (3 Bft) W-NW 295 0 min 0,000 mm 0,0 UV-I 0 W/m 0,6 C -3,0 C 20,9 km/h (4 Bft) 96,00 %
26.03.2019 04:00 2,3 C 8,3 C 1,7 C 88 % 1024,2 hPa 0,0 l/m 9,3 km/h (2 Bft) W 280 0 min 0,000 mm 0,0 UV-I 0 W/m 0,5 C -0,4 C 16,1 km/h (3 Bft) 98,21 %
26.03.2019 04:02 2,4 C 8,3 C 1,7 C 88 % 1024,1 hPa 0,0 l/m 8,9 km/h (2 Bft) W-NW 282 0 min 0,000 mm 0,0 UV-I 0 W/m 0,6 C 0,1 C 9,7 km/h (2 Bft) 100,00 %
26.03.2019 04:04 2,3 C 8,3 C 1,7 C 88 % 1024,1 hPa 0,0 l/m 7,6 km/h (2 Bft) W 267 0 min 0,000 mm 0,0 UV-I 0 W/m 0,5 C 1,1 C 14,5 km/h (3 Bft) 97,62 %
26.03.2019 04:06 2,3 C 8,3 C 1,7 C 88 % 1024,1 hPa 0,0 l/m 10,6 km/h (2 Bft) W 270 0 min 0,000 mm 0,0 UV-I 0 W/m 0,5 C -1,4 C 16,1 km/h (3 Bft) 98,00 %
26.03.2019 04:08 2,3 C 8,3 C 1,7 C 88 % 1024,1 hPa 0,0 l/m 8,3 km/h (2 Bft) W-NW 288 0 min 0,000 mm 0,0 UV-I 0 W/m 0,5 C 0,5 C 14,5 km/h (3 Bft) 97,37 %
26.03.2019 04:10 2,3 C 8,3 C 1,7 C 88 % 1024,2 hPa 0,0 l/m 8,0 km/h (2 Bft) NW 311 0 min 0,000 mm 0,0 UV-I 0 W/m 0,5 C 0,8 C 12,9 km/h (3 Bft) 95,74 %
26.03.2019 04:12 2,3 C 8,3 C 1,7 C 88 % 1024,3 hPa 0,0 l/m 6,9 km/h (2 Bft) W-NW 297 0 min 0,000 mm 0,0 UV-I 0 W/m 0,5 C 1,8 C 11,3 km/h (2 Bft) 94,00 %
26.03.2019 04:14 2,3 C 8,3 C 1,7 C 88 % 1024,3 hPa 0,0 l/m 8,7 km/h (2 Bft) W-NW 298 0 min 0,000 mm 0,0 UV-I 0 W/m 0,5 C 0,1 C 14,5 km/h (3 Bft) 95,74 %
26.03.2019 04:16 2,3 C 8,3 C 1,7 C 88 % 1024,2 hPa 0,0 l/m 8,6 km/h (2 Bft) W 275 0 min 0,000 mm 0,0 UV-I 0 W/m 0,5 C 0,2 C 14,5 km/h (3 Bft) 98,00 %
26.03.2019 04:18 2,3 C 8,3 C 1,7 C 88 % 1024,3 hPa 0,0 l/m 9,5 km/h (2 Bft) W 263 0 min 0,000 mm 0,0 UV-I 0 W/m 0,5 C -0,5 C 12,9 km/h (3 Bft) 94,74 %
26.03.2019 04:20 2,3 C 8,3 C 1,7 C 88 % 1024,4 hPa 0,0 l/m 9,9 km/h (2 Bft) W 270 0 min 0,000 mm 0,0 UV-I 0 W/m 0,5 C -0,8 C 16,1 km/h (3 Bft) 96,43 %
26.03.2019 04:22 2,3 C 8,3 C 1,7 C 88 % 1024,4 hPa 0,0 l/m 10,9 km/h (2 Bft) W 261 0 min 0,000 mm 0,0 UV-I 0 W/m 0,5 C -1,6 C 16,1 km/h (3 Bft) 95,45 %
26.03.2019 04:24 2,3 C 8,3 C 1,7 C 88 % 1024,4 hPa 0,0 l/m 9,7 km/h (2 Bft) W-SW 256 0 min 0,000 mm 0,0 UV-I 0 W/m 0,5 C -0,7 C 12,9 km/h (3 Bft) 97,73 %
26.03.2019 04:26 2,3 C 8,3 C 1,7 C 88 % 1024,4 hPa 0,0 l/m 10,0 km/h (2 Bft) W 274 0 min 0,000 mm 0,0 UV-I 0 W/m 0,5 C -0,9 C 12,9 km/h (3 Bft) 96,23 %
26.03.2019 04:28 2,3 C 8,3 C 1,7 C 88 % 1024,4 hPa 0,0 l/m 13,5 km/h (3 Bft) W 277 0 min 0,000 mm 0,0 UV-I 0 W/m 0,5 C -3,3 C 19,3 km/h (3 Bft) 97,56 %
26.03.2019 04:30 2,3 C 8,3 C 1,7 C 88 % 1024,4 hPa 0,0 l/m 12,4 km/h (3 Bft) W-SW 257 0 min 0,000 mm 0,0 UV-I 0 W/m 0,5 C -2,6 C 17,7 km/h (3 Bft) 98,00 %
26.03.2019 04:32 2,3 C 8,3 C 1,7 C 88 % 1024,5 hPa 0,0 l/m 8,0 km/h (2 Bft) W 279 0 min 0,000 mm 0,0 UV-I 0 W/m 0,5 C 0,8 C 12,9 km/h (3 Bft) 96,00 %
26.03.2019 04:34 2,3 C 8,3 C 1,7 C 88 % 1024,5 hPa 0,0 l/m 8,5 km/h (2 Bft) W-NW 286 0 min 0,000 mm 0,0 UV-I 0 W/m 0,5 C 0,3 C 12,9 km/h (3 Bft) 97,87 %
26.03.2019 04:36 2,3 C 8,3 C 1,7 C 88 % 1024,6 hPa 0,0 l/m 10,8 km/h (2 Bft) NW 306 0 min 0,000 mm 0,0 UV-I 0 W/m 0,5 C -1,5 C 17,7 km/h (3 Bft) 97,44 %
26.03.2019 04:38 2,3 C 8,3 C 1,7 C 88 % 1024,6 hPa 0,0 l/m 8,9 km/h (2 Bft) W 275 0 min 0,000 mm 0,0 UV-I 0 W/m 0,5 C -0,0 C 16,1 km/h (3 Bft) 97,87 %
26.03.2019 04:40 2,3 C 8,3 C 1,7 C 89 % 1024,6 hPa 0,0 l/m 7,5 km/h (2 Bft) W-NW 287 0 min 0,000 mm 0,0 UV-I 0 W/m 0,7 C 1,2 C 12,9 km/h (3 Bft) 96,00 %
26.03.2019 04:42 2,2 C 8,3 C 1,7 C 89 % 1024,6 hPa 0,0 l/m 10,4 km/h (2 Bft) W 274 0 min 0,000 mm 0,0 UV-I 0 W/m 0,6 C -1,3 C 16,1 km/h (3 Bft) 97,87 %
26.03.2019 04:44 2,2 C 8,3 C 1,7 C 89 % 1024,6 hPa 0,0 l/m 4,9 km/h (1 Bft) W-NW 282 0 min 0,000 mm 0,0 UV-I 0 W/m 0,6 C 2,2 C 9,7 km/h (2 Bft) 98,11 %
26.03.2019 04:46 2,2 C 8,3 C 1,7 C 89 % 1024,6 hPa 0,0 l/m 9,7 km/h (2 Bft) W 277 0 min 0,000 mm 0,0 UV-I 0 W/m 0,6 C -0,8 C 16,1 km/h (3 Bft) 100,00 %
26.03.2019 04:48 2,2 C 8,3 C 1,7 C 89 % 1024,7 hPa 0,0 l/m 10,9 km/h (2 Bft) W 268 0 min 0,000 mm 0,0 UV-I 0 W/m 0,6 C -1,7 C 19,3 km/h (3 Bft) 96,23 %
26.03.2019 04:50 2,2 C 8,3 C 1,7 C 89 % 1024,7 hPa 0,0 l/m 9,0 km/h (2 Bft) W 261 0 min 0,000 mm 0,0 UV-I 0 W/m 0,6 C -0,2 C 14,5 km/h (3 Bft) 98,00 %
26.03.2019 04:52 2,2 C 8,3 C 1,7 C 89 % 1024,8 hPa 0,0 l/m 9,9 km/h (2 Bft) W-NW 284 0 min 0,000 mm 0,0 UV-I 0 W/m 0,6 C -0,9 C 12,9 km/h (3 Bft) 100,00 %
26.03.2019 04:54 2,2 C 8,3 C 1,7 C 89 % 1024,8 hPa 0,0 l/m 9,4 km/h (2 Bft) W-SW 250 0 min 0,000 mm 0,0 UV-I 0 W/m 0,6 C -0,5 C 12,9 km/h (3 Bft) 98,00 %
26.03.2019 04:56 2,2 C 8,3 C 1,7 C 89 % 1024,8 hPa 0,0 l/m 11,2 km/h (2 Bft) W 279 0 min 0,000 mm 0,0 UV-I 0 W/m 0,6 C -1,9 C 17,7 km/h (3 Bft) 97,87 %
26.03.2019 04:58 2,2 C 8,3 C 1,7 C 89 % 1024,8 hPa 0,0 l/m 6,1 km/h (2 Bft) W 280 0 min 0,000 mm 0,0 UV-I 0 W/m 0,6 C 2,2 C 11,3 km/h (2 Bft) 100,00 %
26.03.2019 05:00 2,2 C 8,3 C 1,7 C 89 % 1024,9 hPa 0,0 l/m 6,7 km/h (2 Bft) W-SW 258 0 min 0,000 mm 0,0 UV-I 0 W/m 0,6 C 1,9 C 12,9 km/h (3 Bft) 100,00 %
26.03.2019 05:02 2,2 C 8,3 C 1,7 C 89 % 1024,9 hPa 0,0 l/m 9,8 km/h (2 Bft) W 277 0 min 0,000 mm 0,0 UV-I 0 W/m 0,6 C -0,9 C 14,5 km/h (3 Bft) 100,00 %
26.03.2019 05:04 2,2 C 8,3 C 1,7 C 89 % 1025,0 hPa 0,0 l/m 9,9 km/h (2 Bft) W 261 0 min 0,000 mm 0,0 UV-I 0 W/m 0,6 C -0,9 C 12,9 km/h (3 Bft) 100,00 %
26.03.2019 05:06 2,2 C 8,3 C 1,7 C 89 % 1025,1 hPa 0,0 l/m 7,3 km/h (2 Bft) W 271 0 min 0,000 mm 0,0 UV-I 0 W/m 0,6 C 1,3 C 11,3 km/h (2 Bft) 100,00 %
26.03.2019 05:08 2,2 C 8,3 C 1,7 C 89 % 1025,0 hPa 0,0 l/m 7,5 km/h (2 Bft) W-SW 257 0 min 0,000 mm 0,0 UV-I 0 W/m 0,6 C 1,1 C 11,3 km/h (2 Bft) 100,00 %
26.03.2019 05:10 2,2 C 8,3 C 1,7 C 89 % 1025,0 hPa 0,0 l/m 8,8 km/h (2 Bft) W-SW 255 0 min 0,000 mm 0,0 UV-I 0 W/m 0,6 C -0,0 C 12,9 km/h (3 Bft) 100,00 %
26.03.2019 05:12 2,2 C 8,3 C 1,7 C 89 % 1025,0 hPa 0,0 l/m 9,8 km/h (2 Bft) W 265 0 min 0,000 mm 0,0 UV-I 0 W/m 0,6 C -0,9 C 14,5 km/h (3 Bft) 100,00 %
26.03.2019 05:14 2,2 C 8,3 C 1,7 C 89 % 1025,0 hPa 0,0 l/m 8,0 km/h (2 Bft) W 271 0 min 0,000 mm 0,0 UV-I 0 W/m 0,6 C 0,7 C 12,9 km/h (3 Bft) 97,37 %
26.03.2019 05:16 2,2 C 8,3 C 1,7 C 89 % 1025,0 hPa 0,0 l/m 8,2 km/h (2 Bft) W-SW 253 0 min 0,000 mm 0,0 UV-I 0 W/m 0,6 C 0,5 C 11,3 km/h (2 Bft) 100,00 %
26.03.2019 05:18 2,2 C 8,3 C 1,7 C 89 % 1025,0 hPa 0,0 l/m 11,4 km/h (2 Bft) W 274 0 min 0,000 mm 0,0 UV-I 0 W/m 0,6 C -2,1 C 14,5 km/h (3 Bft) 100,00 %
26.03.2019 05:20 2,2 C 8,3 C 1,7 C 89 % 1025,1 hPa 0,0 l/m 7,6 km/h (2 Bft) W 274 0 min 0,000 mm 0,0 UV-I 0 W/m 0,6 C 1,0 C 11,3 km/h (2 Bft) 100,00 %
26.03.2019 05:22 2,2 C 8,3 C 1,7 C 89 % 1025,1 hPa 0,0 l/m 6,9 km/h (2 Bft) W 265 0 min 0,000 mm 0,0 UV-I 0 W/m 0,6 C 1,7 C 11,3 km/h (2 Bft) 100,00 %
26.03.2019 05:24 2,2 C 8,3 C 1,7 C 89 % 1025,2 hPa 0,0 l/m 10,2 km/h (2 Bft) W 263 0 min 0,000 mm 0,0 UV-I 0 W/m 0,6 C -1,2 C 12,9 km/h (3 Bft) 100,00 %
26.03.2019 05:26 2,2 C 8,3 C 1,7 C 89 % 1025,2 hPa 0,0 l/m 8,2 km/h (2 Bft) W 265 0 min 0,000 mm 0,0 UV-I 0 W/m 0,6 C 0,5 C 14,5 km/h (3 Bft) 100,00 %
26.03.2019 05:28 2,2 C 8,3 C 1,7 C 89 % 1025,3 hPa 0,0 l/m 6,3 km/h (2 Bft) W 277 0 min 0,000 mm 0,0 UV-I 0 W/m 0,6 C 2,2 C 11,3 km/h (2 Bft) 100,00 %
26.03.2019 05:30 2,2 C 8,3 C 1,7 C 89 % 1025,3 hPa 0,0 l/m 9,4 km/h (2 Bft) W-SW 255 0 min 0,000 mm 0,0 UV-I 0 W/m 0,6 C -0,5 C 14,5 km/h (3 Bft) 100,00 %
26.03.2019 05:32 2,2 C 8,3 C 1,7 C 89 % 1025,3 hPa 0,0 l/m 9,5 km/h (2 Bft) W-SW 257 0 min 0,000 mm 0,0 UV-I 0 W/m 0,6 C -0,6 C 14,5 km/h (3 Bft) 100,00 %
26.03.2019 05:34 2,1 C 8,3 C 1,7 C 89 % 1025,2 hPa 0,0 l/m 11,5 km/h (2 Bft) W-SW 246 0 min 0,000 mm 0,0 UV-I 0 W/m 0,5 C -2,2 C 14,5 km/h (3 Bft) 98,11 %
26.03.2019 05:36 2,2 C 8,3 C 1,1 C 89 % 1025,3 hPa 0,0 l/m 9,7 km/h (2 Bft) W 273 0 min 0,000 mm 0,0 UV-I 0 W/m 0,6 C -0,8 C 12,9 km/h (3 Bft) 97,56 %
26.03.2019 05:38 2,1 C 8,3 C 1,1 C 89 % 1025,3 hPa 0,0 l/m 8,2 km/h (2 Bft) W 261 0 min 0,000 mm 0,0 UV-I 0 W/m 0,5 C 0,4 C 12,9 km/h (3 Bft) 97,56 %
26.03.2019 05:40 2,1 C 8,3 C 1,1 C 89 % 1025,4 hPa 0,0 l/m 8,9 km/h (2 Bft) W 263 0 min 0,000 mm 0,0 UV-I 0 W/m 0,5 C -0,2 C 12,9 km/h (3 Bft) 96,61 %
26.03.2019 05:42 2,1 C 8,3 C 1,1 C 89 % 1025,4 hPa 0,0 l/m 10,6 km/h (2 Bft) W-SW 250 0 min 0,000 mm 0,0 UV-I 0 W/m 0,5 C -1,6 C 16,1 km/h (3 Bft) 97,87 %
26.03.2019 05:44 2,1 C 8,3 C 1,1 C 89 % 1025,4 hPa 0,0 l/m 9,8 km/h (2 Bft) W 262 0 min 0,000 mm 0,0 UV-I 0 W/m 0,5 C -1,0 C 16,1 km/h (3 Bft) 97,87 %
26.03.2019 05:46 2,2 C 8,3 C 1,1 C 89 % 1025,4 hPa 0,0 l/m 7,6 km/h (2 Bft) W 263 0 min 0,000 mm 0,0 UV-I 0 W/m 0,6 C 1,0 C 11,3 km/h (2 Bft) 92,11 %
26.03.2019 05:48 2,2 C 8,3 C 1,1 C 89 % 1025,5 hPa 0,0 l/m 7,2 km/h (2 Bft) W-SW 256 0 min 0,000 mm 0,0 UV-I 3 W/m 0,6 C 1,4 C 11,3 km/h (2 Bft) 97,73 %
26.03.2019 05:51 2,2 C 8,3 C 1,1 C 89 % 1025,5 hPa 0,0 l/m 10,6 km/h (2 Bft) W 273 0 min 0,000 mm 0,0 UV-I 5 W/m 0,6 C -1,5 C 16,1 km/h (3 Bft) 96,10 %
26.03.2019 05:52 2,2 C 8,3 C 1,1 C 89 % 1025,5 hPa 0,0 l/m 7,5 km/h (2 Bft) W-SW 252 0 min 0,000 mm 0,0 UV-I 5 W/m 0,6 C 1,1 C 9,7 km/h (2 Bft) 96,15 %
26.03.2019 05:54 2,2 C 8,3 C 1,1 C 89 % 1025,5 hPa 0,0 l/m 9,2 km/h (2 Bft) W 261 0 min 0,000 mm 0,0 UV-I 6 W/m 0,6 C -0,4 C 14,5 km/h (3 Bft) 93,18 %
26.03.2019 05:56 2,2 C 8,3 C 1,1 C 88 % 1025,5 hPa 0,0 l/m 11,3 km/h (2 Bft) W 273 0 min 0,000 mm 0,0 UV-I 7 W/m 0,4 C -2,0 C 17,7 km/h (3 Bft) 92,86 %
26.03.2019 05:58 2,1 C 8,3 C 1,1 C 88 % 1025,6 hPa 0,0 l/m 9,8 km/h (2 Bft) W 281 0 min 0,000 mm 0,0 UV-I 7 W/m 0,3 C -1,0 C 12,9 km/h (3 Bft) 93,62 %
26.03.2019 06:00 2,2 C 8,3 C 1,1 C 88 % 1025,6 hPa 0,0 l/m 9,2 km/h (2 Bft) W 264 0 min 0,000 mm 0,0 UV-I 7 W/m 0,4 C -0,4 C 14,5 km/h (3 Bft) 92,45 %
26.03.2019 06:02 2,1 C 8,3 C 1,1 C 88 % 1025,6 hPa 0,0 l/m 9,1 km/h (2 Bft) W-SW 252 0 min 0,000 mm 0,0 UV-I 8 W/m 0,3 C -0,4 C 14,5 km/h (3 Bft) 91,43 %
26.03.2019 06:04 2,1 C 8,3 C 1,1 C 88 % 1025,6 hPa 0,0 l/m 11,2 km/h (2 Bft) W-NW 284 0 min 0,000 mm 0,0 UV-I 9 W/m 0,3 C -2,0 C 19,3 km/h (3 Bft) 96,61 %
26.03.2019 06:06 2,1 C 8,3 C 1,1 C 88 % 1025,6 hPa 0,0 l/m 9,5 km/h (2 Bft) W-NW 284 2 min 0,000 mm 0,0 UV-I 10 W/m 0,3 C -0,7 C 14,5 km/h (3 Bft) 92,68 %
26.03.2019 06:08 2,1 C 8,3 C 1,1 C 88 % 1025,6 hPa 0,0 l/m 10,8 km/h (2 Bft) W 272 0 min 0,000 mm 0,0 UV-I 11 W/m 0,3 C -1,7 C 16,1 km/h (3 Bft) 96,23 %
26.03.2019 06:10 2,1 C 8,3 C 1,1 C 88 % 1025,6 hPa 0,0 l/m 14,3 km/h (3 Bft) W 261 0 min 0,000 mm 0,0 UV-I 12 W/m 0,3 C -4,0 C 20,9 km/h (4 Bft) 95,12 %
26.03.2019 06:12 2,1 C 8,3 C 1,1 C 88 % 1025,6 hPa 0,0 l/m 11,5 km/h (2 Bft) W 277 0 min 0,000 mm 0,0 UV-I 14 W/m 0,3 C -2,2 C 14,5 km/h (3 Bft) 92,86 %
26.03.2019 06:15 2,1 C 8,3 C 1,1 C 88 % 1025,6 hPa 0,0 l/m 9,9 km/h (2 Bft) W 273 0 min 0,000 mm 0,0 UV-I 15 W/m 0,3 C -1,1 C 16,1 km/h (3 Bft) 95,38 %
26.03.2019 06:16 2,1 C 8,3 C 1,1 C 88 % 1025,6 hPa 0,0 l/m 11,4 km/h (2 Bft) W 280 0 min 0,000 mm 0,0 UV-I 17 W/m 0,3 C -2,2 C 14,5 km/h (3 Bft) 85,71 %
26.03.2019 06:18 2,1 C 8,3 C 1,1 C 88 % 1025,7 hPa 0,0 l/m 10,2 km/h (2 Bft) W 265 0 min 0,000 mm 0,0 UV-I 18 W/m 0,3 C -1,3 C 14,5 km/h (3 Bft) 94,00 %
26.03.2019 06:20 2,1 C 8,3 C 1,1 C 88 % 1025,7 hPa 0,0 l/m 10,8 km/h (2 Bft) W 265 0 min 0,000 mm 0,0 UV-I 19 W/m 0,3 C -1,7 C 14,5 km/h (3 Bft) 93,18 %
26.03.2019 06:22 2,0 C 8,3 C 1,1 C 88 % 1025,8 hPa 0,0 l/m 8,5 km/h (2 Bft) W-SW 254 0 min 0,000 mm 0,0 UV-I 21 W/m 0,2 C 0,0 C 12,9 km/h (3 Bft) 94,00 %
26.03.2019 06:25 2,0 C 8,3 C 1,1 C 88 % 1025,9 hPa 0,0 l/m 9,4 km/h (2 Bft) W-SW 246 0 min 0,000 mm 0,0 UV-I 24 W/m 0,2 C -0,8 C 14,5 km/h (3 Bft) 96,25 %
26.03.2019 06:26 2,0 C 8,3 C 1,1 C 88 % 1025,9 hPa 0,0 l/m 11,0 km/h (2 Bft) W 274 0 min 0,000 mm 0,0 UV-I 26 W/m 0,2 C -2,0 C 16,1 km/h (3 Bft) 95,65 %
26.03.2019 06:28 2,1 C 8,3 C 1,1 C 88 % 1025,9 hPa 0,0 l/m 10,3 km/h (2 Bft) W 259 0 min 0,000 mm 0,0 UV-I 28 W/m 0,3 C -1,4 C 17,7 km/h (3 Bft) 97,37 %
26.03.2019 06:30 2,1 C 8,3 C 1,1 C 88 % 1026,0 hPa 0,0 l/m 9,5 km/h (2 Bft) W-SW 250 0 min 0,000 mm 0,0 UV-I 32 W/m 0,3 C -0,7 C 14,5 km/h (3 Bft) 96,23 %
26.03.2019 06:32 2,1 C 8,3 C 1,1 C 88 % 1026,0 hPa 0,0 l/m 8,1 km/h (2 Bft) W 268 0 min 0,000 mm 0,0 UV-I 34 W/m 0,3 C 0,5 C 11,3 km/h (2 Bft) 98,00 %
26.03.2019 06:34 2,1 C 8,3 C 1,1 C 88 % 1026,0 hPa 0,0 l/m 11,1 km/h (2 Bft) W-SW 237 0 min 0,000 mm 0,0 UV-I 38 W/m 0,3 C -2,0 C 14,5 km/h (3 Bft) 97,22 %
26.03.2019 06:36 2,1 C 8,3 C 1,7 C 88 % 1026,0 hPa 0,0 l/m 12,0 km/h (2 Bft) W-NW 300 0 min 0,000 mm 0,0 UV-I 41 W/m 0,3 C -2,6 C 16,1 km/h (3 Bft) 96,36 %
26.03.2019 06:38 2,1 C 8,3 C 1,7 C 88 % 1026,1 hPa 0,0 l/m 12,5 km/h (3 Bft) W 270 0 min 0,000 mm 0,0 UV-I 43 W/m 0,3 C -2,9 C 17,7 km/h (3 Bft) 97,78 %
26.03.2019 06:40 2,1 C 8,3 C 1,7 C 88 % 1026,1 hPa 0,0 l/m 11,0 km/h (2 Bft) W-SW 258 0 min 0,000 mm 0,0 UV-I 44 W/m 0,3 C -1,9 C 16,1 km/h (3 Bft) 96,00 %
26.03.2019 06:42 2,2 C 8,3 C 1,7 C 88 % 1026,1 hPa 0,0 l/m 12,3 km/h (3 Bft) W 272 0 min 0,000 mm 0,0 UV-I 46 W/m 0,4 C -2,7 C 17,7 km/h (3 Bft) 98,00 %
26.03.2019 06:44 2,2 C 8,3 C 1,7 C 88 % 1026,1 hPa 0,0 l/m 10,4 km/h (2 Bft) W 263 0 min 0,000 mm 0,0 UV-I 48 W/m 0,4 C -1,3 C 16,1 km/h (3 Bft) 97,87 %
26.03.2019 06:46 2,2 C 8,3 C 1,7 C 88 % 1026,1 hPa 0,0 l/m 9,1 km/h (2 Bft) W 269 0 min 0,000 mm 0,0 UV-I 53 W/m 0,4 C -0,3 C 12,9 km/h (3 Bft) 97,56 %
26.03.2019 06:48 2,2 C 8,3 C 2,2 C 88 % 1026,2 hPa 0,0 l/m 10,3 km/h (2 Bft) W-SW 255 0 min 0,000 mm 0,0 UV-I 54 W/m 0,4 C -1,3 C 12,9 km/h (3 Bft) 98,00 %
26.03.2019 06:50 2,2 C 8,3 C 2,2 C 87 % 1026,1 hPa 0,0 l/m 11,9 km/h (2 Bft) W 265 0 min 0,000 mm 0,0 UV-I 56 W/m 0,3 C -2,4 C 14,5 km/h (3 Bft) 97,56 %
26.03.2019 06:52 2,2 C 8,3 C 2,2 C 87 % 1026,2 hPa 0,0 l/m 11,3 km/h (2 Bft) W 259 0 min 0,000 mm 0,0 UV-I 56 W/m 0,3 C -2,0 C 17,7 km/h (3 Bft) 97,73 %
26.03.2019 06:55 2,2 C 8,3 C 2,2 C 87 % 1026,2 hPa 0,0 l/m 9,0 km/h (2 Bft) W-SW 243 0 min 0,000 mm 0,0 UV-I 54 W/m 0,3 C -0,2 C 14,5 km/h (3 Bft) 95,12 %
26.03.2019 06:56 2,2 C 8,3 C 2,2 C 87 % 1026,2 hPa 0,0 l/m 8,9 km/h (2 Bft) W 275 0 min 0,000 mm 0,0 UV-I 56 W/m 0,3 C -0,1 C 12,9 km/h (3 Bft) 100,00 %
26.03.2019 06:58 2,3 C 8,3 C 2,2 C 87 % 1026,2 hPa 0,0 l/m 9,8 km/h (2 Bft) SW 234 0 min 0,000 mm 0,0 UV-I 59 W/m 0,4 C -0,8 C 14,5 km/h (3 Bft) 93,62 %
26.03.2019 07:00 2,3 C 8,3 C 2,2 C 87 % 1026,2 hPa 0,0 l/m 10,5 km/h (2 Bft) W 267 0 min 0,026 mm 0,0 UV-I 64 W/m 0,4 C -1,3 C 19,3 km/h (3 Bft) 94,00 %
26.03.2019 07:02 2,3 C 8,3 C 2,2 C 87 % 1026,3 hPa 0,0 l/m 9,5 km/h (2 Bft) W 260 0 min 0,000 mm 0,0 UV-I 72 W/m 0,4 C -0,5 C 16,1 km/h (3 Bft) 98,00 %
26.03.2019 07:04 2,3 C 8,3 C 2,8 C 87 % 1026,3 hPa 0,0 l/m 8,5 km/h (2 Bft) W 263 0 min 0,000 mm 0,0 UV-I 80 W/m 0,4 C 0,3 C 14,5 km/h (3 Bft) 98,00 %
26.03.2019 07:06 2,4 C 8,3 C 2,8 C 87 % 1026,3 hPa 0,0 l/m 10,0 km/h (2 Bft) W-NW 282 0 min 0,000 mm 0,0 UV-I 86 W/m 0,5 C -0,8 C 14,5 km/h (3 Bft) 97,87 %
26.03.2019 07:08 2,4 C 8,3 C 2,8 C 87 % 1026,3 hPa 0,0 l/m 7,5 km/h (2 Bft) W 275 0 min 0,000 mm 0,0 UV-I 90 W/m 0,5 C 1,3 C 11,3 km/h (2 Bft) 97,87 %
26.03.2019 07:10 2,5 C 8,3 C 2,8 C 86 % 1026,3 hPa 0,0 l/m 8,7 km/h (2 Bft) W 262 0 min 0,000 mm 0,0 UV-I 89 W/m 0,4 C 0,4 C 12,9 km/h (3 Bft) 92,11 %
26.03.2019 07:12 2,6 C 8,3 C 2,8 C 86 % 1026,3 hPa 0,0 l/m 9,8 km/h (2 Bft) W 281 0 min 0,000 mm 0,0 UV-I 90 W/m 0,5 C -0,4 C 12,9 km/h (3 Bft) 98,11 %
26.03.2019 07:14 2,6 C 8,3 C 3,3 C 86 % 1026,3 hPa 0,0 l/m 12,6 km/h (3 Bft) W 267 0 min 0,000 mm 0,0 UV-I 93 W/m 0,5 C -2,4 C 16,1 km/h (3 Bft) 96,97 %
26.03.2019 07:16 2,6 C 8,3 C 3,3 C 86 % 1026,3 hPa 0,0 l/m 8,6 km/h (2 Bft) W 260 0 min 0,000 mm 0,0 UV-I 96 W/m 0,5 C 0,6 C 12,9 km/h (3 Bft) 100,00 %
26.03.2019 07:18 2,7 C 8,3 C 3,3 C 86 % 1026,4 hPa 0,0 l/m 10,3 km/h (2 Bft) W 271 0 min 0,000 mm 0,0 UV-I 101 W/m 0,6 C -0,7 C 14,5 km/h (3 Bft) 100,00 %
26.03.2019 07:20 2,7 C 8,3 C 3,3 C 86 % 1026,5 hPa 0,0 l/m 10,5 km/h (2 Bft) W-SW 247 0 min 0,000 mm 0,0 UV-I 110 W/m 0,6 C -0,8 C 16,1 km/h (3 Bft) 98,39 %
26.03.2019 07:22 2,8 C 8,3 C 3,3 C 85 % 1026,4 hPa 0,0 l/m 9,8 km/h (2 Bft) W 271 0 min 0,000 mm 0,0 UV-I 124 W/m 0,5 C -0,2 C 17,7 km/h (3 Bft) 100,00 %
26.03.2019 07:25 2,8 C 8,3 C 3,9 C 85 % 1026,4 hPa 0,0 l/m 9,5 km/h (2 Bft) W-SW 252 3 min 0,000 mm 0,0 UV-I 144 W/m 0,5 C 0,0 C 14,5 km/h (3 Bft) 98,51 %
26.03.2019 07:26 2,9 C 8,3 C 3,9 C 85 % 1026,4 hPa 0,0 l/m 13,7 km/h (3 Bft) W 278 1 min 0,000 mm 0,0 UV-I 173 W/m 0,6 C -2,7 C 16,1 km/h (3 Bft) 100,00 %
26.03.2019 07:28 2,9 C 8,3 C 4,4 C 85 % 1026,4 hPa 0,0 l/m 12,1 km/h (2 Bft) W 260 2 min 0,000 mm 0,0 UV-I 163 W/m 0,6 C -1,7 C 22,5 km/h (4 Bft) 98,00 %
26.03.2019 07:30 3,0 C 8,3 C 4,4 C 84 % 1026,5 hPa 0,0 l/m 13,9 km/h (3 Bft) W 267 2 min 0,000 mm 0,0 UV-I 186 W/m 0,6 C -2,7 C 17,7 km/h (3 Bft) 100,00 %
26.03.2019 07:32 3,0 C 8,3 C 3,9 C 84 % 1026,4 hPa 0,0 l/m 15,2 km/h (3 Bft) W 261 0 min 0,000 mm 0,0 UV-I 143 W/m 0,6 C -3,5 C 20,9 km/h (4 Bft) 100,00 %
26.03.2019 07:34 3,0 C 8,3 C 3,9 C 84 % 1026,5 hPa 0,0 l/m 11,8 km/h (2 Bft) W-SW 244 0 min 0,000 mm 0,0 UV-I 128 W/m 0,6 C -1,4 C 20,9 km/h (4 Bft) 100,00 %
26.03.2019 07:36 3,0 C 8,3 C 3,9 C 84 % 1026,5 hPa 0,0 l/m 8,9 km/h (2 Bft) W 275 0 min 0,000 mm 0,0 UV-I 132 W/m 0,6 C 0,7 C 12,9 km/h (3 Bft) 100,00 %
26.03.2019 07:38 3,1 C 8,3 C 3,9 C 84 % 1026,4 hPa 0,0 l/m 9,9 km/h (2 Bft) NW 304 2 min 0,000 mm 0,0 UV-I 216 W/m 0,7 C 0,0 C 14,5 km/h (3 Bft) 100,00 %
26.03.2019 07:40 3,2 C 8,3 C 3,9 C 84 % 1026,4 hPa 0,0 l/m 9,6 km/h (2 Bft) W-NW 293 0 min 0,000 mm 0,0 UV-I 155 W/m 0,8 C 0,4 C 14,5 km/h (3 Bft) 97,56 %
26.03.2019 07:42 3,2 C 8,3 C 3,9 C 84 % 1026,4 hPa 0,0 l/m 11,1 km/h (2 Bft) W 268 0 min 0,000 mm 0,0 UV-I 95 W/m 0,8 C -0,7 C 19,3 km/h (3 Bft) 97,56 %
26.03.2019 07:44 3,1 C 8,3 C 3,3 C 83 % 1026,4 hPa 0,0 l/m 12,2 km/h (2 Bft) W 269 0 min 0,000 mm 0,0 UV-I 90 W/m 0,5 C -1,6 C 16,1 km/h (3 Bft) 100,00 %
26.03.2019 07:46 3,1 C 8,3 C 3,3 C 83 % 1026,5 hPa 0,0 l/m 10,3 km/h (2 Bft) W-SW 242 0 min 0,000 mm 0,0 UV-I 92 W/m 0,5 C -0,2 C 17,7 km/h (3 Bft) 100,00 %
26.03.2019 07:48 3,0 C 8,3 C 3,3 C 83 % 1026,5 hPa 0,0 l/m 10,7 km/h (2 Bft) W 261 2 min 0,000 mm 0,0 UV-I 173 W/m 0,4 C -0,7 C 16,1 km/h (3 Bft) 100,00 %
26.03.2019 07:51 3,1 C 8,3 C 3,9 C 84 % 1026,5 hPa 0,0 l/m 11,5 km/h (2 Bft) W 272 3 min 0,000 mm 0,0 UV-I 222 W/m 0,7 C -1,1 C 16,1 km/h (3 Bft) 100,00 %
26.03.2019 07:52 3,1 C 8,3 C 3,9 C 84 % 1026,5 hPa 0,0 l/m 8,5 km/h (2 Bft) W 278 1 min 0,000 mm 0,5 UV-I 283 W/m 0,7 C 1,2 C 12,9 km/h (3 Bft) 96,15 %
26.03.2019 07:54 3,2 C 8,3 C 4,4 C 84 % 1026,5 hPa 0,0 l/m 10,8 km/h (2 Bft) W-NW 290 2 min 0,000 mm 0,5 UV-I 296 W/m 0,8 C -0,5 C 19,3 km/h (3 Bft) 100,00 %
26.03.2019 07:56 3,2 C 8,3 C 4,4 C 84 % 1026,5 hPa 0,0 l/m 13,4 km/h (3 Bft) W-SW 251 2 min 0,000 mm 0,5 UV-I 309 W/m 0,8 C -2,2 C 24,1 km/h (4 Bft) 97,56 %
26.03.2019 07:58 3,2 C 8,3 C 4,4 C 83 % 1026,5 hPa 0,0 l/m 15,3 km/h (3 Bft) W 275 2 min 0,000 mm 0,5 UV-I 327 W/m 0,6 C -3,3 C 22,5 km/h (4 Bft) 94,64 %
26.03.2019 08:00 3,2 C 8,3 C 4,4 C 83 % 1026,4 hPa 0,0 l/m 18,5 km/h (3 Bft) W 275 2 min 0,076 mm 0,5 UV-I 331 W/m 0,6 C -4,8 C 25,7 km/h (4 Bft) 100,00 %
26.03.2019 08:02 3,2 C 8,3 C 4,4 C 83 % 1026,5 hPa 0,0 l/m 15,6 km/h (3 Bft) NW 304 2 min 0,000 mm 0,5 UV-I 332 W/m 0,6 C -3,4 C 24,1 km/h (4 Bft) 97,87 %
26.03.2019 08:04 3,3 C 8,3 C 4,4 C 83 % 1026,4 hPa 0,0 l/m 13,8 km/h (3 Bft) W 277 2 min 0,000 mm 0,6 UV-I 332 W/m 0,7 C -2,3 C 24,1 km/h (4 Bft) 97,14 %
26.03.2019 08:06 3,3 C 8,3 C 5,0 C 83 % 1026,5 hPa 0,0 l/m 13,2 km/h (3 Bft) SW 227 2 min 0,000 mm 0,6 UV-I 333 W/m 0,7 C -2,0 C 19,3 km/h (3 Bft) 98,11 %
26.03.2019 08:08 3,4 C 8,3 C 5,0 C 83 % 1026,5 hPa 0,0 l/m 12,2 km/h (2 Bft) W-SW 251 2 min 0,000 mm 0,6 UV-I 333 W/m 0,8 C -1,2 C 22,5 km/h (4 Bft) 92,31 %
26.03.2019 08:10 3,4 C 8,3 C 5,0 C 82 % 1026,5 hPa 0,0 l/m 18,2 km/h (3 Bft) W 279 2 min 0,000 mm 0,6 UV-I 340 W/m 0,6 C -4,5 C 24,1 km/h (4 Bft) 94,37 %
26.03.2019 08:12 3,4 C 8,3 C 5,0 C 82 % 1026,5 hPa 0,0 l/m 8,3 km/h (2 Bft) W 259 2 min 0,000 mm 0,6 UV-I 347 W/m 0,6 C 1,7 C 14,5 km/h (3 Bft) 95,12 %
26.03.2019 08:14 3,6 C 8,3 C 5,6 C 82 % 1026,6 hPa 0,0 l/m 14,5 km/h (3 Bft) W-SW 251 2 min 0,000 mm 0,7 UV-I 355 W/m 0,8 C -2,3 C 20,9 km/h (4 Bft) 94,34 %
26.03.2019 08:16 3,6 C 8,3 C 5,6 C 82 % 1026,6 hPa 0,0 l/m 15,6 km/h (3 Bft) W 278 2 min 0,000 mm 0,7 UV-I 361 W/m 0,8 C -2,9 C 20,9 km/h (4 Bft) 94,74 %
26.03.2019 08:18 3,7 C 8,3 C 5,6 C 81 % 1026,6 hPa 0,0 l/m 14,7 km/h (3 Bft) W 273 2 min 0,000 mm 0,7 UV-I 366 W/m 0,7 C -2,3 C 20,9 km/h (4 Bft) 93,62 %
26.03.2019 08:20 3,8 C 8,3 C 5,6 C 82 % 1026,6 hPa 0,0 l/m 12,8 km/h (3 Bft) W-SW 257 2 min 0,000 mm 0,7 UV-I 371 W/m 1,0 C -1,1 C 16,1 km/h (3 Bft) 94,64 %
26.03.2019 08:22 3,9 C 8,3 C 6,1 C 81 % 1026,6 hPa 0,0 l/m 14,2 km/h (3 Bft) W 281 2 min 0,000 mm 0,7 UV-I 377 W/m 0,9 C -1,8 C 19,3 km/h (3 Bft) 95,12 %
26.03.2019 08:24 3,9 C 8,3 C 6,1 C 81 % 1026,6 hPa 0,0 l/m 12,5 km/h (3 Bft) W-SW 247 2 min 0,000 mm 0,8 UV-I 384 W/m 0,9 C -0,8 C 19,3 km/h (3 Bft) 100,00 %
26.03.2019 08:26 3,9 C 8,3 C 6,1 C 80 % 1026,6 hPa 0,0 l/m 19,1 km/h (3 Bft) W 271 2 min 0,000 mm 0,8 UV-I 386 W/m 0,8 C -4,2 C 25,7 km/h (4 Bft) 96,55 %
26.03.2019 08:28 4,0 C 8,3 C 6,1 C 79 % 1026,5 hPa 0,0 l/m 17,7 km/h (3 Bft) W 269 2 min 0,000 mm 0,8 UV-I 393 W/m 0,7 C -3,5 C 24,1 km/h (4 Bft) 100,00 %
26.03.2019 08:30 3,9 C 8,3 C 5,6 C 78 % 1026,6 hPa 0,0 l/m 14,8 km/h (3 Bft) W 267 2 min 0,000 mm 0,8 UV-I 399 W/m 0,4 C -2,1 C 20,9 km/h (4 Bft) 100,00 %
26.03.2019 08:32 4,1 C 8,3 C 6,1 C 79 % 1026,7 hPa 0,0 l/m 13,3 km/h (3 Bft) SW 234 2 min 0,000 mm 0,8 UV-I 405 W/m 0,8 C -1,1 C 20,9 km/h (4 Bft) 100,00 %
26.03.2019 08:34 4,1 C 8,3 C 6,7 C 78 % 1026,6 hPa 0,0 l/m 11,5 km/h (2 Bft) W 279 2 min 0,000 mm 0,9 UV-I 409 W/m 0,6 C 0,0 C 16,1 km/h (3 Bft) 100,00 %
26.03.2019 08:36 4,2 C 8,3 C 7,2 C 78 % 1026,7 hPa 0,0 l/m 10,7 km/h (2 Bft) W 271 2 min 0,000 mm 0,9 UV-I 416 W/m 0,7 C 0,7 C 19,3 km/h (3 Bft) 100,00 %
26.03.2019 08:38 4,3 C 8,3 C 7,2 C 78 % 1026,7 hPa 0,0 l/m 11,0 km/h (2 Bft) W-SW 255 2 min 0,000 mm 0,9 UV-I 423 W/m 0,8 C 0,6 C 17,7 km/h (3 Bft) 100,00 %
26.03.2019 08:40 4,3 C 8,3 C 7,8 C 78 % 1026,7 hPa 0,0 l/m 11,9 km/h (2 Bft) W 265 2 min 0,000 mm 0,9 UV-I 427 W/m 0,8 C 0,0 C 19,3 km/h (3 Bft) 98,11 %
26.03.2019 08:42 4,4 C 8,3 C 8,3 C 77 % 1026,6 hPa 0,0 l/m 15,4 km/h (3 Bft) W-SW 257 2 min 0,000 mm 1,0 UV-I 435 W/m 0,7 C -1,9 C 22,5 km/h (4 Bft) 100,00 %
26.03.2019 08:44 4,6 C 8,3 C 8,9 C 77 % 1026,6 hPa 0,0 l/m 13,7 km/h (3 Bft) W 259 2 min 0,000 mm 1,0 UV-I 439 W/m 0,9 C -0,7 C 19,3 km/h (3 Bft) 100,00 %
26.03.2019 08:46 4,6 C 8,3 C 8,9 C 76 % 1026,6 hPa 0,0 l/m 12,4 km/h (3 Bft) W 266 2 min 0,000 mm 1,0 UV-I 444 W/m 0,7 C 0,1 C 20,9 km/h (4 Bft) 98,11 %
26.03.2019 08:48 4,7 C 8,3 C 9,4 C 76 % 1026,7 hPa 0,0 l/m 14,6 km/h (3 Bft) W 267 2 min 0,000 mm 1,0 UV-I 451 W/m 0,8 C -1,1 C 22,5 km/h (4 Bft) 97,87 %
26.03.2019 08:50 4,8 C 8,3 C 10,0 C 76 % 1026,7 hPa 0,0 l/m 15,1 km/h (3 Bft) W 276 2 min 0,000 mm 1,0 UV-I 460 W/m 0,9 C -1,2 C 24,1 km/h (4 Bft) 100,00 %
26.03.2019 08:52 4,8 C 8,3 C 10,6 C 75 % 1026,7 hPa 0,0 l/m 13,8 km/h (3 Bft) W-SW 238 2 min 0,000 mm 1,0 UV-I 389 W/m 0,8 C -0,5 C 19,3 km/h (3 Bft) 100,00 %
26.03.2019 08:54 4,8 C 8,3 C 11,1 C 74 % 1026,7 hPa 0,0 l/m 15,7 km/h (3 Bft) SW 234 2 min 0,000 mm 1,1 UV-I 503 W/m 0,6 C -1,5 C 22,5 km/h (4 Bft) 100,00 %
26.03.2019 08:56 4,9 C 8,3 C 11,7 C 74 % 1026,8 hPa 0,0 l/m 16,5 km/h (3 Bft) W 275 2 min 0,000 mm 1,2 UV-I 525 W/m 0,7 C -1,8 C 20,9 km/h (4 Bft) 97,56 %
26.03.2019 08:58 5,1 C 8,3 C 12,2 C 75 % 1026,8 hPa 0,0 l/m 10,0 km/h (2 Bft) W 261 2 min 0,000 mm 0,3 UV-I 497 W/m 1,0 C 2,2 C 17,7 km/h (3 Bft) 98,11 %
26.03.2019 09:00 5,2 C 8,3 C 11,7 C 75 % 1026,8 hPa 0,0 l/m 10,7 km/h (2 Bft) W-SW 252 2 min 0,178 mm 0,9 UV-I 371 W/m 1,1 C 1,8 C 17,7 km/h (3 Bft) 100,00 %
26.03.2019 09:02 5,0 C 8,3 C 10,0 C 74 % 1026,8 hPa 0,0 l/m 13,9 km/h (3 Bft) W 268 2 min 0,000 mm 1,0 UV-I 310 W/m 0,8 C -0,3 C 19,3 km/h (3 Bft) 100,00 %
26.03.2019 09:04 4,9 C 8,3 C 9,4 C 74 % 1026,8 hPa 0,0 l/m 14,8 km/h (3 Bft) W 261 0 min 0,000 mm 1,0 UV-I 244 W/m 0,7 C -0,9 C 19,3 km/h (3 Bft) 100,00 %
26.03.2019 09:06 4,8 C 8,3 C 8,9 C 73 % 1026,8 hPa 0,0 l/m 15,2 km/h (3 Bft) S-SW 205 0 min 0,000 mm 1,0 UV-I 247 W/m 0,4 C -1,3 C 20,9 km/h (4 Bft) 100,00 %
26.03.2019 09:08 4,8 C 8,3 C 9,4 C 72 % 1026,8 hPa 0,0 l/m 12,4 km/h (3 Bft) W-SW 241 2 min 0,000 mm 1,1 UV-I 291 W/m 0,2 C 0,3 C 20,9 km/h (4 Bft) 100,00 %
26.03.2019 09:10 4,8 C 8,3 C 9,4 C 73 % 1026,8 hPa 0,0 l/m 14,1 km/h (3 Bft) W-SW 245 2 min 0,000 mm 1,2 UV-I 357 W/m 0,4 C -0,7 C 22,5 km/h (4 Bft) 97,87 %
26.03.2019 09:12 4,9 C 8,3 C 9,4 C 72 % 1026,8 hPa 0,0 l/m 13,8 km/h (3 Bft) W 276 2 min 0,000 mm 1,1 UV-I 347 W/m 0,3 C -0,4 C 20,9 km/h (4 Bft) 100,00 %
26.03.2019 09:14 4,9 C 8,3 C 9,4 C 72 % 1026,8 hPa 0,0 l/m 13,4 km/h (3 Bft) W-SW 258 2 min 0,000 mm 1,1 UV-I 295 W/m 0,3 C -0,2 C 17,7 km/h (3 Bft) 100,00 %
26.03.2019 09:16 5,1 C 8,3 C 10,0 C 72 % 1026,8 hPa 0,0 l/m 14,0 km/h (3 Bft) W 281 2 min 0,000 mm 1,2 UV-I 338 W/m 0,5 C -0,3 C 20,9 km/h (4 Bft) 100,00 %
26.03.2019 09:18 5,1 C 8,3 C 10,6 C 71 % 1026,8 hPa 0,0 l/m 12,6 km/h (3 Bft) W 279 2 min 0,000 mm 1,2 UV-I 386 W/m 0,3 C 0,5 C 17,7 km/h (3 Bft) 100,00 %
26.03.2019 09:20 5,2 C 8,3 C 10,6 C 71 % 1026,9 hPa 0,0 l/m 10,6 km/h (2 Bft) W-NW 296 2 min 0,000 mm 1,2 UV-I 332 W/m 0,4 C 1,9 C 14,5 km/h (3 Bft) 100,00 %
26.03.2019 09:22 5,2 C 8,3 C 10,6 C 71 % 1026,9 hPa 0,0 l/m 8,5 km/h (2 Bft) W-NW 295 2 min 0,000 mm 1,1 UV-I 299 W/m 0,4 C 3,4 C 16,1 km/h (3 Bft) 98,21 %
26.03.2019 09:24 5,2 C 8,3 C 10,6 C 71 % 1026,9 hPa 0,0 l/m 9,0 km/h (2 Bft) W 262 0 min 0,000 mm 1,1 UV-I 273 W/m 0,4 C 3,0 C 14,5 km/h (3 Bft) 97,37 %
26.03.2019 09:26 5,1 C 8,3 C 9,4 C 71 % 1026,9 hPa 0,0 l/m 13,5 km/h (3 Bft) SW 233 0 min 0,000 mm 1,1 UV-I 271 W/m 0,3 C -0,0 C 20,9 km/h (4 Bft) 97,56 %
26.03.2019 09:28 5,1 C 8,3 C 9,4 C 73 % 1027,0 hPa 0,0 l/m 6,1 km/h (2 Bft) W-SW 256 0 min 0,000 mm 1,1 UV-I 248 W/m 0,7 C 5,1 C 12,9 km/h (3 Bft) 96,43 %
26.03.2019 09:30 5,1 C 8,3 C 9,4 C 72 % 1027,0 hPa 0,0 l/m 7,4 km/h (2 Bft) W-NW 285 0 min 0,000 mm 1,1 UV-I 242 W/m 0,5 C 4,2 C 12,9 km/h (3 Bft) 97,87 %
26.03.2019 09:32 5,1 C 8,3 C 8,9 C 71 % 1027,0 hPa 0,0 l/m 8,6 km/h (2 Bft) W-NW 290 0 min 0,000 mm 1,2 UV-I 247 W/m 0,3 C 3,2 C 14,5 km/h (3 Bft) 100,00 %
26.03.2019 09:34 5,0 C 8,3 C 8,9 C 72 % 1027,0 hPa 0,0 l/m 9,5 km/h (2 Bft) W-SW 256 0 min 0,000 mm 1,2 UV-I 251 W/m 0,4 C 2,4 C 16,1 km/h (3 Bft) 98,00 %
26.03.2019 09:36 4,9 C 8,3 C 8,9 C 72 % 1027,0 hPa 0,0 l/m 6,8 km/h (2 Bft) W 268 0 min 0,000 mm 1,2 UV-I 222 W/m 0,3 C 4,6 C 12,9 km/h (3 Bft) 95,74 %
26.03.2019 09:38 4,9 C 8,3 C 8,3 C 73 % 1027,0 hPa 0,0 l/m 9,4 km/h (2 Bft) W 277 0 min 0,000 mm 1,2 UV-I 208 W/m 0,5 C 2,4 C 16,1 km/h (3 Bft) 94,74 %
26.03.2019 09:40 4,8 C 8,3 C 7,8 C 72 % 1027,1 hPa 0,0 l/m 10,8 km/h (2 Bft) W-NW 288 0 min 0,000 mm 1,2 UV-I 218 W/m 0,2 C 1,3 C 19,3 km/h (3 Bft) 91,07 %
26.03.2019 09:42 4,9 C 8,3 C 8,9 C 73 % 1027,0 hPa 0,0 l/m 6,7 km/h (2 Bft) W 268 0 min 0,000 mm 1,3 UV-I 288 W/m 0,5 C 4,7 C 14,5 km/h (3 Bft) 95,45 %
26.03.2019 09:44 5,0 C 8,3 C 9,4 C 73 % 1027,0 hPa 0,0 l/m 7,7 km/h (2 Bft) W 272 0 min 0,000 mm 1,3 UV-I 301 W/m 0,6 C 3,9 C 12,9 km/h (3 Bft) 96,00 %
26.03.2019 09:46 5,1 C 8,3 C 9,4 C 73 % 1027,0 hPa 0,0 l/m 9,5 km/h (2 Bft) W 273 0 min 0,000 mm 1,3 UV-I 306 W/m 0,7 C 2,5 C 17,7 km/h (3 Bft) 94,44 %
26.03.2019 09:48 5,2 C 8,3 C 10,0 C 73 % 1027,0 hPa 0,0 l/m 12,6 km/h (3 Bft) W 263 2 min 0,000 mm 1,3 UV-I 316 W/m 0,8 C 0,6 C 16,1 km/h (3 Bft) 96,23 %
26.03.2019 09:50 5,3 C 8,3 C 10,6 C 72 % 1027,0 hPa 0,0 l/m 12,5 km/h (3 Bft) W 271 2 min 0,000 mm 1,4 UV-I 396 W/m 0,7 C 0,8 C 16,1 km/h (3 Bft) 96,00 %
26.03.2019 09:52 5,6 C 8,3 C 12,8 C 72 % 1027,0 hPa 0,0 l/m 15,4 km/h (3 Bft) W 259 2 min 0,000 mm 1,6 UV-I 487 W/m 1,0 C -0,4 C 22,5 km/h (4 Bft) 95,12 %
26.03.2019 09:54 5,7 C 8,3 C 14,4 C 70 % 1027,0 hPa 0,0 l/m 11,0 km/h (2 Bft) W 263 2 min 0,000 mm 1,8 UV-I 634 W/m 0,7 C 2,2 C 19,3 km/h (3 Bft) 92,45 %
26.03.2019 09:56 6,1 C 8,3 C 16,7 C 71 % 1027,0 hPa 0,0 l/m 8,1 km/h (2 Bft) SW 233 2 min 0,000 mm 1,7 UV-I 748 W/m 1,2 C 4,7 C 14,5 km/h (3 Bft) 97,56 %
26.03.2019 09:58 6,1 C 8,3 C 15,6 C 69 % 1026,9 hPa 0,0 l/m 12,2 km/h (2 Bft) W 262 2 min 0,000 mm 1,4 UV-I 497 W/m 0,8 C 1,9 C 20,9 km/h (4 Bft) 94,34 %
26.03.2019 10:00 6,1 C 8,3 C 13,9 C 68 % 1027,0 hPa 0,0 l/m 13,5 km/h (3 Bft) W-SW 255 0 min 0,152 mm 1,4 UV-I 301 W/m 0,6 C 1,2 C 19,3 km/h (3 Bft) 95,12 %
26.03.2019 10:02 6,1 C 8,3 C 14,4 C 68 % 1027,0 hPa 0,0 l/m 9,7 km/h (2 Bft) W 259 2 min 0,000 mm 1,7 UV-I 385 W/m 0,6 C 3,5 C 17,7 km/h (3 Bft) 96,00 %
26.03.2019 10:04 6,1 C 8,3 C 12,8 C 67 % 1027,0 hPa 0,0 l/m 10,6 km/h (2 Bft) W 261 0 min 0,000 mm 1,4 UV-I 328 W/m 0,4 C 2,9 C 16,1 km/h (3 Bft) 98,00 %
26.03.2019 10:06 6,0 C 8,3 C 12,8 C 64 % 1027,0 hPa 0,0 l/m 11,0 km/h (2 Bft) W 266 0 min 0,000 mm 1,4 UV-I 305 W/m -0,3 C 2,5 C 17,7 km/h (3 Bft) 97,37 %
26.03.2019 10:08 6,1 C 8,3 C 12,8 C 64 % 1027,1 hPa 0,0 l/m 10,1 km/h (2 Bft) W-NW 283 0 min 0,000 mm 1,6 UV-I 294 W/m -0,2 C 3,2 C 17,7 km/h (3 Bft) 97,56 %
26.03.2019 10:10 6,1 C 8,3 C 11,7 C 62 % 1027,1 hPa 0,0 l/m 12,3 km/h (3 Bft) W 272 0 min 0,000 mm 1,3 UV-I 255 W/m -0,6 C 1,8 C 17,7 km/h (3 Bft) 97,62 %
26.03.2019 10:12 6,0 C 8,3 C 10,0 C 62 % 1027,1 hPa 0,0 l/m 16,4 km/h (3 Bft) W-SW 252 0 min 0,000 mm 1,3 UV-I 252 W/m -0,7 C -0,4 C 22,5 km/h (4 Bft) 98,18 %
26.03.2019 10:14 5,9 C 8,3 C 9,4 C 62 % 1027,1 hPa 0,0 l/m 16,2 km/h (3 Bft) W 268 0 min 0,000 mm 1,3 UV-I 250 W/m -0,8 C -0,4 C 24,1 km/h (4 Bft) 96,23 %
26.03.2019 10:16 5,8 C 8,3 C 8,9 C 62 % 1027,2 hPa 0,0 l/m 15,6 km/h (3 Bft) W 271 0 min 0,000 mm 1,3 UV-I 230 W/m -0,9 C -0,2 C 22,5 km/h (4 Bft) 96,00 %
26.03.2019 10:18 5,7 C 8,3 C 8,9 C 60 % 1027,2 hPa 0,0 l/m 16,3 km/h (3 Bft) W 268 0 min 0,000 mm 1,3 UV-I 246 W/m -1,4 C -0,7 C 22,5 km/h (4 Bft) 97,73 %
26.03.2019 10:20 5,7 C 8,3 C 8,9 C 60 % 1027,2 hPa 0,0 l/m 14,9 km/h (3 Bft) W-SW 258 0 min 0,000 mm 1,3 UV-I 277 W/m -1,4 C -0,0 C 20,9 km/h (4 Bft) 96,23 %
26.03.2019 10:22 5,7 C 8,3 C 10,6 C 61 % 1027,2 hPa 0,0 l/m 15,7 km/h (3 Bft) W 275 0 min 0,000 mm 1,4 UV-I 332 W/m -1,2 C -0,4 C 20,9 km/h (4 Bft) 97,56 %
26.03.2019 10:24 5,9 C 8,3 C 12,2 C 61 % 1027,3 hPa 0,0 l/m 9,4 km/h (2 Bft) W-NW 287 2 min 0,000 mm 1,3 UV-I 355 W/m -1,0 C 3,5 C 14,5 km/h (3 Bft) 98,00 %
26.03.2019 10:26 6,0 C 8,3 C 11,1 C 60 % 1027,3 hPa 0,0 l/m 14,8 km/h (3 Bft) SW 229 0 min 0,000 mm 1,0 UV-I 228 W/m -1,2 C 0,4 C 24,1 km/h (4 Bft) 97,62 %
26.03.2019 10:28 6,0 C 8,3 C 10,0 C 60 % 1027,3 hPa 0,0 l/m 12,8 km/h (3 Bft) W 280 0 min 0,000 mm 0,9 UV-I 204 W/m -1,2 C 1,4 C 19,3 km/h (3 Bft) 96,00 %
26.03.2019 10:30 5,9 C 8,3 C 9,4 C 60 % 1027,4 hPa 0,0 l/m 14,7 km/h (3 Bft) W-NW 288 0 min 0,000 mm 0,9 UV-I 199 W/m -1,3 C 0,3 C 20,9 km/h (4 Bft) 97,37 %
26.03.2019 10:32 5,8 C 8,3 C 8,9 C 60 % 1027,4 hPa 0,0 l/m 12,3 km/h (3 Bft) W 275 0 min 0,000 mm 0,9 UV-I 193 W/m -1,4 C 1,5 C 17,7 km/h (3 Bft) 97,87 %
26.03.2019 10:34 5,8 C 8,3 C 8,3 C 59 % 1027,3 hPa 0,0 l/m 13,6 km/h (3 Bft) W 278 0 min 0,000 mm 0,9 UV-I 191 W/m -1,6 C 0,8 C 17,7 km/h (3 Bft) 96,23 %
26.03.2019 10:36 5,7 C 8,3 C 8,3 C 60 % 1027,4 hPa 0,0 l/m 10,5 km/h (2 Bft) NW 313 0 min 0,000 mm 1,0 UV-I 206 W/m -1,4 C 2,5 C 17,7 km/h (3 Bft) 98,00 %
26.03.2019 10:38 5,8 C 8,3 C 8,3 C 63 % 1027,4 hPa 0,0 l/m 9,3 km/h (2 Bft) W 280 0 min 0,000 mm 1,1 UV-I 237 W/m -0,7 C 3,4 C 14,5 km/h (3 Bft) 97,37 %
26.03.2019 10:40 5,8 C 8,3 C 8,9 C 64 % 1027,5 hPa 0,0 l/m 13,4 km/h (3 Bft) W-NW 292 0 min 0,000 mm 1,2 UV-I 270 W/m -0,5 C 0,9 C 19,3 km/h (3 Bft) 92,86 %
26.03.2019 10:42 5,8 C 8,3 C 9,4 C 64 % 1027,5 hPa 0,0 l/m 12,8 km/h (3 Bft) W 267 0 min 0,000 mm 1,3 UV-I 286 W/m -0,5 C 1,2 C 19,3 km/h (3 Bft) 94,74 %
26.03.2019 10:44 5,8 C 8,3 C 9,4 C 65 % 1027,5 hPa 0,0 l/m 13,6 km/h (3 Bft) W 275 0 min 0,000 mm 1,3 UV-I 295 W/m -0,3 C 0,8 C 17,7 km/h (3 Bft) 96,23 %
26.03.2019 10:46 5,8 C 8,3 C 10,0 C 65 % 1027,4 hPa 0,0 l/m 12,4 km/h (3 Bft) W-NW 284 0 min 0,000 mm 1,4 UV-I 305 W/m -0,3 C 1,4 C 19,3 km/h (3 Bft) 96,23 %
26.03.2019 10:48 5,9 C 8,3 C 10,0 C 66 % 1027,4 hPa 0,0 l/m 6,2 km/h (2 Bft) W-NW 295 0 min 0,000 mm 1,5 UV-I 313 W/m 0,0 C 5,9 C 12,9 km/h (3 Bft) 95,74 %
26.03.2019 10:50 6,0 C 8,3 C 10,6 C 66 % 1027,4 hPa 0,0 l/m 7,3 km/h (2 Bft) NW 316 0 min 0,000 mm 1,5 UV-I 323 W/m 0,1 C 5,2 C 12,9 km/h (3 Bft) 94,74 %
26.03.2019 10:52 6,1 C 8,3 C 10,6 C 66 % 1027,4 hPa 0,0 l/m 13,2 km/h (3 Bft) W-SW 248 0 min 0,000 mm 1,6 UV-I 340 W/m 0,2 C 1,3 C 20,9 km/h (4 Bft) 96,23 %
26.03.2019 10:54 6,1 C 8,3 C 10,6 C 66 % 1027,4 hPa 0,0 l/m 13,4 km/h (3 Bft) W 281 2 min 0,000 mm 1,6 UV-I 368 W/m 0,2 C 1,2 C 19,3 km/h (3 Bft) 95,45 %
26.03.2019 10:56 6,1 C 8,3 C 10,6 C 66 % 1027,5 hPa 0,0 l/m 11,4 km/h (2 Bft) W 273 0 min 0,000 mm 1,6 UV-I 344 W/m 0,2 C 2,4 C 17,7 km/h (3 Bft) 96,00 %
26.03.2019 10:58 6,2 C 8,3 C 11,1 C 66 % 1027,4 hPa 0,0 l/m 15,9 km/h (3 Bft) W 268 0 min 0,000 mm 1,7 UV-I 361 W/m 0,3 C 0,1 C 27,4 km/h (4 Bft) 95,12 %
26.03.2019 11:00 6,2 C 8,3 C 11,1 C 63 % 1027,5 hPa 0,0 l/m 9,7 km/h (2 Bft) W 263 0 min 0,152 mm 1,6 UV-I 356 W/m -0,3 C 3,6 C 20,9 km/h (4 Bft) 97,92 %
26.03.2019 11:02 6,2 C 8,3 C 10,6 C 63 % 1027,4 hPa 0,0 l/m 14,5 km/h (3 Bft) W-NW 294 0 min 0,000 mm 1,4 UV-I 315 W/m -0,3 C 0,8 C 22,5 km/h (4 Bft) 95,92 %
26.03.2019 11:04 6,2 C 8,3 C 10,6 C 64 % 1027,4 hPa 0,0 l/m 14,4 km/h (3 Bft) W 273 0 min 0,000 mm 1,1 UV-I 249 W/m -0,1 C 0,8 C 24,1 km/h (4 Bft) 97,44 %
26.03.2019 11:06 6,1 C 8,3 C 9,4 C 65 % 1027,4 hPa 0,0 l/m 15,7 km/h (3 Bft) W-SW 250 0 min 0,000 mm 1,1 UV-I 221 W/m 0,0 C 0,1 C 22,5 km/h (4 Bft) 96,23 %
26.03.2019 11:08 6,1 C 8,3 C 9,4 C 64 % 1027,4 hPa 0,0 l/m 16,9 km/h (3 Bft) W 265 0 min 0,000 mm 1,3 UV-I 252 W/m -0,2 C -0,5 C 22,5 km/h (4 Bft) 97,73 %
26.03.2019 11:10 6,0 C 8,3 C 9,4 C 62 % 1027,4 hPa 0,0 l/m 16,3 km/h (3 Bft) W-SW 251 0 min 0,000 mm 1,6 UV-I 310 W/m -0,7 C -0,3 C 22,5 km/h (4 Bft) 98,00 %
26.03.2019 11:12 6,0 C 8,3 C 10,6 C 60 % 1027,4 hPa 0,0 l/m 13,2 km/h (3 Bft) W 259 0 min 0,000 mm 1,9 UV-I 370 W/m -1,2 C 1,2 C 17,7 km/h (3 Bft) 94,00 %
26.03.2019 11:14 6,1 C 8,3 C 11,7 C 60 % 1027,4 hPa 0,0 l/m 15,6 km/h (3 Bft) W 277 2 min 0,000 mm 0,3 UV-I 377 W/m -1,1 C 0,1 C 24,1 km/h (4 Bft) 94,74 %
26.03.2019 11:16 6,2 C 8,3 C 11,7 C 60 % 1027,4 hPa 0,0 l/m 12,6 km/h (3 Bft) W-SW 248 0 min 0,000 mm 1,4 UV-I 351 W/m -1,0 C 1,8 C 19,3 km/h (3 Bft) 98,15 %
26.03.2019 11:18 6,3 C 8,3 C 11,7 C 62 % 1027,4 hPa 0,0 l/m 16,0 km/h (3 Bft) W-SW 250 0 min 0,000 mm 1,3 UV-I 313 W/m -0,4 C 0,2 C 24,1 km/h (4 Bft) 100,00 %
26.03.2019 11:20 6,4 C 8,3 C 11,1 C 63 % 1027,4 hPa 0,0 l/m 10,5 km/h (2 Bft) W 274 0 min 0,000 mm 1,1 UV-I 293 W/m -0,1 C 3,3 C 17,7 km/h (3 Bft) 100,00 %
26.03.2019 11:22 6,4 C 8,3 C 10,6 C 60 % 1027,4 hPa 0,0 l/m 17,0 km/h (3 Bft) W 266 0 min 0,000 mm 1,2 UV-I 265 W/m -0,8 C -0,1 C 25,7 km/h (4 Bft) 100,00 %
26.03.2019 11:24 6,4 C 8,3 C 10,0 C 58 % 1027,4 hPa 0,0 l/m 17,9 km/h (3 Bft) W-NW 294 0 min 0,000 mm 1,3 UV-I 292 W/m -1,2 C -0,5 C 27,4 km/h (4 Bft) 96,23 %
26.03.2019 11:26 6,3 C 8,3 C 10,6 C 58 % 1027,4 hPa 0,0 l/m 14,5 km/h (3 Bft) W 276 0 min 0,000 mm 1,5 UV-I 334 W/m -1,3 C 0,9 C 24,1 km/h (4 Bft) 100,00 %
26.03.2019 11:28 6,3 C 8,3 C 10,6 C 59 % 1027,4 hPa 0,0 l/m 13,7 km/h (3 Bft) W-NW 292 0 min 0,000 mm 1,5 UV-I 331 W/m -1,1 C 1,3 C 17,7 km/h (3 Bft) 96,92 %
26.03.2019 11:30 6,3 C 8,3 C 10,6 C 58 % 1027,4 hPa 0,0 l/m 18,8 km/h (3 Bft) SW 223 0 min 0,000 mm 1,5 UV-I 331 W/m -1,3 C -1,0 C 24,1 km/h (4 Bft) 97,56 %
26.03.2019 11:32 6,3 C 8,3 C 10,0 C 59 % 1027,4 hPa 0,0 l/m 9,4 km/h (2 Bft) W-SW 255 0 min 0,000 mm 1,4 UV-I 307 W/m -1,1 C 3,9 C 19,3 km/h (3 Bft) 96,00 %
26.03.2019 11:34 6,3 C 8,3 C 10,0 C 60 % 1027,4 hPa 0,0 l/m 9,8 km/h (2 Bft) NW 306 0 min 0,000 mm 1,3 UV-I 285 W/m -0,9 C 3,6 C 17,7 km/h (3 Bft) 98,00 %
26.03.2019 11:36 6,3 C 8,3 C 10,0 C 59 % 1027,4 hPa 0,0 l/m 8,3 km/h (2 Bft) W-NW 303 0 min 0,000 mm 1,1 UV-I 245 W/m -1,1 C 4,7 C 16,1 km/h (3 Bft) 97,73 %
26.03.2019 11:38 6,3 C 8,3 C 9,4 C 59 % 1027,4 hPa 0,0 l/m 14,6 km/h (3 Bft) W-SW 241 0 min 0,000 mm 0,9 UV-I 201 W/m -1,1 C 0,8 C 22,5 km/h (4 Bft) 97,92 %
26.03.2019 11:40 6,2 C 8,3 C 9,4 C 59 % 1027,4 hPa 0,0 l/m 11,1 km/h (2 Bft) W 269 0 min 0,000 mm 0,9 UV-I 197 W/m -1,2 C 2,7 C 19,3 km/h (3 Bft) 92,00 %
26.03.2019 11:42 6,1 C 8,3 C 8,9 C 58 % 1027,4 hPa 0,0 l/m 12,9 km/h (3 Bft) W-NW 298 0 min 0,000 mm 1,0 UV-I 214 W/m -1,5 C 1,5 C 19,3 km/h (3 Bft) 97,37 %
26.03.2019 11:44 6,1 C 8,3 C 8,9 C 60 % 1027,3 hPa 0,0 l/m 12,2 km/h (2 Bft) W 277 0 min 0,000 mm 1,1 UV-I 225 W/m -1,1 C 1,9 C 22,5 km/h (4 Bft) 98,11 %
26.03.2019 11:46 6,2 C 8,3 C 8,9 C 62 % 1027,3 hPa 0,0 l/m 11,6 km/h (2 Bft) NW 320 0 min 0,000 mm 1,0 UV-I 210 W/m -0,5 C 2,4 C 19,3 km/h (3 Bft) 96,00 %
26.03.2019 11:48 6,1 C 8,3 C 8,9 C 63 % 1027,4 hPa 0,0 l/m 10,8 km/h (2 Bft) NW 322 0 min 0,000 mm 1,0 UV-I 208 W/m -0,4 C 2,8 C 19,3 km/h (3 Bft) 97,87 %
26.03.2019 11:50 6,1 C 8,3 C 8,9 C 64 % 1027,3 hPa 0,0 l/m 11,9 km/h (2 Bft) W-NW 284 0 min 0,000 mm 1,0 UV-I 214 W/m -0,2 C 2,1 C 22,5 km/h (4 Bft) 97,73 %
26.03.2019 11:52 6,1 C 8,3 C 8,9 C 62 % 1027,4 hPa 0,0 l/m 14,2 km/h (3 Bft) W-NW 288 0 min 0,000 mm 1,1 UV-I 218 W/m -0,6 C 0,8 C 24,1 km/h (4 Bft) 95,12 %
26.03.2019 11:54 6,0 C 8,3 C 8,3 C 60 % 1027,4 hPa 0,0 l/m 16,6 km/h (3 Bft) W-NW 287 0 min 0,000 mm 1,1 UV-I 226 W/m -1,2 C -0,5 C 30,6 km/h (5 Bft) 96,23 %
26.03.2019 11:56 5,9 C 8,3 C 8,3 C 60 % 1027,4 hPa 0,0 l/m 15,3 km/h (3 Bft) W 278 0 min 0,000 mm 1,1 UV-I 242 W/m -1,3 C 0,0 C 25,7 km/h (4 Bft) 97,56 %
26.03.2019 11:58 5,9 C 8,3 C 8,9 C 60 % 1027,4 hPa 0,0 l/m 14,9 km/h (3 Bft) W 273 0 min 0,000 mm 1,2 UV-I 257 W/m -1,3 C 0,2 C 22,5 km/h (4 Bft) 94,64 %
26.03.2019 12:00 6,0 C 8,3 C 9,4 C 61 % 1027,4 hPa 0,0 l/m 12,1 km/h (2 Bft) W-NW 291 0 min 0,153 mm 1,2 UV-I 267 W/m -0,9 C 1,8 C 19,3 km/h (3 Bft) 97,37 %
26.03.2019 12:02 6,2 C 8,3 C 11,1 C 61 % 1027,3 hPa 0,0 l/m 15,9 km/h (3 Bft) W-NW 294 0 min 0,000 mm 1,5 UV-I 306 W/m -0,7 C 0,1 C 24,1 km/h (4 Bft) 96,23 %
26.03.2019 12:04 6,2 C 8,3 C 11,1 C 61 % 1027,3 hPa 0,0 l/m 15,2 km/h (3 Bft) W 276 0 min 0,000 mm 1,1 UV-I 306 W/m -0,7 C 0,4 C 30,6 km/h (5 Bft) 97,37 %
26.03.2019 12:06 6,3 C 8,3 C 10,6 C 61 % 1027,3 hPa 0,0 l/m 11,2 km/h (2 Bft) W 263 0 min 0,000 mm 1,1 UV-I 232 W/m -0,7 C 2,7 C 17,7 km/h (3 Bft) 98,21 %
26.03.2019 12:08 6,2 C 8,3 C 10,0 C 61 % 1027,3 hPa 0,0 l/m 9,0 km/h (2 Bft) W 272 0 min 0,000 mm 1,1 UV-I 240 W/m -0,7 C 4,1 C 16,1 km/h (3 Bft) 94,74 %
26.03.2019 12:10 6,2 C 8,3 C 10,0 C 62 % 1027,2 hPa 0,0 l/m 14,4 km/h (3 Bft) W 259 0 min 0,000 mm 1,2 UV-I 252 W/m -0,5 C 0,8 C 24,1 km/h (4 Bft) 97,44 %
26.03.2019 12:12 6,2 C 8,3 C 9,4 C 62 % 1027,2 hPa 0,0 l/m 17,7 km/h (3 Bft) W 265 0 min 0,000 mm 1,3 UV-I 289 W/m -0,5 C -0,7 C 24,1 km/h (4 Bft) 98,18 %
26.03.2019 12:14 6,2 C 8,3 C 10,0 C 63 % 1027,2 hPa 0,0 l/m 15,3 km/h (3 Bft) W-SW 243 0 min 0,000 mm 1,8 UV-I 318 W/m -0,3 C 0,4 C 19,3 km/h (3 Bft) 98,21 %
26.03.2019 12:16 6,3 C 8,3 C 11,1 C 63 % 1027,2 hPa 0,0 l/m 15,1 km/h (3 Bft) W 267 0 min 0,000 mm 1,6 UV-I 362 W/m -0,2 C 0,6 C 25,7 km/h (4 Bft) 97,22 %
26.03.2019 12:18 6,4 C 8,3 C 11,7 C 64 % 1027,2 hPa 0,0 l/m 13,3 km/h (3 Bft) W 270 0 min 0,000 mm 1,6 UV-I 363 W/m 0,1 C 1,6 C 27,4 km/h (4 Bft) 98,21 %
26.03.2019 12:20 6,6 C 8,3 C 11,1 C 61 % 1027,3 hPa 0,0 l/m 20,0 km/h (4 Bft) W 265 0 min 0,000 mm 1,6 UV-I 340 W/m -0,4 C -1,1 C 29,0 km/h (5 Bft) 96,15 %
26.03.2019 12:22 6,5 C 8,3 C 11,1 C 60 % 1027,3 hPa 0,0 l/m 13,8 km/h (3 Bft) W-SW 254 0 min 0,000 mm 1,6 UV-I 341 W/m -0,7 C 1,5 C 22,5 km/h (4 Bft) 98,39 %
26.03.2019 12:24 6,4 C 8,3 C 10,6 C 60 % 1027,3 hPa 0,0 l/m 16,9 km/h (3 Bft) W 271 0 min 0,000 mm 1,4 UV-I 302 W/m -0,8 C -0,1 C 24,1 km/h (4 Bft) 96,00 %
26.03.2019 12:26 6,4 C 8,3 C 10,0 C 59 % 1027,2 hPa 0,0 l/m 17,9 km/h (3 Bft) W-SW 245 0 min 0,000 mm 1,3 UV-I 277 W/m -1,0 C -0,5 C 25,7 km/h (4 Bft) 100,00 %
26.03.2019 12:28 6,3 C 8,3 C 9,4 C 61 % 1027,2 hPa 0,0 l/m 16,0 km/h (3 Bft) W 263 0 min 0,000 mm 1,3 UV-I 265 W/m -0,7 C 0,2 C 24,1 km/h (4 Bft) 100,00 %
26.03.2019 12:30 6,3 C 8,3 C 9,4 C 60 % 1027,2 hPa 0,0 l/m 12,8 km/h (3 Bft) W-NW 291 0 min 0,000 mm 1,2 UV-I 248 W/m -0,9 C 1,8 C 25,7 km/h (4 Bft) 100,00 %
26.03.2019 12:32 6,3 C 8,3 C 9,4 C 60 % 1027,2 hPa 0,0 l/m 14,2 km/h (3 Bft) W 259 0 min 0,000 mm 1,1 UV-I 235 W/m -0,9 C 1,1 C 22,5 km/h (4 Bft) 100,00 %
26.03.2019 12:34 6,3 C 8,3 C 8,9 C 61 % 1027,2 hPa 0,0 l/m 20,7 km/h (4 Bft) W-SW 257 0 min 0,000 mm 1,2 UV-I 238 W/m -0,7 C -1,8 C 32,2 km/h (5 Bft) 98,21 %
26.03.2019 12:36 6,2 C 8,3 C 8,9 C 61 % 1027,1 hPa 0,0 l/m 19,3 km/h (3 Bft) W-SW 245 0 min 0,000 mm 1,3 UV-I 267 W/m -0,7 C -1,4 C 29,0 km/h (5 Bft) 100,00 %
26.03.2019 12:38 6,1 C 8,3 C 8,9 C 61 % 1027,1 hPa 0,0 l/m 16,7 km/h (3 Bft) W-NW 283 0 min 0,000 mm 1,5 UV-I 300 W/m -0,8 C -0,4 C 24,1 km/h (4 Bft) 100,00 %
26.03.2019 12:40 6,2 C 8,3 C 9,4 C 63 % 1027,1 hPa 0,0 l/m 13,6 km/h (3 Bft) W 281 0 min 0,000 mm 1,6 UV-I 321 W/m -0,3 C 1,2 C 17,7 km/h (3 Bft) 100,00 %
26.03.2019 12:42 6,3 C 8,3 C 10,0 C 63 % 1027,1 hPa 0,0 l/m 19,5 km/h (3 Bft) W 263 0 min 0,000 mm 1,6 UV-I 341 W/m -0,2 C -1,3 C 27,4 km/h (4 Bft) 100,00 %
26.03.2019 12:44 6,3 C 8,3 C 10,6 C 62 % 1027,0 hPa 0,0 l/m 16,9 km/h (3 Bft) W 273 0 min 0,000 mm 1,8 UV-I 376 W/m -0,4 C -0,2 C 22,5 km/h (4 Bft) 100,00 %
26.03.2019 12:46 6,3 C 8,3 C 11,1 C 63 % 1027,1 hPa 0,0 l/m 14,3 km/h (3 Bft) W 265 2 min 0,000 mm 1,8 UV-I 428 W/m -0,2 C 1,0 C 20,9 km/h (4 Bft) 100,00 %
26.03.2019 12:48 6,5 C 8,3 C 11,7 C 61 % 1027,1 hPa 0,0 l/m 15,7 km/h (3 Bft) W-NW 288 2 min 0,000 mm 1,7 UV-I 414 W/m -0,5 C 0,6 C 27,4 km/h (4 Bft) 97,87 %
26.03.2019 12:50 6,6 C 8,3 C 11,1 C 60 % 1027,1 hPa 0,0 l/m 19,7 km/h (3 Bft) W-SW 254 0 min 0,000 mm 1,5 UV-I 347 W/m -0,6 C -1,0 C 27,4 km/h (4 Bft) 100,00 %
26.03.2019 12:52 6,6 C 8,3 C 10,6 C 60 % 1027,1 hPa 0,0 l/m 19,0 km/h (3 Bft) W-SW 243 0 min 0,000 mm 1,3 UV-I 284 W/m -0,6 C -0,7 C 29,0 km/h (5 Bft) 100,00 %
26.03.2019 12:54 6,4 C 8,3 C 10,0 C 59 % 1027,1 hPa 0,0 l/m 20,3 km/h (4 Bft) W 269 0 min 0,000 mm 1,1 UV-I 245 W/m -1,0 C -1,5 C 29,0 km/h (5 Bft) 100,00 %
26.03.2019 12:56 6,3 C 8,3 C 8,9 C 59 % 1027,1 hPa 0,0 l/m 18,0 km/h (3 Bft) W 263 0 min 0,000 mm 1,0 UV-I 221 W/m -1,1 C -0,7 C 29,0 km/h (5 Bft) 97,87 %
26.03.2019 12:58 6,3 C 8,3 C 8,9 C 59 % 1027,0 hPa 0,0 l/m 17,3 km/h (3 Bft) W-SW 257 0 min 0,000 mm 0,9 UV-I 199 W/m -1,1 C -0,4 C 27,4 km/h (4 Bft) 100,00 %
26.03.2019 13:00 6,2 C 8,3 C 8,3 C 59 % 1027,0 hPa 0,0 l/m 18,0 km/h (3 Bft) W-SW 252 0 min 0,178 mm 0,8 UV-I 176 W/m -1,2 C -0,8 C 25,7 km/h (4 Bft) 97,73 %
26.03.2019 13:02 6,2 C 8,3 C 8,3 C 59 % 1027,0 hPa 0,0 l/m 16,5 km/h (3 Bft) W-SW 241 0 min 0,000 mm 0,8 UV-I 163 W/m -1,2 C -0,2 C 20,9 km/h (4 Bft) 100,00 %
26.03.2019 13:04 6,2 C 8,3 C 7,8 C 59 % 1027,1 hPa 0,0 l/m 16,1 km/h (3 Bft) W 263 0 min 0,000 mm 0,7 UV-I 158 W/m -1,2 C 0,0 C 25,7 km/h (4 Bft) 100,00 %
26.03.2019 13:06 6,2 C 8,3 C 7,8 C 59 % 1027,0 hPa 0,0 l/m 15,9 km/h (3 Bft) W-NW 294 0 min 0,000 mm 0,7 UV-I 158 W/m -1,2 C 0,1 C 24,1 km/h (4 Bft) 100,00 %
26.03.2019 13:08 6,1 C 8,3 C 7,8 C 60 % 1027,1 hPa 0,0 l/m 13,5 km/h (3 Bft) SW 232 0 min 0,000 mm 0,7 UV-I 156 W/m -1,1 C 1,2 C 20,9 km/h (4 Bft) 100,00 %
26.03.2019 13:10 6,2 C 8,3 C 7,8 C 60 % 1027,0 hPa 0,0 l/m 13,2 km/h (3 Bft) W 259 0 min 0,000 mm 0,7 UV-I 156 W/m -1,0 C 1,5 C 22,5 km/h (4 Bft) 100,00 %
26.03.2019 13:12 6,2 C 8,3 C 7,8 C 60 % 1027,1 hPa 0,0 l/m 14,2 km/h (3 Bft) W-NW 287 0 min 0,000 mm 0,8 UV-I 165 W/m -1,0 C 0,9 C 20,9 km/h (4 Bft) 100,00 %
26.03.2019 13:14 6,2 C 8,3 C 7,8 C 59 % 1027,0 hPa 0,0 l/m 16,8 km/h (3 Bft) W-NW 300 0 min 0,000 mm 0,8 UV-I 173 W/m -1,2 C -0,3 C 24,1 km/h (4 Bft) 100,00 %
26.03.2019 13:16 6,2 C 8,3 C 7,8 C 60 % 1027,0 hPa 0,0 l/m 17,6 km/h (3 Bft) W-SW 251 0 min 0,000 mm 0,6 UV-I 140 W/m -1,0 C -0,7 C 24,1 km/h (4 Bft) 94,29 %
26.03.2019 13:18 6,2 C 8,3 C 7,2 C 60 % 1027,0 hPa 0,0 l/m 20,6 km/h (4 Bft) W 269 0 min 0,000 mm 0,5 UV-I 109 W/m -1,0 C -1,8 C 32,2 km/h (5 Bft) 96,43 %
26.03.2019 13:20 6,1 C 8,3 C 7,2 C 60 % 1026,9 hPa 0,0 l/m 15,8 km/h (3 Bft) W-SW 256 0 min 0,000 mm 0,5 UV-I 107 W/m -1,1 C 0,0 C 25,7 km/h (4 Bft) 91,49 %
26.03.2019 13:22 6,1 C 8,3 C 7,2 C 61 % 1027,0 hPa 0,0 l/m 16,2 km/h (3 Bft) W 271 0 min 0,000 mm 0,6 UV-I 131 W/m -0,8 C -0,2 C 25,7 km/h (4 Bft) 91,49 %
26.03.2019 13:24 6,1 C 8,3 C 7,2 C 61 % 1027,0 hPa 0,0 l/m 18,7 km/h (3 Bft) W-SW 243 0 min 0,000 mm 0,7 UV-I 154 W/m -0,8 C -1,2 C 30,6 km/h (5 Bft) 95,74 %
26.03.2019 13:26 6,1 C 8,3 C 7,2 C 61 % 1027,0 hPa 0,0 l/m 13,4 km/h (3 Bft) NW 319 0 min 0,000 mm 0,7 UV-I 138 W/m -0,8 C 1,2 C 25,7 km/h (4 Bft) 93,62 %
26.03.2019 13:28 6,1 C 8,3 C 7,2 C 62 % 1027,0 hPa 0,0 l/m 17,4 km/h (3 Bft) W 273 0 min 0,000 mm 0,6 UV-I 113 W/m -0,6 C -0,7 C 29,0 km/h (5 Bft) 90,24 %
26.03.2019 13:30 6,1 C 8,3 C 7,2 C 61 % 1027,1 hPa 0,0 l/m 21,6 km/h (4 Bft) W 267 0 min 0,000 mm 0,6 UV-I 119 W/m -0,8 C -2,3 C 32,2 km/h (5 Bft) 96,00 %
26.03.2019 13:32 6,1 C 8,3 C 7,2 C 61 % 1027,0 hPa 0,0 l/m 15,5 km/h (3 Bft) W-NW 293 0 min 0,000 mm 0,6 UV-I 140 W/m -0,8 C 0,2 C 22,5 km/h (4 Bft) 100,00 %
26.03.2019 13:34 6,1 C 8,3 C 7,2 C 62 % 1027,0 hPa 0,0 l/m 17,2 km/h (3 Bft) W 259 0 min 0,000 mm 0,7 UV-I 150 W/m -0,6 C -0,6 C 24,1 km/h (4 Bft) 94,37 %
26.03.2019 13:36 6,1 C 8,3 C 7,8 C 62 % 1027,0 hPa 0,0 l/m 14,1 km/h (3 Bft) W-NW 288 0 min 0,000 mm 0,7 UV-I 156 W/m -0,6 C 0,9 C 24,1 km/h (4 Bft) 92,68 %
26.03.2019 13:38 6,1 C 8,3 C 7,8 C 62 % 1027,0 hPa 0,0 l/m 11,4 km/h (2 Bft) W 281 0 min 0,000 mm 0,8 UV-I 166 W/m -0,6 C 2,4 C 17,7 km/h (3 Bft) 92,45 %
26.03.2019 13:40 6,1 C 8,3 C 7,8 C 62 % 1027,0 hPa 0,0 l/m 13,8 km/h (3 Bft) W-NW 286 0 min 0,000 mm 0,8 UV-I 179 W/m -0,6 C 1,0 C 20,9 km/h (4 Bft) 91,49 %
26.03.2019 13:42 6,2 C 8,3 C 8,3 C 63 % 1027,0 hPa 0,0 l/m 16,4 km/h (3 Bft) W 277 0 min 0,000 mm 1,0 UV-I 200 W/m -0,3 C -0,1 C 30,6 km/h (5 Bft) 97,56 %
26.03.2019 13:44 6,2 C 8,3 C 8,3 C 62 % 1027,0 hPa 0,0 l/m 17,8 km/h (3 Bft) W 261 0 min 0,000 mm 1,1 UV-I 225 W/m -0,5 C -0,7 C 29,0 km/h (5 Bft) 97,73 %
26.03.2019 13:46 6,3 C 8,3 C 8,3 C 63 % 1026,9 hPa 0,0 l/m 14,3 km/h (3 Bft) W-NW 283 0 min 0,000 mm 1,0 UV-I 214 W/m -0,2 C 1,0 C 19,3 km/h (3 Bft) 98,31 %
26.03.2019 13:48 6,3 C 8,3 C 8,9 C 63 % 1027,0 hPa 0,0 l/m 16,1 km/h (3 Bft) W 280 0 min 0,000 mm 0,9 UV-I 210 W/m -0,2 C 0,1 C 25,7 km/h (4 Bft) 97,87 %
26.03.2019 13:50 6,3 C 8,3 C 8,9 C 60 % 1027,0 hPa 0,0 l/m 25,1 km/h (4 Bft) W 279 0 min 0,000 mm 1,0 UV-I 224 W/m -0,9 C -3,2 C 33,8 km/h (5 Bft) 100,00 %
26.03.2019 13:52 6,3 C 8,3 C 8,9 C 59 % 1026,9 hPa 0,0 l/m 17,1 km/h (3 Bft) NW 306 0 min 0,000 mm 1,1 UV-I 258 W/m -1,1 C -0,3 C 27,4 km/h (4 Bft) 100,00 %
26.03.2019 13:54 6,3 C 8,3 C 9,4 C 60 % 1027,0 hPa 0,0 l/m 14,2 km/h (3 Bft) NW 315 0 min 0,000 mm 1,3 UV-I 298 W/m -0,9 C 1,1 C 22,5 km/h (4 Bft) 100,00 %
26.03.2019 13:56 6,4 C 8,3 C 10,0 C 58 % 1026,9 hPa 0,0 l/m 20,1 km/h (4 Bft) W 267 0 min 0,000 mm 1,3 UV-I 316 W/m -1,2 C -1,4 C 33,8 km/h (5 Bft) 97,56 %
26.03.2019 13:58 6,4 C 8,3 C 10,0 C 58 % 1026,9 hPa 0,0 l/m 14,0 km/h (3 Bft) W 280 0 min 0,000 mm 1,3 UV-I 305 W/m -1,2 C 1,3 C 20,9 km/h (4 Bft) 98,11 %
26.03.2019 14:00 6,4 C 8,3 C 10,0 C 58 % 1026,9 hPa 0,0 l/m 15,8 km/h (3 Bft) W-NW 289 0 min 0,127 mm 1,3 UV-I 304 W/m -1,2 C 0,4 C 32,2 km/h (5 Bft) 100,00 %
26.03.2019 14:02 6,5 C 8,3 C 10,6 C 59 % 1026,9 hPa 0,0 l/m 12,9 km/h (3 Bft) W-SW 255 0 min 0,000 mm 1,3 UV-I 308 W/m -0,9 C 2,0 C 17,7 km/h (3 Bft) 100,00 %
26.03.2019 14:04 6,6 C 8,3 C 10,6 C 58 % 1026,9 hPa 0,0 l/m 12,6 km/h (3 Bft) W 264 0 min 0,000 mm 1,3 UV-I 320 W/m -1,1 C 2,3 C 19,3 km/h (3 Bft) 97,56 %
26.03.2019 14:06 6,7 C 8,3 C 10,6 C 59 % 1026,9 hPa 0,0 l/m 12,3 km/h (3 Bft) W-NW 284 0 min 0,000 mm 1,3 UV-I 311 W/m -0,7 C 2,5 C 25,7 km/h (4 Bft) 97,92 %
26.03.2019 14:08 6,7 C 8,3 C 10,6 C 58 % 1026,8 hPa 0,0 l/m 19,0 km/h (3 Bft) W-SW 244 0 min 0,000 mm 1,3 UV-I 328 W/m -1,0 C -0,6 C 27,4 km/h (4 Bft) 98,18 %
26.03.2019 14:10 6,7 C 8,3 C 10,0 C 59 % 1026,8 hPa 0,0 l/m 19,5 km/h (3 Bft) SW 220 0 min 0,000 mm 1,2 UV-I 297 W/m -0,7 C -0,8 C 30,6 km/h (5 Bft) 100,00 %
26.03.2019 14:12 6,7 C 8,3 C 9,4 C 59 % 1026,9 hPa 0,0 l/m 22,3 km/h (4 Bft) W-SW 252 0 min 0,000 mm 1,0 UV-I 251 W/m -0,7 C -1,8 C 30,6 km/h (5 Bft) 100,00 %
26.03.2019 14:14 6,6 C 8,3 C 8,9 C 60 % 1026,8 hPa 0,0 l/m 18,7 km/h (3 Bft) W 267 0 min 0,000 mm 0,8 UV-I 212 W/m -0,6 C -0,6 C 33,8 km/h (5 Bft) 100,00 %
26.03.2019 14:16 6,6 C 8,3 C 8,9 C 61 % 1026,9 hPa 0,0 l/m 15,9 km/h (3 Bft) W 270 0 min 0,000 mm 0,7 UV-I 183 W/m -0,4 C 0,6 C 24,1 km/h (4 Bft) 100,00 %
26.03.2019 14:18 6,6 C 8,3 C 8,3 C 60 % 1026,7 hPa 0,0 l/m 21,3 km/h (4 Bft) W 259 0 min 0,000 mm 0,6 UV-I 163 W/m -0,6 C -1,6 C 32,2 km/h (5 Bft) 100,00 %
26.03.2019 14:20 6,5 C 8,3 C 7,8 C 60 % 1026,7 hPa 0,0 l/m 24,9 km/h (4 Bft) W 267 0 min 0,000 mm 0,6 UV-I 147 W/m -0,7 C -2,9 C 38,6 km/h (5 Bft) 100,00 %
26.03.2019 14:22 6,4 C 8,3 C 7,8 C 60 % 1026,7 hPa 0,0 l/m 16,7 km/h (3 Bft) W 268 0 min 0,000 mm 0,5 UV-I 138 W/m -0,8 C -0,0 C 24,1 km/h (4 Bft) 100,00 %
26.03.2019 14:24 6,4 C 8,3 C 7,8 C 60 % 1026,7 hPa 0,0 l/m 26,1 km/h (4 Bft) W 279 0 min 0,000 mm 0,5 UV-I 145 W/m -0,8 C -3,4 C 37,0 km/h (5 Bft) 95,74 %
26.03.2019 14:26 6,3 C 8,3 C 7,8 C 60 % 1026,8 hPa 0,0 l/m 19,2 km/h (3 Bft) W 281 0 min 0,000 mm 0,6 UV-I 172 W/m -0,9 C -1,2 C 29,0 km/h (5 Bft) 95,74 %
26.03.2019 14:28 6,4 C 8,3 C 8,3 C 60 % 1026,8 hPa 0,0 l/m 18,0 km/h (3 Bft) W-SW 254 0 min 0,000 mm 0,7 UV-I 196 W/m -0,8 C -0,6 C 24,1 km/h (4 Bft) 97,56 %
26.03.2019 14:30 6,4 C 8,3 C 8,9 C 61 % 1026,8 hPa 0,0 l/m 13,8 km/h (3 Bft) W 269 0 min 0,000 mm 0,8 UV-I 228 W/m -0,6 C 1,4 C 20,9 km/h (4 Bft) 97,14 %
26.03.2019 14:32 6,5 C 8,3 C 8,9 C 60 % 1026,8 hPa 0,0 l/m 10,7 km/h (2 Bft) W-NW 299 0 min 0,000 mm 0,9 UV-I 230 W/m -0,7 C 3,3 C 19,3 km/h (3 Bft) 97,06 %
26.03.2019 14:34 6,6 C 8,3 C 9,4 C 61 % 1026,7 hPa 0,0 l/m 14,7 km/h (3 Bft) W 266 0 min 0,000 mm 1,0 UV-I 256 W/m -0,4 C 1,2 C 25,7 km/h (4 Bft) 96,00 %
26.03.2019 14:36 6,7 C 8,3 C 10,0 C 61 % 1026,7 hPa 0,0 l/m 9,7 km/h (2 Bft) W 262 0 min 0,000 mm 1,1 UV-I 296 W/m -0,3 C 4,2 C 14,5 km/h (3 Bft) 97,56 %
26.03.2019 14:38 6,8 C 8,3 C 10,6 C 61 % 1026,8 hPa 0,0 l/m 8,3 km/h (2 Bft) W-SW 251 0 min 0,000 mm 1,1 UV-I 303 W/m -0,2 C 5,3 C 14,5 km/h (3 Bft) 94,34 %
26.03.2019 14:40 6,9 C 8,3 C 10,6 C 60 % 1026,7 hPa 0,0 l/m 17,1 km/h (3 Bft) W-NW 295 0 min 0,000 mm 1,1 UV-I 272 W/m -0,3 C 0,4 C 32,2 km/h (5 Bft) 94,74 %
26.03.2019 14:42 6,9 C 8,3 C 10,0 C 59 % 1026,7 hPa 0,0 l/m 18,5 km/h (3 Bft) W 271 0 min 0,000 mm 0,9 UV-I 227 W/m -0,5 C -0,1 C 30,6 km/h (5 Bft) 94,34 %
26.03.2019 14:44 6,9 C 8,3 C 9,4 C 59 % 1026,7 hPa 0,0 l/m 20,4 km/h (4 Bft) W-SW 253 0 min 0,000 mm 0,8 UV-I 208 W/m -0,5 C -0,9 C 27,4 km/h (4 Bft) 93,18 %
26.03.2019 14:46 6,9 C 8,3 C 9,4 C 59 % 1026,6 hPa 0,0 l/m 18,2 km/h (3 Bft) W 271 0 min 0,000 mm 0,8 UV-I 213 W/m -0,5 C -0,0 C 29,0 km/h (5 Bft) 95,24 %
26.03.2019 14:48 6,9 C 8,3 C 8,9 C 59 % 1026,7 hPa 0,0 l/m 23,0 km/h (4 Bft) W 270 0 min 0,000 mm 0,8 UV-I 198 W/m -0,5 C -1,8 C 30,6 km/h (5 Bft) 94,55 %
26.03.2019 14:50 6,8 C 8,3 C 8,9 C 59 % 1026,6 hPa 0,0 l/m 17,3 km/h (3 Bft) W 267 0 min 0,000 mm 0,7 UV-I 168 W/m -0,6 C 0,2 C 27,4 km/h (4 Bft) 95,74 %
26.03.2019 14:52 6,8 C 8,3 C 8,3 C 59 % 1026,6 hPa 0,0 l/m 16,9 km/h (3 Bft) W-SW 257 0 min 0,000 mm 0,5 UV-I 141 W/m -0,6 C 0,4 C 24,1 km/h (4 Bft) 92,31 %
26.03.2019 14:54 6,8 C 8,3 C 7,8 C 60 % 1026,6 hPa 0,0 l/m 16,5 km/h (3 Bft) W 277 0 min 0,000 mm 0,5 UV-I 134 W/m -0,4 C 0,6 C 27,4 km/h (4 Bft) 95,74 %
26.03.2019 14:56 6,7 C 8,3 C 7,8 C 60 % 1026,5 hPa 0,0 l/m 19,4 km/h (3 Bft) W 261 0 min 0,000 mm 0,3 UV-I 118 W/m -0,5 C -0,7 C 25,7 km/h (4 Bft) 94,64 %
26.03.2019 14:58 6,7 C 8,3 C 7,8 C 60 % 1026,6 hPa 0,0 l/m 13,6 km/h (3 Bft) W-SW 256 0 min 0,000 mm 0,0 UV-I 91 W/m -0,5 C 1,8 C 20,9 km/h (4 Bft) 97,14 %
26.03.2019 15:00 6,7 C 8,3 C 7,2 C 60 % 1026,5 hPa 0,0 l/m 16,7 km/h (3 Bft) W 259 0 min 0,152 mm 0,0 UV-I 79 W/m -0,5 C 0,4 C 27,4 km/h (4 Bft) 96,61 %
26.03.2019 15:02 6,6 C 8,3 C 7,2 C 60 % 1026,6 hPa 0,0 l/m 19,1 km/h (3 Bft) W 270 0 min 0,000 mm 0,0 UV-I 88 W/m -0,6 C -0,8 C 27,4 km/h (4 Bft) 94,74 %
26.03.2019 15:04 6,6 C 8,3 C 7,2 C 60 % 1026,6 hPa 0,0 l/m 14,4 km/h (3 Bft) W 263 0 min 0,000 mm 0,1 UV-I 114 W/m -0,6 C 1,3 C 25,7 km/h (4 Bft) 97,87 %
26.03.2019 15:06 6,6 C 8,3 C 7,8 C 61 % 1026,6 hPa 0,0 l/m 17,7 km/h (3 Bft) W-NW 292 0 min 0,000 mm 0,5 UV-I 156 W/m -0,4 C -0,2 C 25,7 km/h (4 Bft) 98,00 %
26.03.2019 15:08 6,6 C 8,3 C 7,8 C 60 % 1026,6 hPa 0,0 l/m 19,8 km/h (3 Bft) W 279 0 min 0,000 mm 0,6 UV-I 195 W/m -0,6 C -1,0 C 25,7 km/h (4 Bft) 95,74 %
26.03.2019 15:10 6,7 C 8,3 C 8,3 C 60 % 1026,5 hPa 0,0 l/m 18,2 km/h (3 Bft) W 269 0 min 0,000 mm 0,7 UV-I 202 W/m -0,5 C -0,3 C 37,0 km/h (5 Bft) 98,11 %
26.03.2019 15:12 6,7 C 8,3 C 8,9 C 60 % 1026,5 hPa 0,0 l/m 19,8 km/h (3 Bft) W 265 0 min 0,000 mm 0,7 UV-I 233 W/m -0,5 C -0,9 C 32,2 km/h (5 Bft) 95,12 %
26.03.2019 15:14 6,8 C 8,3 C 9,4 C 60 % 1026,5 hPa 0,0 l/m 15,4 km/h (3 Bft) W 269 0 min 0,000 mm 0,8 UV-I 261 W/m -0,4 C 1,1 C 25,7 km/h (4 Bft) 95,12 %
26.03.2019 15:16 6,9 C 8,3 C 10,0 C 60 % 1026,6 hPa 0,0 l/m 15,9 km/h (3 Bft) W-NW 285 0 min 0,000 mm 0,8 UV-I 249 W/m -0,3 C 1,0 C 27,4 km/h (4 Bft) 94,34 %
26.03.2019 15:19 7,1 C 8,3 C 10,0 C 60 % 1026,6 hPa 0,0 l/m 15,5 km/h (3 Bft) W 270 0 min 0,000 mm 0,8 UV-I 231 W/m -0,1 C 1,4 C 29,0 km/h (5 Bft) 93,24 %
26.03.2019 15:20 7,1 C 8,3 C 9,4 C 60 % 1026,6 hPa 0,0 l/m 14,5 km/h (3 Bft) W-NW 290 0 min 0,000 mm 0,8 UV-I 231 W/m -0,1 C 1,9 C 24,1 km/h (4 Bft) 97,30 %
26.03.2019 15:22 7,1 C 8,3 C 10,0 C 60 % 1026,7 hPa 0,0 l/m 12,8 km/h (3 Bft) W-NW 286 0 min 0,000 mm 0,8 UV-I 233 W/m -0,1 C 2,7 C 17,7 km/h (3 Bft) 95,52 %
26.03.2019 15:24 7,1 C 8,3 C 10,0 C 61 % 1026,6 hPa 0,0 l/m 16,5 km/h (3 Bft) W 274 0 min 0,000 mm 0,7 UV-I 232 W/m 0,1 C 0,9 C 24,1 km/h (4 Bft) 93,75 %
26.03.2019 15:26 7,1 C 8,3 C 10,0 C 60 % 1026,6 hPa 0,0 l/m 14,4 km/h (3 Bft) W 261 0 min 0,000 mm 0,8 UV-I 239 W/m -0,1 C 1,9 C 20,9 km/h (4 Bft) 93,88 %
26.03.2019 15:28 7,2 C 8,3 C 10,6 C 60 % 1026,5 hPa 0,0 l/m 17,3 km/h (3 Bft) W-SW 241 2 min 0,000 mm 0,8 UV-I 262 W/m -0,0 C 0,7 C 29,0 km/h (5 Bft) 95,83 %
26.03.2019 15:30 7,2 C 8,3 C 10,6 C 60 % 1026,5 hPa 0,0 l/m 13,3 km/h (3 Bft) NW 313 2 min 0,000 mm 0,9 UV-I 261 W/m -0,0 C 2,6 C 25,7 km/h (4 Bft) 91,43 %
26.03.2019 15:32 7,2 C 8,3 C 10,0 C 59 % 1026,4 hPa 0,0 l/m 10,7 km/h (2 Bft) W 270 0 min 0,000 mm 0,8 UV-I 216 W/m -0,3 C 4,1 C 17,7 km/h (3 Bft) 96,23 %
26.03.2019 15:34 7,2 C 8,3 C 10,0 C 60 % 1026,5 hPa 0,0 l/m 13,0 km/h (3 Bft) W 268 0 min 0,000 mm 0,8 UV-I 199 W/m -0,0 C 2,7 C 20,9 km/h (4 Bft) 93,62 %
26.03.2019 15:36 7,1 C 8,3 C 9,4 C 60 % 1026,5 hPa 0,0 l/m 17,1 km/h (3 Bft) W 261 0 min 0,000 mm 0,8 UV-I 207 W/m -0,1 C 0,7 C 29,0 km/h (5 Bft) 94,34 %
26.03.2019 15:38 7,1 C 8,3 C 9,4 C 60 % 1026,4 hPa 0,0 l/m 16,6 km/h (3 Bft) W 277 0 min 0,000 mm 0,8 UV-I 216 W/m -0,1 C 0,9 C 25,7 km/h (4 Bft) 95,45 %
26.03.2019 15:40 7,1 C 8,3 C 9,4 C 60 % 1026,5 hPa 0,0 l/m 16,5 km/h (3 Bft) W 260 0 min 0,000 mm 0,7 UV-I 185 W/m -0,1 C 0,9 C 22,5 km/h (4 Bft) 95,12 %
26.03.2019 15:42 7,1 C 8,3 C 9,4 C 59 % 1026,5 hPa 0,0 l/m 17,2 km/h (3 Bft) W 281 0 min 0,000 mm 0,7 UV-I 195 W/m -0,4 C 0,6 C 24,1 km/h (4 Bft) 96,00 %
26.03.2019 15:44 7,1 C 8,3 C 8,9 C 59 % 1026,4 hPa 0,0 l/m 18,6 km/h (3 Bft) W 266 0 min 0,000 mm 0,7 UV-I 202 W/m -0,4 C 0,1 C 29,0 km/h (5 Bft) 95,45 %
26.03.2019 15:46 7,1 C 8,3 C 8,9 C 59 % 1026,4 hPa 0,0 l/m 13,9 km/h (3 Bft) W 267 0 min 0,000 mm 0,6 UV-I 182 W/m -0,4 C 2,2 C 19,3 km/h (3 Bft) 96,23 %
26.03.2019 15:48 7,1 C 8,3 C 8,9 C 59 % 1026,4 hPa 0,0 l/m 10,8 km/h (2 Bft) W 281 0 min 0,000 mm 0,6 UV-I 146 W/m -0,4 C 3,9 C 24,1 km/h (4 Bft) 95,12 %
26.03.2019 15:50 7,0 C 8,3 C 8,3 C 59 % 1026,4 hPa 0,0 l/m 13,7 km/h (3 Bft) W 261 0 min 0,000 mm 0,5 UV-I 130 W/m -0,5 C 2,1 C 19,3 km/h (3 Bft) 98,11 %
26.03.2019 15:52 6,9 C 8,3 C 8,3 C 60 % 1026,4 hPa 0,0 l/m 13,4 km/h (3 Bft) W 275 0 min 0,000 mm 0,0 UV-I 121 W/m -0,3 C 2,2 C 24,1 km/h (4 Bft) 97,87 %
26.03.2019 15:54 6,9 C 8,3 C 8,3 C 60 % 1026,4 hPa 0,0 l/m 12,2 km/h (2 Bft) W 273 0 min 0,000 mm 0,0 UV-I 113 W/m -0,3 C 2,8 C 19,3 km/h (3 Bft) 100,00 %
26.03.2019 15:56 6,9 C 8,3 C 7,8 C 60 % 1026,4 hPa 0,0 l/m 13,1 km/h (3 Bft) W-SW 252 0 min 0,000 mm 0,0 UV-I 113 W/m -0,3 C 2,3 C 24,1 km/h (4 Bft) 100,00 %
26.03.2019 15:58 6,8 C 8,3 C 7,8 C 60 % 1026,4 hPa 0,0 l/m 15,6 km/h (3 Bft) W 272 0 min 0,000 mm 0,0 UV-I 101 W/m -0,4 C 1,0 C 24,1 km/h (4 Bft) 97,62 %
26.03.2019 16:00 6,8 C 8,3 C 7,8 C 60 % 1026,4 hPa 0,0 l/m 9,1 km/h (2 Bft) W-NW 285 0 min 0,000 mm 0,0 UV-I 95 W/m -0,4 C 4,7 C 14,5 km/h (3 Bft) 98,08 %
26.03.2019 16:02 6,8 C 8,3 C 7,8 C 61 % 1026,4 hPa 0,0 l/m 10,3 km/h (2 Bft) W 271 0 min 0,127 mm 0,0 UV-I 81 W/m -0,2 C 3,9 C 14,5 km/h (3 Bft) 97,87 %
26.03.2019 16:04 6,8 C 8,3 C 7,8 C 62 % 1026,4 hPa 0,0 l/m 10,0 km/h (2 Bft) W 272 0 min 0,000 mm 0,0 UV-I 76 W/m 0,0 C 4,1 C 16,1 km/h (3 Bft) 94,00 %
26.03.2019 16:06 6,8 C 8,3 C 7,8 C 62 % 1026,4 hPa 0,0 l/m 7,8 km/h (2 Bft) W-SW 246 0 min 0,000 mm 0,0 UV-I 86 W/m 0,0 C 5,6 C 16,1 km/h (3 Bft) 100,00 %
26.03.2019 16:08 6,8 C 8,3 C 7,8 C 62 % 1026,4 hPa 0,0 l/m 18,6 km/h (3 Bft) W 267 0 min 0,000 mm 0,0 UV-I 96 W/m 0,0 C -0,3 C 27,4 km/h (4 Bft) 94,00 %
26.03.2019 16:10 6,8 C 8,3 C 7,8 C 61 % 1026,4 hPa 0,0 l/m 19,5 km/h (3 Bft) W 267 0 min 0,000 mm 0,0 UV-I 119 W/m -0,2 C -0,7 C 25,7 km/h (4 Bft) 95,12 %
26.03.2019 16:12 6,8 C 8,3 C 7,8 C 61 % 1026,4 hPa 0,0 l/m 15,6 km/h (3 Bft) W-SW 248 0 min 0,000 mm 0,0 UV-I 156 W/m -0,2 C 1,0 C 33,8 km/h (5 Bft) 98,00 %
26.03.2019 16:14 6,9 C 8,3 C 8,3 C 60 % 1026,3 hPa 0,0 l/m 15,8 km/h (3 Bft) W 263 0 min 0,000 mm 0,1 UV-I 189 W/m -0,3 C 1,0 C 20,9 km/h (4 Bft) 96,23 %
26.03.2019 16:16 6,9 C 8,3 C 8,9 C 59 % 1026,3 hPa 0,0 l/m 13,3 km/h (3 Bft) W-SW 245 2 min 0,000 mm 0,5 UV-I 194 W/m -0,5 C 2,2 C 20,9 km/h (4 Bft) 97,37 %
26.03.2019 16:18 6,9 C 8,3 C 8,9 C 58 % 1026,3 hPa 0,0 l/m 20,0 km/h (4 Bft) W 267 2 min 0,000 mm 0,5 UV-I 191 W/m -0,8 C -0,7 C 30,6 km/h (5 Bft) 98,00 %
26.03.2019 16:20 7,0 C 8,3 C 8,9 C 58 % 1026,4 hPa 0,0 l/m 20,9 km/h (4 Bft) W 268 2 min 0,000 mm 0,5 UV-I 204 W/m -0,7 C -0,9 C 33,8 km/h (5 Bft) 100,00 %
26.03.2019 16:22 7,0 C 8,3 C 8,3 C 57 % 1026,3 hPa 0,0 l/m 20,8 km/h (4 Bft) W 277 2 min 0,000 mm 0,5 UV-I 294 W/m -0,9 C -0,9 C 30,6 km/h (5 Bft) 98,00 %
26.03.2019 16:24 7,1 C 8,3 C 8,9 C 58 % 1026,3 hPa 0,0 l/m 17,2 km/h (3 Bft) W 280 2 min 0,000 mm 0,5 UV-I 341 W/m -0,6 C 0,6 C 32,2 km/h (5 Bft) 100,00 %
26.03.2019 16:26 7,2 C 8,3 C 8,3 C 58 % 1026,4 hPa 0,0 l/m 21,1 km/h (4 Bft) W 273 2 min 0,000 mm 0,2 UV-I 308 W/m -0,5 C -0,7 C 35,4 km/h (5 Bft) 100,00 %
26.03.2019 16:28 7,2 C 8,3 C 8,3 C 58 % 1026,4 hPa 0,0 l/m 17,1 km/h (3 Bft) W 259 0 min 0,000 mm 0,0 UV-I 135 W/m -0,5 C 0,8 C 25,7 km/h (4 Bft) 100,00 %
26.03.2019 16:30 7,2 C 8,3 C 7,8 C 58 % 1026,4 hPa 0,0 l/m 19,4 km/h (3 Bft) W 260 0 min 0,000 mm 0,0 UV-I 128 W/m -0,5 C -0,1 C 27,4 km/h (4 Bft) 100,00 %
26.03.2019 16:32 7,1 C 8,3 C 7,8 C 58 % 1026,4 hPa 0,0 l/m 14,3 km/h (3 Bft) W 275 0 min 0,000 mm 0,0 UV-I 125 W/m -0,6 C 2,0 C 22,5 km/h (4 Bft) 100,00 %
26.03.2019 16:34 7,0 C 8,3 C 7,8 C 58 % 1026,3 hPa 0,0 l/m 11,3 km/h (2 Bft) W 273 0 min 0,000 mm 0,0 UV-I 128 W/m -0,7 C 3,5 C 20,9 km/h (4 Bft) 100,00 %
26.03.2019 16:36 7,0 C 8,3 C 7,8 C 59 % 1026,4 hPa 0,0 l/m 8,5 km/h (2 Bft) W-SW 248 0 min 0,000 mm 0,0 UV-I 122 W/m -0,5 C 5,3 C 14,5 km/h (3 Bft) 100,00 %
26.03.2019 16:38 6,9 C 8,3 C 7,8 C 60 % 1026,3 hPa 0,0 l/m 13,4 km/h (3 Bft) W 263 0 min 0,000 mm 0,0 UV-I 121 W/m -0,3 C 2,2 C 22,5 km/h (4 Bft) 97,62 %
26.03.2019 16:40 6,9 C 8,3 C 7,8 C 60 % 1026,3 hPa 0,0 l/m 13,9 km/h (3 Bft) W 276 0 min 0,000 mm 0,0 UV-I 120 W/m -0,3 C 1,9 C 25,7 km/h (4 Bft) 100,00 %
26.03.2019 16:42 6,9 C 8,3 C 7,8 C 60 % 1026,3 hPa 0,0 l/m 14,5 km/h (3 Bft) W-NW 288 0 min 0,000 mm 0,0 UV-I 110 W/m -0,3 C 1,6 C 25,7 km/h (4 Bft) 100,00 %
26.03.2019 16:44 6,9 C 8,3 C 7,8 C 60 % 1026,4 hPa 0,0 l/m 10,9 km/h (2 Bft) W-NW 300 0 min 0,000 mm 0,0 UV-I 111 W/m -0,3 C 3,6 C 19,3 km/h (3 Bft) 100,00 %
26.03.2019 16:46 6,9 C 8,3 C 7,8 C 60 % 1026,4 hPa 0,0 l/m 13,4 km/h (3 Bft) W 262 0 min 0,000 mm 0,0 UV-I 104 W/m -0,3 C 2,2 C 27,4 km/h (4 Bft) 100,00 %
26.03.2019 16:48 6,9 C 8,3 C 7,8 C 60 % 1026,4 hPa 0,0 l/m 12,2 km/h (2 Bft) W 277 0 min 0,000 mm 0,0 UV-I 84 W/m -0,3 C 2,8 C 22,5 km/h (4 Bft) 100,00 %
26.03.2019 16:50 6,8 C 8,3 C 7,2 C 61 % 1026,4 hPa 0,0 l/m 10,2 km/h (2 Bft) NW 309 0 min 0,000 mm 0,0 UV-I 72 W/m -0,2 C 3,9 C 17,7 km/h (3 Bft) 100,00 %
26.03.2019 16:52 6,8 C 8,3 C 7,2 C 61 % 1026,4 hPa 0,0 l/m 13,3 km/h (3 Bft) W 269 0 min 0,000 mm 0,0 UV-I 60 W/m -0,2 C 2,1 C 19,3 km/h (3 Bft) 100,00 %
26.03.2019 16:54 6,8 C 8,3 C 7,2 C 61 % 1026,4 hPa 0,0 l/m 9,2 km/h (2 Bft) W-NW 294 0 min 0,000 mm 0,0 UV-I 51 W/m -0,2 C 4,6 C 12,9 km/h (3 Bft) 100,00 %
26.03.2019 16:56 6,8 C 8,3 C 7,2 C 61 % 1026,5 hPa 0,0 l/m 13,9 km/h (3 Bft) W 266 0 min 0,000 mm 0,0 UV-I 44 W/m -0,2 C 1,8 C 20,9 km/h (4 Bft) 100,00 %
26.03.2019 16:58 6,8 C 8,3 C 6,7 C 61 % 1026,4 hPa 0,0 l/m 12,7 km/h (3 Bft) W-SW 245 0 min 0,000 mm 0,0 UV-I 35 W/m -0,2 C 2,4 C 19,3 km/h (3 Bft) 100,00 %
26.03.2019 17:00 6,7 C 8,3 C 6,7 C 61 % 1026,5 hPa 0,0 l/m 10,8 km/h (2 Bft) W-SW 256 0 min 0,102 mm 0,0 UV-I 32 W/m -0,3 C 3,4 C 17,7 km/h (3 Bft) 100,00 %
26.03.2019 17:02 6,7 C 8,3 C 6,7 C 61 % 1026,5 hPa 0,0 l/m 16,2 km/h (3 Bft) W-SW 252 0 min 0,000 mm 0,0 UV-I 31 W/m -0,3 C 0,6 C 29,0 km/h (5 Bft) 100,00 %
26.03.2019 17:04 6,7 C 8,3 C 6,7 C 61 % 1026,5 hPa 0,0 l/m 20,5 km/h (4 Bft) W 262 0 min 0,000 mm 0,0 UV-I 32 W/m -0,3 C -1,2 C 30,6 km/h (5 Bft) 100,00 %
26.03.2019 17:06 6,7 C 8,3 C 6,7 C 61 % 1026,5 hPa 0,0 l/m 15,0 km/h (3 Bft) W-NW 286 0 min 0,000 mm 0,0 UV-I 33 W/m -0,3 C 1,1 C 25,7 km/h (4 Bft) 98,00 %
26.03.2019 17:08 6,6 C 8,3 C 6,7 C 61 % 1026,5 hPa 0,0 l/m 18,8 km/h (3 Bft) W 260 0 min 0,000 mm 0,0 UV-I 39 W/m -0,4 C -0,6 C 25,7 km/h (4 Bft) 100,00 %
26.03.2019 17:10 6,6 C 8,3 C 6,7 C 60 % 1026,6 hPa 0,0 l/m 24,4 km/h (4 Bft) W-NW 286 0 min 0,000 mm 0,0 UV-I 45 W/m -0,6 C -2,6 C 40,2 km/h (6 Bft) 98,00 %
26.03.2019 17:12 6,6 C 8,3 C 6,7 C 60 % 1026,6 hPa 0,0 l/m 19,0 km/h (3 Bft) W 276 0 min 0,000 mm 0,0 UV-I 47 W/m -0,6 C -0,7 C 25,7 km/h (4 Bft) 94,74 %
26.03.2019 17:14 6,6 C 8,3 C 6,7 C 61 % 1026,7 hPa 0,0 l/m 15,9 km/h (3 Bft) W 279 0 min 0,000 mm 0,0 UV-I 48 W/m -0,4 C 0,6 C 27,4 km/h (4 Bft) 97,92 %
26.03.2019 17:16 6,7 C 8,3 C 6,7 C 61 % 1026,7 hPa 0,0 l/m 17,3 km/h (3 Bft) W 265 0 min 0,000 mm 0,0 UV-I 51 W/m -0,3 C 0,1 C 32,2 km/h (5 Bft) 96,15 %
26.03.2019 17:18 6,7 C 8,3 C 6,7 C 61 % 1026,7 hPa 0,0 l/m 18,3 km/h (3 Bft) W-NW 294 0 min 0,000 mm 0,0 UV-I 52 W/m -0,3 C -0,3 C 29,0 km/h (5 Bft) 95,24 %
26.03.2019 17:20 6,7 C 8,3 C 6,7 C 61 % 1026,7 hPa 0,0 l/m 20,0 km/h (4 Bft) W-SW 252 0 min 0,000 mm 0,0 UV-I 57 W/m -0,3 C -1,0 C 27,4 km/h (4 Bft) 96,23 %
26.03.2019 17:22 6,7 C 8,3 C 6,7 C 61 % 1026,7 hPa 0,0 l/m 15,3 km/h (3 Bft) W 267 0 min 0,000 mm 0,0 UV-I 66 W/m -0,3 C 1,0 C 22,5 km/h (4 Bft) 94,74 %
26.03.2019 17:24 6,7 C 8,3 C 7,2 C 62 % 1026,5 hPa 0,0 l/m 12,5 km/h (3 Bft) W-NW 284 0 min 0,000 mm 0,0 UV-I 78 W/m -0,1 C 2,4 C 17,7 km/h (3 Bft) 98,11 %
26.03.2019 17:26 6,7 C 8,3 C 7,2 C 61 % 1026,7 hPa 0,0 l/m 12,2 km/h (2 Bft) W 271 0 min 0,000 mm 0,0 UV-I 76 W/m -0,3 C 2,6 C 17,7 km/h (3 Bft) 92,00 %
26.03.2019 17:28 6,7 C 8,3 C 6,7 C 62 % 1026,7 hPa 0,0 l/m 15,9 km/h (3 Bft) W-NW 286 0 min 0,000 mm 0,0 UV-I 62 W/m -0,1 C 0,7 C 20,9 km/h (4 Bft) 97,37 %
26.03.2019 17:30 6,6 C 8,3 C 6,7 C 62 % 1026,6 hPa 0,0 l/m 13,4 km/h (3 Bft) W-SW 256 0 min 0,000 mm 0,0 UV-I 46 W/m -0,1 C 1,8 C 20,9 km/h (4 Bft) 92,45 %
26.03.2019 17:32 6,6 C 8,3 C 6,1 C 62 % 1026,6 hPa 0,0 l/m 14,0 km/h (3 Bft) W 275 0 min 0,000 mm 0,0 UV-I 40 W/m -0,1 C 1,5 C 19,3 km/h (3 Bft) 94,00 %
26.03.2019 17:34 6,5 C 8,3 C 6,1 C 62 % 1026,6 hPa 0,0 l/m 14,2 km/h (3 Bft) W-NW 285 0 min 0,000 mm 0,0 UV-I 49 W/m -0,2 C 1,3 C 24,1 km/h (4 Bft) 94,74 %
26.03.2019 17:36 6,5 C 8,3 C 6,1 C 62 % 1026,6 hPa 0,0 l/m 12,1 km/h (2 Bft) W 273 0 min 0,000 mm 0,0 UV-I 59 W/m -0,2 C 2,4 C 17,7 km/h (3 Bft) 95,74 %
26.03.2019 17:38 6,5 C 8,3 C 6,1 C 63 % 1026,6 hPa 0,0 l/m 13,6 km/h (3 Bft) W 277 2 min 0,000 mm 0,0 UV-I 69 W/m -0,0 C 1,6 C 20,9 km/h (4 Bft) 95,74 %
26.03.2019 17:40 6,6 C 8,3 C 6,7 C 62 % 1026,6 hPa 0,0 l/m 12,3 km/h (3 Bft) W-SW 258 2 min 0,000 mm 0,0 UV-I 78 W/m -0,1 C 2,4 C 19,3 km/h (3 Bft) 98,00 %
26.03.2019 17:42 6,6 C 8,3 C 6,7 C 63 % 1026,6 hPa 0,0 l/m 12,4 km/h (3 Bft) W 265 2 min 0,000 mm 0,0 UV-I 88 W/m 0,1 C 2,4 C 16,1 km/h (3 Bft) 98,11 %
26.03.2019 17:44 6,6 C 8,3 C 6,1 C 63 % 1026,5 hPa 0,0 l/m 13,7 km/h (3 Bft) W 279 2 min 0,000 mm 0,0 UV-I 69 W/m 0,1 C 1,7 C 19,3 km/h (3 Bft) 100,00 %
26.03.2019 17:46 6,5 C 8,3 C 6,1 C 63 % 1026,5 hPa 0,0 l/m 11,3 km/h (2 Bft) W 281 2 min 0,000 mm 0,0 UV-I 54 W/m -0,0 C 2,9 C 16,1 km/h (3 Bft) 100,00 %
26.03.2019 17:48 6,5 C 8,3 C 5,6 C 63 % 1026,5 hPa 0,0 l/m 13,9 km/h (3 Bft) W-SW 257 2 min 0,000 mm 0,0 UV-I 58 W/m -0,0 C 1,4 C 19,3 km/h (3 Bft) 97,56 %
26.03.2019 17:50 6,4 C 8,3 C 5,6 C 63 % 1026,5 hPa 0,0 l/m 13,1 km/h (3 Bft) W-NW 300 2 min 0,000 mm 0,0 UV-I 59 W/m -0,1 C 1,7 C 20,9 km/h (4 Bft) 100,00 %
26.03.2019 17:52 6,4 C 8,3 C 5,6 C 63 % 1026,5 hPa 0,0 l/m 12,5 km/h (3 Bft) W 281 2 min 0,000 mm 0,0 UV-I 63 W/m -0,1 C 2,1 C 20,9 km/h (4 Bft) 96,00 %
26.03.2019 17:54 6,4 C 8,3 C 5,6 C 63 % 1026,5 hPa 0,0 l/m 11,6 km/h (2 Bft) W 268 2 min 0,000 mm 0,0 UV-I 59 W/m -0,1 C 2,6 C 17,7 km/h (3 Bft) 100,00 %
26.03.2019 17:56 6,4 C 8,3 C 5,6 C 64 % 1026,5 hPa 0,0 l/m 8,6 km/h (2 Bft) W 265 2 min 0,000 mm 0,0 UV-I 54 W/m 0,1 C 4,6 C 12,9 km/h (3 Bft) 100,00 %
26.03.2019 17:58 6,3 C 8,3 C 5,6 C 64 % 1026,5 hPa 0,0 l/m 10,6 km/h (2 Bft) W 270 2 min 0,000 mm 0,0 UV-I 43 W/m 0,0 C 3,1 C 14,5 km/h (3 Bft) 100,00 %
26.03.2019 18:00 6,3 C 8,3 C 5,6 C 64 % 1026,5 hPa 0,0 l/m 14,6 km/h (3 Bft) W 268 2 min 0,076 mm 0,0 UV-I 38 W/m 0,0 C 0,8 C 24,1 km/h (4 Bft) 98,11 %
26.03.2019 18:02 6,3 C 8,3 C 5,6 C 64 % 1026,5 hPa 0,0 l/m 11,7 km/h (2 Bft) W 273 2 min 0,000 mm 0,0 UV-I 32 W/m 0,0 C 2,4 C 17,7 km/h (3 Bft) 100,00 %
26.03.2019 18:04 6,3 C 8,3 C 5,6 C 64 % 1026,5 hPa 0,0 l/m 8,2 km/h (2 Bft) W 270 2 min 0,000 mm 0,0 UV-I 28 W/m 0,0 C 4,8 C 14,5 km/h (3 Bft) 100,00 %
26.03.2019 18:06 6,3 C 8,3 C 5,6 C 64 % 1026,5 hPa 0,0 l/m 11,1 km/h (2 Bft) W 264 0 min 0,000 mm 0,0 UV-I 20 W/m 0,0 C 2,8 C 17,7 km/h (3 Bft) 100,00 %
26.03.2019 18:08 6,3 C 8,3 C 5,6 C 63 % 1026,5 hPa 0,0 l/m 14,9 km/h (3 Bft) W 279 0 min 0,000 mm 0,0 UV-I 17 W/m -0,2 C 0,7 C 22,5 km/h (4 Bft) 100,00 %
26.03.2019 18:10 6,3 C 8,3 C 5,6 C 63 % 1026,6 hPa 0,0 l/m 8,5 km/h (2 Bft) W 276 2 min 0,000 mm 0,0 UV-I 16 W/m -0,2 C 4,6 C 16,1 km/h (3 Bft) 98,11 %
26.03.2019 18:12 6,3 C 8,3 C 5,6 C 63 % 1026,6 hPa 0,0 l/m 8,8 km/h (2 Bft) W 269 2 min 0,000 mm 0,0 UV-I 17 W/m -0,2 C 4,4 C 14,5 km/h (3 Bft) 98,00 %
26.03.2019 18:14 6,3 C 8,3 C 5,6 C 64 % 1026,6 hPa 0,0 l/m 11,2 km/h (2 Bft) W 274 2 min 0,000 mm 0,0 UV-I 15 W/m 0,0 C 2,7 C 17,7 km/h (3 Bft) 100,00 %
26.03.2019 18:16 6,2 C 8,3 C 5,0 C 64 % 1026,6 hPa 0,0 l/m 10,8 km/h (2 Bft) W 266 0 min 0,000 mm 0,0 UV-I 13 W/m -0,1 C 2,9 C 19,3 km/h (3 Bft) 100,00 %
26.03.2019 18:18 6,2 C 8,3 C 5,0 C 63 % 1026,6 hPa 0,0 l/m 13,4 km/h (3 Bft) W-NW 284 0 min 0,000 mm 0,0 UV-I 11 W/m -0,3 C 1,4 C 19,3 km/h (3 Bft) 100,00 %
26.03.2019 18:20 6,2 C 8,3 C 5,0 C 63 % 1026,6 hPa 0,0 l/m 13,4 km/h (3 Bft) W 263 0 min 0,000 mm 0,0 UV-I 11 W/m -0,3 C 1,4 C 22,5 km/h (4 Bft) 100,00 %
26.03.2019 18:22 6,1 C 8,3 C 4,4 C 63 % 1026,5 hPa 0,0 l/m 13,2 km/h (3 Bft) W 270 0 min 0,000 mm 0,0 UV-I 9 W/m -0,4 C 1,3 C 17,7 km/h (3 Bft) 100,00 %
26.03.2019 18:24 6,1 C 8,3 C 4,4 C 63 % 1026,5 hPa 0,0 l/m 12,9 km/h (3 Bft) W 265 0 min 0,000 mm 0,0 UV-I 9 W/m -0,4 C 1,5 C 20,9 km/h (4 Bft) 100,00 %
26.03.2019 18:26 6,1 C 8,3 C 4,4 C 63 % 1026,6 hPa 0,0 l/m 10,2 km/h (2 Bft) W 273 0 min 0,000 mm 0,0 UV-I 7 W/m -0,4 C 3,2 C 16,1 km/h (3 Bft) 96,43 %
26.03.2019 18:29 5,9 C 8,3 C 4,4 C 64 % 1026,6 hPa 0,0 l/m 9,4 km/h (2 Bft) W 273 0 min 0,000 mm 0,0 UV-I 7 W/m -0,4 C 3,5 C 14,5 km/h (3 Bft) 98,39 %
26.03.2019 18:30 5,9 C 8,3 C 4,4 C 64 % 1026,6 hPa 0,0 l/m 9,2 km/h (2 Bft) W 277 0 min 0,000 mm 0,0 UV-I 7 W/m -0,4 C 3,6 C 12,9 km/h (3 Bft) 100,00 %
26.03.2019 18:32 5,8 C 8,3 C 4,4 C 64 % 1026,6 hPa 0,0 l/m 10,8 km/h (2 Bft) W 274 0 min 0,000 mm 0,0 UV-I 5 W/m -0,5 C 2,4 C 17,7 km/h (3 Bft) 98,00 %
26.03.2019 18:34 5,8 C 8,3 C 4,4 C 65 % 1026,5 hPa 0,0 l/m 13,3 km/h (3 Bft) W 271 0 min 0,000 mm 0,0 UV-I 5 W/m -0,3 C 0,9 C 19,3 km/h (3 Bft) 100,00 %
26.03.2019 18:36 5,8 C 8,3 C 3,9 C 65 % 1026,6 hPa 0,0 l/m 12,0 km/h (2 Bft) W 265 0 min 0,000 mm 0,0 UV-I 5 W/m -0,3 C 1,7 C 16,1 km/h (3 Bft) 97,62 %
26.03.2019 18:38 5,7 C 8,3 C 3,9 C 65 % 1026,6 hPa 0,0 l/m 13,6 km/h (3 Bft) W 273 0 min 0,000 mm 0,0 UV-I 3 W/m -0,4 C 0,7 C 17,7 km/h (3 Bft) 98,00 %
26.03.2019 18:40 5,7 C 8,3 C 3,9 C 65 % 1026,6 hPa 0,0 l/m 11,4 km/h (2 Bft) W 269 0 min 0,000 mm 0,0 UV-I 0 W/m -0,4 C 1,9 C 17,7 km/h (3 Bft) 97,56 %
26.03.2019 18:42 5,7 C 8,3 C 3,9 C 65 % 1026,7 hPa 0,0 l/m 11,1 km/h (2 Bft) W-SW 251 0 min 0,000 mm 0,0 UV-I 0 W/m -0,4 C 2,1 C 16,1 km/h (3 Bft) 98,11 %
26.03.2019 18:44 5,6 C 8,3 C 3,9 C 65 % 1026,6 hPa 0,0 l/m 12,7 km/h (3 Bft) W 265 0 min 0,000 mm 0,0 UV-I 0 W/m -0,4 C 1,0 C 16,1 km/h (3 Bft) 93,62 %
26.03.2019 18:46 5,6 C 8,3 C 3,9 C 65 % 1026,7 hPa 0,0 l/m 10,5 km/h (2 Bft) W 261 0 min 0,000 mm 0,0 UV-I 0 W/m -0,4 C 2,4 C 14,5 km/h (3 Bft) 95,12 %
26.03.2019 18:49 5,6 C 8,3 C 3,9 C 66 % 1026,8 hPa 0,0 l/m 12,1 km/h (2 Bft) W 269 0 min 0,000 mm 0,0 UV-I 0 W/m -0,2 C 1,4 C 14,5 km/h (3 Bft) 94,29 %
26.03.2019 18:50 5,6 C 8,3 C 3,9 C 66 % 1026,8 hPa 0,0 l/m 9,7 km/h (2 Bft) W 275 0 min 0,000 mm 0,0 UV-I 0 W/m -0,2 C 2,9 C 14,5 km/h (3 Bft) 100,00 %
26.03.2019 18:52 5,6 C 8,3 C 4,4 C 66 % 1026,8 hPa 0,0 l/m 8,2 km/h (2 Bft) W 272 0 min 0,000 mm 0,0 UV-I 0 W/m -0,2 C 4,1 C 12,9 km/h (3 Bft) 93,18 %
26.03.2019 18:54 5,5 C 8,3 C 3,9 C 66 % 1026,8 hPa 0,0 l/m 7,9 km/h (2 Bft) W 274 0 min 0,000 mm 0,0 UV-I 0 W/m -0,3 C 4,2 C 12,9 km/h (3 Bft) 91,49 %
26.03.2019 18:56 5,5 C 8,3 C 3,9 C 66 % 1026,9 hPa 0,0 l/m 8,1 km/h (2 Bft) W 265 0 min 0,000 mm 0,0 UV-I 0 W/m -0,3 C 4,0 C 12,9 km/h (3 Bft) 98,11 %
26.03.2019 18:59 5,4 C 8,3 C 3,9 C 66 % 1026,9 hPa 0,0 l/m 11,2 km/h (2 Bft) W 263 0 min 0,000 mm 0,0 UV-I 0 W/m -0,4 C 1,7 C 14,5 km/h (3 Bft) 97,18 %
26.03.2019 19:00 5,4 C 8,3 C 3,9 C 66 % 1026,9 hPa 0,0 l/m 11,5 km/h (2 Bft) W 265 0 min 0,000 mm 0,0 UV-I 0 W/m -0,4 C 1,5 C 14,5 km/h (3 Bft) 92,86 %
26.03.2019 19:02 5,4 C 8,3 C 3,9 C 67 % 1026,9 hPa 0,0 l/m 9,2 km/h (2 Bft) W 273 0 min 0,051 mm 0,0 UV-I 0 W/m -0,2 C 3,1 C 12,9 km/h (3 Bft) 95,74 %
26.03.2019 19:04 5,4 C 8,3 C 3,9 C 67 % 1026,8 hPa 0,0 l/m 9,9 km/h (2 Bft) W-SW 255 0 min 0,000 mm 0,0 UV-I 0 W/m -0,2 C 2,6 C 12,9 km/h (3 Bft) 98,00 %
26.03.2019 19:06 5,3 C 8,3 C 3,9 C 67 % 1027,0 hPa 0,0 l/m 8,6 km/h (2 Bft) W 261 0 min 0,000 mm 0,0 UV-I 0 W/m -0,3 C 3,4 C 12,9 km/h (3 Bft) 97,87 %
26.03.2019 19:08 5,3 C 8,3 C 3,9 C 67 % 1027,0 hPa 0,0 l/m 8,9 km/h (2 Bft) W 267 0 min 0,000 mm 0,0 UV-I 0 W/m -0,3 C 3,2 C 12,9 km/h (3 Bft) 97,62 %
26.03.2019 19:10 5,3 C 8,3 C 3,9 C 68 % 1027,1 hPa 0,0 l/m 8,1 km/h (2 Bft) W 265 0 min 0,000 mm 0,0 UV-I 0 W/m -0,1 C 3,8 C 12,9 km/h (3 Bft) 98,00 %
26.03.2019 19:12 5,3 C 8,3 C 3,9 C 68 % 1027,0 hPa 0,0 l/m 7,6 km/h (2 Bft) W-SW 244 0 min 0,000 mm 0,0 UV-I 0 W/m -0,1 C 4,3 C 12,9 km/h (3 Bft) 93,62 %
26.03.2019 19:14 5,3 C 8,3 C 3,9 C 68 % 1027,1 hPa 0,0 l/m 7,2 km/h (2 Bft) W 267 0 min 0,000 mm 0,0 UV-I 0 W/m -0,1 C 4,6 C 11,3 km/h (2 Bft) 92,73 %
26.03.2019 19:16 5,3 C 8,3 C 3,9 C 68 % 1027,1 hPa 0,0 l/m 7,2 km/h (2 Bft) W 259 0 min 0,000 mm 0,0 UV-I 0 W/m -0,1 C 4,6 C 11,3 km/h (2 Bft) 100,00 %
26.03.2019 19:18 5,2 C 8,3 C 3,9 C 68 % 1027,1 hPa 0,0 l/m 7,8 km/h (2 Bft) W 271 0 min 0,000 mm 0,0 UV-I 0 W/m -0,2 C 4,0 C 12,9 km/h (3 Bft) 93,55 %
26.03.2019 19:20 5,2 C 8,3 C 3,9 C 68 % 1027,1 hPa 0,0 l/m 9,3 km/h (2 Bft) W-SW 245 0 min 0,000 mm 0,0 UV-I 0 W/m -0,2 C 2,8 C 12,9 km/h (3 Bft) 96,00 %
26.03.2019 19:22 5,2 C 8,3 C 3,3 C 68 % 1027,1 hPa 0,0 l/m 9,2 km/h (2 Bft) W-SW 240 0 min 0,000 mm 0,0 UV-I 0 W/m -0,2 C 2,9 C 14,5 km/h (3 Bft) 94,00 %
26.03.2019 19:24 5,2 C 8,3 C 3,3 C 68 % 1027,1 hPa 0,0 l/m 8,3 km/h (2 Bft) W-SW 254 0 min 0,000 mm 0,0 UV-I 0 W/m -0,2 C 3,6 C 14,5 km/h (3 Bft) 95,12 %
26.03.2019 19:26 5,2 C 8,3 C 3,3 C 68 % 1027,1 hPa 0,0 l/m 9,4 km/h (2 Bft) W-NW 282 0 min 0,000 mm 0,0 UV-I 0 W/m -0,2 C 2,7 C 14,5 km/h (3 Bft) 95,74 %
26.03.2019 19:29 5,1 C 8,3 C 3,9 C 69 % 1027,1 hPa 0,0 l/m 7,0 km/h (2 Bft) W-SW 240 0 min 0,000 mm 0,0 UV-I 0 W/m -0,1 C 4,6 C 11,3 km/h (2 Bft) 94,37 %
26.03.2019 19:30 5,1 C 8,3 C 3,9 C 69 % 1027,1 hPa 0,0 l/m 8,0 km/h (2 Bft) W-SW 239 0 min 0,000 mm 0,0 UV-I 0 W/m -0,1 C 3,7 C 12,9 km/h (3 Bft) 93,10 %
26.03.2019 19:32 5,1 C 8,3 C 3,3 C 69 % 1027,1 hPa 0,0 l/m 8,4 km/h (2 Bft) W-SW 248 0 min 0,000 mm 0,0 UV-I 0 W/m -0,1 C 3,4 C 12,9 km/h (3 Bft) 92,68 %
26.03.2019 19:34 5,0 C 8,3 C 3,3 C 69 % 1027,1 hPa 0,0 l/m 8,5 km/h (2 Bft) W 263 0 min 0,000 mm 0,0 UV-I 0 W/m -0,2 C 3,2 C 12,9 km/h (3 Bft) 96,00 %
26.03.2019 19:36 5,0 C 8,3 C 3,3 C 69 % 1027,1 hPa 0,0 l/m 9,7 km/h (2 Bft) SW 232 0 min 0,000 mm 0,0 UV-I 0 W/m -0,2 C 2,3 C 16,1 km/h (3 Bft) 90,00 %
26.03.2019 19:38 5,0 C 8,3 C 3,3 C 69 % 1027,2 hPa 0,0 l/m 9,9 km/h (2 Bft) W 267 0 min 0,000 mm 0,0 UV-I 0 W/m -0,2 C 2,1 C 19,3 km/h (3 Bft) 89,36 %
26.03.2019 19:40 5,0 C 8,3 C 3,3 C 69 % 1027,2 hPa 0,0 l/m 8,1 km/h (2 Bft) W-SW 240 0 min 0,000 mm 0,0 UV-I 0 W/m -0,2 C 3,5 C 12,9 km/h (3 Bft) 97,14 %
26.03.2019 19:42 4,9 C 8,3 C 3,3 C 70 % 1027,2 hPa 0,0 l/m 9,4 km/h (2 Bft) SW 232 0 min 0,000 mm 0,0 UV-I 0 W/m -0,1 C 2,4 C 12,9 km/h (3 Bft) 94,23 %
26.03.2019 19:44 4,9 C 8,3 C 3,3 C 70 % 1027,2 hPa 0,0 l/m 7,8 km/h (2 Bft) SW 218 0 min 0,000 mm 0,0 UV-I 0 W/m -0,1 C 3,7 C 14,5 km/h (3 Bft) 93,62 %
26.03.2019 19:46 4,9 C 8,3 C 3,3 C 70 % 1027,3 hPa 0,0 l/m 8,7 km/h (2 Bft) SW 234 0 min 0,000 mm 0,0 UV-I 0 W/m -0,1 C 2,9 C 12,9 km/h (3 Bft) 93,62 %
26.03.2019 19:48 4,8 C 8,3 C 3,9 C 70 % 1027,3 hPa 0,0 l/m 10,0 km/h (2 Bft) W-SW 238 0 min 0,000 mm 0,0 UV-I 0 W/m -0,2 C 1,9 C 14,5 km/h (3 Bft) 97,22 %
26.03.2019 19:50 4,8 C 8,3 C 3,9 C 70 % 1027,3 hPa 0,0 l/m 10,0 km/h (2 Bft) W-SW 244 0 min 0,000 mm 0,0 UV-I 0 W/m -0,2 C 1,9 C 14,5 km/h (3 Bft) 96,83 %
26.03.2019 19:52 4,9 C 8,3 C 3,9 C 71 % 1027,3 hPa 0,0 l/m 9,1 km/h (2 Bft) SW 233 0 min 0,000 mm 0,0 UV-I 0 W/m 0,1 C 2,6 C 12,9 km/h (3 Bft) 95,74 %
26.03.2019 19:54 4,9 C 8,3 C 3,9 C 70 % 1027,3 hPa 0,0 l/m 9,3 km/h (2 Bft) W-SW 238 0 min 0,000 mm 0,0 UV-I 0 W/m -0,1 C 2,5 C 12,9 km/h (3 Bft) 97,62 %
26.03.2019 19:56 4,9 C 8,3 C 3,9 C 70 % 1027,3 hPa 0,0 l/m 8,9 km/h (2 Bft) W-SW 254 0 min 0,000 mm 0,0 UV-I 0 W/m -0,1 C 2,8 C 12,9 km/h (3 Bft) 98,11 %
26.03.2019 19:58 4,9 C 8,3 C 3,9 C 70 % 1027,3 hPa 0,0 l/m 10,9 km/h (2 Bft) W-SW 240 0 min 0,000 mm 0,0 UV-I 0 W/m -0,1 C 1,3 C 14,5 km/h (3 Bft) 97,37 %
26.03.2019 20:00 5,0 C 8,3 C 3,9 C 70 % 1027,3 hPa 0,0 l/m 7,8 km/h (2 Bft) W-SW 248 0 min 0,025 mm 0,0 UV-I 0 W/m -0,0 C 3,8 C 14,5 km/h (3 Bft) 94,00 %
26.03.2019 20:02 4,9 C 8,3 C 3,9 C 70 % 1027,3 hPa 0,0 l/m 8,7 km/h (2 Bft) W-SW 240 0 min 0,000 mm 0,0 UV-I 0 W/m -0,1 C 2,9 C 12,9 km/h (3 Bft) 97,37 %
26.03.2019 20:04 4,9 C 8,3 C 3,9 C 70 % 1027,3 hPa 0,0 l/m 8,0 km/h (2 Bft) SW 235 0 min 0,000 mm 0,0 UV-I 0 W/m -0,1 C 3,5 C 11,3 km/h (2 Bft) 98,11 %
26.03.2019 20:06 4,9 C 8,3 C 3,9 C 70 % 1027,3 hPa 0,0 l/m 8,4 km/h (2 Bft) SW 236 0 min 0,000 mm 0,0 UV-I 0 W/m -0,1 C 3,2 C 12,9 km/h (3 Bft) 93,62 %
26.03.2019 20:08 4,9 C 8,3 C 3,9 C 70 % 1027,3 hPa 0,0 l/m 8,1 km/h (2 Bft) SW 229 0 min 0,000 mm 0,0 UV-I 0 W/m -0,1 C 3,4 C 11,3 km/h (2 Bft) 95,12 %
26.03.2019 20:10 4,9 C 8,3 C 3,9 C 70 % 1027,3 hPa 0,0 l/m 9,2 km/h (2 Bft) W-SW 239 0 min 0,000 mm 0,0 UV-I 0 W/m -0,1 C 2,5 C 14,5 km/h (3 Bft) 98,00 %
26.03.2019 20:12 4,9 C 8,3 C 3,9 C 70 % 1027,3 hPa 0,0 l/m 10,5 km/h (2 Bft) SW 232 0 min 0,000 mm 0,0 UV-I 0 W/m -0,1 C 1,6 C 14,5 km/h (3 Bft) 94,64 %
26.03.2019 20:14 4,9 C 8,3 C 3,9 C 70 % 1027,3 hPa 0,0 l/m 12,9 km/h (3 Bft) W-SW 248 0 min 0,000 mm 0,0 UV-I 0 W/m -0,1 C 0,1 C 16,1 km/h (3 Bft) 95,45 %
26.03.2019 20:16 4,8 C 8,3 C 3,9 C 70 % 1027,3 hPa 0,0 l/m 10,0 km/h (2 Bft) SW 235 0 min 0,000 mm 0,0 UV-I 0 W/m -0,2 C 1,9 C 16,1 km/h (3 Bft) 100,00 %
26.03.2019 20:18 4,8 C 8,3 C 3,9 C 71 % 1027,3 hPa 0,0 l/m 8,9 km/h (2 Bft) W-SW 246 0 min 0,000 mm 0,0 UV-I 0 W/m -0,0 C 2,7 C 12,9 km/h (3 Bft) 100,00 %
26.03.2019 20:20 4,8 C 8,3 C 3,9 C 71 % 1027,4 hPa 0,0 l/m 10,8 km/h (2 Bft) W-SW 244 0 min 0,000 mm 0,0 UV-I 0 W/m -0,0 C 1,3 C 16,1 km/h (3 Bft) 100,00 %
26.03.2019 20:22 4,7 C 8,3 C 3,9 C 71 % 1027,3 hPa 0,0 l/m 11,5 km/h (2 Bft) W-SW 254 0 min 0,000 mm 0,0 UV-I 0 W/m -0,1 C 0,7 C 16,1 km/h (3 Bft) 100,00 %
26.03.2019 20:24 4,7 C 8,3 C 3,3 C 72 % 1027,4 hPa 0,0 l/m 10,7 km/h (2 Bft) W-SW 238 0 min 0,000 mm 0,0 UV-I 0 W/m 0,1 C 1,3 C 14,5 km/h (3 Bft) 97,87 %
26.03.2019 20:26 4,7 C 8,3 C 3,3 C 72 % 1027,4 hPa 0,0 l/m 11,0 km/h (2 Bft) SW 230 0 min 0,000 mm 0,0 UV-I 0 W/m 0,1 C 1,1 C 16,1 km/h (3 Bft) 97,44 %
26.03.2019 20:28 4,6 C 8,3 C 3,3 C 71 % 1027,3 hPa 0,0 l/m 11,0 km/h (2 Bft) W-SW 239 0 min 0,000 mm 0,0 UV-I 0 W/m -0,2 C 0,9 C 19,3 km/h (3 Bft) 100,00 %
26.03.2019 20:30 4,6 C 8,3 C 3,3 C 72 % 1027,3 hPa 0,0 l/m 12,6 km/h (3 Bft) W-SW 242 0 min 0,000 mm 0,0 UV-I 0 W/m -0,0 C -0,1 C 19,3 km/h (3 Bft) 100,00 %
26.03.2019 20:32 4,7 C 8,3 C 3,3 C 71 % 1027,3 hPa 0,0 l/m 14,8 km/h (3 Bft) SW 225 0 min 0,000 mm 0,0 UV-I 0 W/m -0,1 C -1,2 C 22,5 km/h (4 Bft) 98,11 %
26.03.2019 20:34 4,7 C 8,3 C 3,3 C 71 % 1027,3 hPa 0,0 l/m 15,5 km/h (3 Bft) SW 225 0 min 0,000 mm 0,0 UV-I 0 W/m -0,1 C -1,5 C 22,5 km/h (4 Bft) 97,37 %
26.03.2019 20:36 4,7 C 8,3 C 3,3 C 71 % 1027,4 hPa 0,0 l/m 13,3 km/h (3 Bft) SW 225 0 min 0,000 mm 0,0 UV-I 0 W/m -0,1 C -0,4 C 19,3 km/h (3 Bft) 100,00 %
26.03.2019 20:38 4,7 C 8,3 C 3,9 C 71 % 1027,4 hPa 0,0 l/m 15,2 km/h (3 Bft) W-SW 248 0 min 0,000 mm 0,0 UV-I 0 W/m -0,1 C -1,4 C 20,9 km/h (4 Bft) 100,00 %
26.03.2019 20:40 4,7 C 8,3 C 3,9 C 71 % 1027,4 hPa 0,0 l/m 11,6 km/h (2 Bft) SW 232 0 min 0,000 mm 0,0 UV-I 0 W/m -0,1 C 0,7 C 16,1 km/h (3 Bft) 100,00 %
26.03.2019 20:42 4,7 C 8,3 C 3,9 C 71 % 1027,4 hPa 0,0 l/m 13,3 km/h (3 Bft) SW 236 0 min 0,000 mm 0,0 UV-I 0 W/m -0,1 C -0,4 C 17,7 km/h (3 Bft) 98,59 %
26.03.2019 20:45 4,7 C 8,3 C 3,9 C 71 % 1027,4 hPa 0,0 l/m 12,9 km/h (3 Bft) W-SW 247 0 min 0,000 mm 0,0 UV-I 0 W/m -0,1 C -0,1 C 19,3 km/h (3 Bft) 100,00 %
26.03.2019 20:46 4,7 C 8,3 C 3,9 C 71 % 1027,4 hPa 0,0 l/m 8,7 km/h (2 Bft) W-SW 244 0 min 0,000 mm 0,0 UV-I 0 W/m -0,1 C 2,7 C 16,1 km/h (3 Bft) 98,53 %
26.03.2019 20:48 4,7 C 8,3 C 3,9 C 71 % 1027,4 hPa 0,0 l/m 11,8 km/h (2 Bft) SW 231 0 min 0,000 mm 0,0 UV-I 0 W/m -0,1 C 0,5 C 17,7 km/h (3 Bft) 100,00 %
26.03.2019 20:50 4,7 C 8,3 C 3,9 C 71 % 1027,4 hPa 0,0 l/m 14,1 km/h (3 Bft) W 259 0 min 0,000 mm 0,0 UV-I 0 W/m -0,1 C -0,8 C 19,3 km/h (3 Bft) 100,00 %
26.03.2019 20:52 4,7 C 8,3 C 3,9 C 71 % 1027,4 hPa 0,0 l/m 12,7 km/h (3 Bft) W-SW 242 0 min 0,000 mm 0,0 UV-I 0 W/m -0,1 C -0,0 C 17,7 km/h (3 Bft) 100,00 %
26.03.2019 20:54 4,7 C 8,3 C 3,9 C 71 % 1027,4 hPa 0,0 l/m 12,8 km/h (3 Bft) W-SW 248 0 min 0,000 mm 0,0 UV-I 0 W/m -0,1 C -0,1 C 20,9 km/h (4 Bft) 93,62 %
26.03.2019 20:56 4,8 C 8,3 C 3,9 C 71 % 1027,5 hPa 0,0 l/m 11,5 km/h (2 Bft) SW 236 0 min 0,000 mm 0,0 UV-I 0 W/m -0,0 C 0,8 C 16,1 km/h (3 Bft) 100,00 %
26.03.2019 20:59 4,8 C 8,3 C 3,9 C 71 % 1027,4 hPa 0,0 l/m 14,6 km/h (3 Bft) SW 229 0 min 0,000 mm 0,0 UV-I 0 W/m -0,0 C -1,0 C 20,9 km/h (4 Bft) 100,00 %
26.03.2019 21:00 4,8 C 8,3 C 3,9 C 71 % 1027,4 hPa 0,0 l/m 14,4 km/h (3 Bft) W-SW 245 0 min 0,000 mm 0,0 UV-I 0 W/m -0,0 C -0,9 C 19,3 km/h (3 Bft) 100,00 %
26.03.2019 21:02 4,8 C 8,3 C 3,9 C 71 % 1027,4 hPa 0,0 l/m 13,9 km/h (3 Bft) SW 230 0 min 0,025 mm 0,0 UV-I 0 W/m -0,0 C -0,6 C 20,9 km/h (4 Bft) 100,00 %
26.03.2019 21:04 4,8 C 8,3 C 4,4 C 71 % 1027,5 hPa 0,0 l/m 16,7 km/h (3 Bft) W-SW 243 0 min 0,000 mm 0,0 UV-I 0 W/m -0,0 C -2,0 C 20,9 km/h (4 Bft) 100,00 %
26.03.2019 21:06 4,8 C 8,3 C 4,4 C 71 % 1027,5 hPa 0,0 l/m 12,6 km/h (3 Bft) W 259 0 min 0,000 mm 0,0 UV-I 0 W/m -0,0 C 0,2 C 17,7 km/h (3 Bft) 100,00 %
26.03.2019 21:08 4,8 C 8,3 C 4,4 C 71 % 1027,5 hPa 0,0 l/m 14,3 km/h (3 Bft) W-SW 238 0 min 0,000 mm 0,0 UV-I 0 W/m -0,0 C -0,8 C 20,9 km/h (4 Bft) 94,00 %
26.03.2019 21:10 4,9 C 8,3 C 4,4 C 71 % 1027,5 hPa 0,0 l/m 13,4 km/h (3 Bft) W-SW 248 0 min 0,000 mm 0,0 UV-I 0 W/m 0,1 C -0,2 C 17,7 km/h (3 Bft) 98,08 %
26.03.2019 21:12 4,9 C 8,3 C 4,4 C 71 % 1027,5 hPa 0,0 l/m 13,6 km/h (3 Bft) W-SW 238 0 min 0,000 mm 0,0 UV-I 0 W/m 0,1 C -0,3 C 17,7 km/h (3 Bft) 97,62 %
26.03.2019 21:14 4,9 C 8,3 C 4,4 C 71 % 1027,5 hPa 0,0 l/m 12,8 km/h (3 Bft) W-SW 237 0 min 0,000 mm 0,0 UV-I 0 W/m 0,1 C 0,2 C 16,1 km/h (3 Bft) 98,11 %
26.03.2019 21:16 4,9 C 8,3 C 4,4 C 70 % 1027,5 hPa 0,0 l/m 9,7 km/h (2 Bft) W 259 0 min 0,000 mm 0,0 UV-I 0 W/m -0,1 C 2,2 C 14,5 km/h (3 Bft) 96,55 %
26.03.2019 21:18 4,9 C 8,3 C 4,4 C 71 % 1027,6 hPa 0,0 l/m 8,9 km/h (2 Bft) W 271 0 min 0,000 mm 0,0 UV-I 0 W/m 0,1 C 2,8 C 12,9 km/h (3 Bft) 96,92 %
26.03.2019 21:20 4,9 C 8,3 C 4,4 C 71 % 1027,6 hPa 0,0 l/m 9,6 km/h (2 Bft) W 268 0 min 0,000 mm 0,0 UV-I 0 W/m 0,1 C 2,2 C 14,5 km/h (3 Bft) 95,74 %
26.03.2019 21:22 4,9 C 8,3 C 4,4 C 71 % 1027,6 hPa 0,0 l/m 11,8 km/h (2 Bft) W 275 0 min 0,000 mm 0,0 UV-I 0 W/m 0,1 C 0,8 C 20,9 km/h (4 Bft) 94,74 %
26.03.2019 21:24 4,9 C 8,3 C 4,4 C 70 % 1027,6 hPa 0,0 l/m 13,7 km/h (3 Bft) W 262 0 min 0,000 mm 0,0 UV-I 0 W/m -0,1 C -0,4 C 22,5 km/h (4 Bft) 95,74 %
26.03.2019 21:26 4,9 C 8,3 C 4,4 C 70 % 1027,7 hPa 0,0 l/m 9,9 km/h (2 Bft) W-SW 254 0 min 0,000 mm 0,0 UV-I 0 W/m -0,1 C 2,0 C 12,9 km/h (3 Bft) 94,00 %
26.03.2019 21:28 4,9 C 8,3 C 4,4 C 70 % 1027,7 hPa 0,0 l/m 8,9 km/h (2 Bft) W 273 0 min 0,000 mm 0,0 UV-I 0 W/m -0,1 C 2,8 C 12,9 km/h (3 Bft) 95,74 %
26.03.2019 21:30 4,9 C 8,3 C 4,4 C 70 % 1027,7 hPa 0,0 l/m 8,3 km/h (2 Bft) W-SW 248 0 min 0,000 mm 0,0 UV-I 0 W/m -0,1 C 3,3 C 12,9 km/h (3 Bft) 93,18 %
26.03.2019 21:32 4,9 C 8,3 C 4,4 C 70 % 1027,8 hPa 0,0 l/m 10,3 km/h (2 Bft) W-SW 256 0 min 0,000 mm 0,0 UV-I 0 W/m -0,1 C 1,8 C 14,5 km/h (3 Bft) 92,45 %
26.03.2019 21:34 4,9 C 8,3 C 4,4 C 70 % 1027,8 hPa 0,0 l/m 10,7 km/h (2 Bft) W 263 0 min 0,000 mm 0,0 UV-I 0 W/m -0,1 C 1,5 C 16,1 km/h (3 Bft) 98,00 %
26.03.2019 21:36 5,0 C 8,3 C 4,4 C 69 % 1027,8 hPa 0,0 l/m 14,1 km/h (3 Bft) W 277 0 min 0,000 mm 0,0 UV-I 0 W/m -0,2 C -0,5 C 19,3 km/h (3 Bft) 94,74 %
26.03.2019 21:38 5,1 C 8,3 C 4,4 C 69 % 1027,7 hPa 0,0 l/m 13,2 km/h (3 Bft) W 270 0 min 0,000 mm 0,0 UV-I 0 W/m -0,1 C 0,2 C 20,9 km/h (4 Bft) 97,87 %
26.03.2019 21:40 5,1 C 8,3 C 4,4 C 69 % 1027,8 hPa 0,0 l/m 12,7 km/h (3 Bft) W-SW 257 0 min 0,000 mm 0,0 UV-I 0 W/m -0,1 C 0,5 C 19,3 km/h (3 Bft) 97,87 %
26.03.2019 21:42 5,1 C 8,3 C 4,4 C 69 % 1027,8 hPa 0,0 l/m 13,6 km/h (3 Bft) W 262 0 min 0,000 mm 0,0 UV-I 0 W/m -0,1 C -0,1 C 17,7 km/h (3 Bft) 95,74 %
26.03.2019 21:44 5,2 C 8,3 C 4,4 C 68 % 1027,8 hPa 0,0 l/m 12,8 km/h (3 Bft) W-SW 248 0 min 0,000 mm 0,0 UV-I 0 W/m -0,2 C 0,5 C 19,3 km/h (3 Bft) 96,43 %
26.03.2019 21:46 5,2 C 8,3 C 4,4 C 68 % 1027,8 hPa 0,0 l/m 9,4 km/h (2 Bft) W-SW 252 0 min 0,000 mm 0,0 UV-I 0 W/m -0,2 C 2,7 C 14,5 km/h (3 Bft) 97,56 %
26.03.2019 21:49 5,2 C 8,3 C 4,4 C 69 % 1027,8 hPa 0,0 l/m 9,2 km/h (2 Bft) W 264 0 min 0,000 mm 0,0 UV-I 0 W/m -0,0 C 2,9 C 12,9 km/h (3 Bft) 98,53 %
26.03.2019 21:50 5,1 C 8,3 C 4,4 C 69 % 1027,8 hPa 0,0 l/m 6,7 km/h (2 Bft) W 262 0 min 0,000 mm 0,0 UV-I 0 W/m -0,1 C 4,9 C 9,7 km/h (2 Bft) 91,67 %
26.03.2019 21:52 5,1 C 8,3 C 4,4 C 69 % 1027,8 hPa 0,0 l/m 10,9 km/h (2 Bft) W-SW 251 0 min 0,000 mm 0,0 UV-I 0 W/m -0,1 C 1,6 C 14,5 km/h (3 Bft) 98,00 %
26.03.2019 21:54 5,2 C 8,3 C 4,4 C 68 % 1027,8 hPa 0,0 l/m 8,8 km/h (2 Bft) W 265 0 min 0,000 mm 0,0 UV-I 0 W/m -0,2 C 3,2 C 12,9 km/h (3 Bft) 97,37 %
26.03.2019 21:56 5,1 C 8,3 C 4,4 C 69 % 1027,8 hPa 0,0 l/m 9,2 km/h (2 Bft) W 273 0 min 0,000 mm 0,0 UV-I 0 W/m -0,1 C 2,8 C 14,5 km/h (3 Bft) 100,00 %
26.03.2019 21:58 5,1 C 8,3 C 4,4 C 69 % 1027,8 hPa 0,0 l/m 9,8 km/h (2 Bft) W 259 0 min 0,000 mm 0,0 UV-I 0 W/m -0,1 C 2,3 C 16,1 km/h (3 Bft) 100,00 %
26.03.2019 22:00 5,1 C 8,3 C 4,4 C 69 % 1027,8 hPa 0,0 l/m 11,5 km/h (2 Bft) W 271 0 min 0,000 mm 0,0 UV-I 0 W/m -0,1 C 1,2 C 16,1 km/h (3 Bft) 100,00 %
26.03.2019 22:02 5,1 C 8,3 C 4,4 C 69 % 1027,8 hPa 0,0 l/m 11,9 km/h (2 Bft) W 261 0 min 0,026 mm 0,0 UV-I 0 W/m -0,1 C 0,9 C 14,5 km/h (3 Bft) 100,00 %
26.03.2019 22:04 5,1 C 8,3 C 4,4 C 69 % 1027,8 hPa 0,0 l/m 11,4 km/h (2 Bft) W 262 0 min 0,000 mm 0,0 UV-I 0 W/m -0,1 C 1,2 C 16,1 km/h (3 Bft) 100,00 %
26.03.2019 22:06 5,1 C 8,3 C 4,4 C 69 % 1027,8 hPa 0,0 l/m 9,3 km/h (2 Bft) W 277 0 min 0,000 mm 0,0 UV-I 0 W/m -0,1 C 2,7 C 16,1 km/h (3 Bft) 100,00 %
26.03.2019 22:08 5,1 C 8,3 C 4,4 C 69 % 1027,9 hPa 0,0 l/m 9,6 km/h (2 Bft) W-NW 286 0 min 0,000 mm 0,0 UV-I 0 W/m -0,1 C 2,5 C 14,5 km/h (3 Bft) 100,00 %
26.03.2019 22:10 5,1 C 8,3 C 4,4 C 68 % 1027,9 hPa 0,0 l/m 11,5 km/h (2 Bft) W 271 0 min 0,000 mm 0,0 UV-I 0 W/m -0,3 C 1,2 C 14,5 km/h (3 Bft) 100,00 %
26.03.2019 22:12 5,2 C 8,3 C 4,4 C 68 % 1027,9 hPa 0,0 l/m 10,6 km/h (2 Bft) W 259 0 min 0,000 mm 0,0 UV-I 0 W/m -0,2 C 1,9 C 16,1 km/h (3 Bft) 100,00 %
26.03.2019 22:14 5,2 C 8,3 C 4,4 C 67 % 1027,9 hPa 0,0 l/m 11,4 km/h (2 Bft) W 280 0 min 0,000 mm 0,0 UV-I 0 W/m -0,4 C 1,4 C 17,7 km/h (3 Bft) 100,00 %
26.03.2019 22:16 5,3 C 8,3 C 4,4 C 66 % 1027,9 hPa 0,0 l/m 11,0 km/h (2 Bft) W 269 0 min 0,000 mm 0,0 UV-I 0 W/m -0,5 C 1,7 C 16,1 km/h (3 Bft) 100,00 %
26.03.2019 22:18 5,3 C 8,3 C 4,4 C 66 % 1027,9 hPa 0,0 l/m 10,4 km/h (2 Bft) W 269 0 min 0,000 mm 0,0 UV-I 0 W/m -0,5 C 2,1 C 16,1 km/h (3 Bft) 98,46 %
26.03.2019 22:20 5,3 C 8,3 C 4,4 C 66 % 1028,0 hPa 0,0 l/m 13,9 km/h (3 Bft) W 273 0 min 0,000 mm 0,0 UV-I 0 W/m -0,5 C 0,0 C 19,3 km/h (3 Bft) 100,00 %
26.03.2019 22:22 5,4 C 8,3 C 4,4 C 66 % 1028,0 hPa 0,0 l/m 9,3 km/h (2 Bft) W 263 0 min 0,000 mm 0,0 UV-I 0 W/m -0,4 C 3,0 C 14,5 km/h (3 Bft) 98,51 %
26.03.2019 22:24 5,4 C 8,3 C 4,4 C 66 % 1028,0 hPa 0,0 l/m 10,8 km/h (2 Bft) W 264 0 min 0,000 mm 0,0 UV-I 0 W/m -0,4 C 2,0 C 17,7 km/h (3 Bft) 97,87 %
26.03.2019 22:26 5,4 C 8,3 C 4,4 C 66 % 1028,0 hPa 0,0 l/m 11,2 km/h (2 Bft) W 277 0 min 0,000 mm 0,0 UV-I 0 W/m -0,4 C 1,7 C 19,3 km/h (3 Bft) 97,87 %
26.03.2019 22:28 5,4 C 8,3 C 4,4 C 66 % 1028,1 hPa 0,0 l/m 7,7 km/h (2 Bft) W 281 0 min 0,000 mm 0,0 UV-I 0 W/m -0,4 C 4,3 C 11,3 km/h (2 Bft) 97,62 %
26.03.2019 22:30 5,4 C 8,3 C 4,4 C 66 % 1028,1 hPa 0,0 l/m 11,8 km/h (2 Bft) W 277 0 min 0,000 mm 0,0 UV-I 0 W/m -0,4 C 1,3 C 17,7 km/h (3 Bft) 94,34 %
26.03.2019 22:32 5,4 C 8,3 C 4,4 C 65 % 1028,1 hPa 0,0 l/m 12,6 km/h (3 Bft) W 271 0 min 0,000 mm 0,0 UV-I 0 W/m -0,6 C 0,9 C 20,9 km/h (4 Bft) 96,00 %
26.03.2019 22:34 5,4 C 8,3 C 4,4 C 66 % 1028,1 hPa 0,0 l/m 10,5 km/h (2 Bft) W 262 0 min 0,000 mm 0,0 UV-I 0 W/m -0,4 C 2,2 C 14,5 km/h (3 Bft) 94,74 %
26.03.2019 22:36 5,4 C 8,3 C 5,0 C 66 % 1028,1 hPa 0,0 l/m 14,7 km/h (3 Bft) W-NW 295 0 min 0,000 mm 0,0 UV-I 0 W/m -0,4 C -0,3 C 25,7 km/h (4 Bft) 96,23 %
26.03.2019 22:38 5,4 C 8,3 C 5,0 C 65 % 1028,1 hPa 0,0 l/m 9,9 km/h (2 Bft) W 268 0 min 0,000 mm 0,0 UV-I 0 W/m -0,6 C 2,6 C 16,1 km/h (3 Bft) 96,00 %
26.03.2019 22:40 5,4 C 8,3 C 5,0 C 65 % 1028,1 hPa 0,0 l/m 8,8 km/h (2 Bft) W 265 0 min 0,000 mm 0,0 UV-I 0 W/m -0,6 C 3,4 C 14,5 km/h (3 Bft) 97,37 %
26.03.2019 22:42 5,4 C 8,3 C 5,0 C 66 % 1028,1 hPa 0,0 l/m 11,0 km/h (2 Bft) W 261 0 min 0,000 mm 0,0 UV-I 0 W/m -0,4 C 1,8 C 16,1 km/h (3 Bft) 97,56 %
26.03.2019 22:44 5,4 C 8,3 C 4,4 C 66 % 1028,1 hPa 0,0 l/m 9,9 km/h (2 Bft) W 280 0 min 0,000 mm 0,0 UV-I 0 W/m -0,4 C 2,6 C 14,5 km/h (3 Bft) 98,36 %
26.03.2019 22:46 5,3 C 8,3 C 4,4 C 67 % 1028,1 hPa 0,0 l/m 9,6 km/h (2 Bft) W 269 0 min 0,000 mm 0,0 UV-I 0 W/m -0,3 C 2,7 C 17,7 km/h (3 Bft) 97,14 %
26.03.2019 22:48 5,3 C 8,3 C 4,4 C 67 % 1028,1 hPa 0,0 l/m 7,1 km/h (2 Bft) W-SW 250 0 min 0,000 mm 0,0 UV-I 0 W/m -0,3 C 4,7 C 11,3 km/h (2 Bft) 98,21 %
26.03.2019 22:50 5,2 C 8,3 C 4,4 C 68 % 1028,1 hPa 0,0 l/m 7,3 km/h (2 Bft) W-SW 257 0 min 0,000 mm 0,0 UV-I 0 W/m -0,2 C 4,4 C 12,9 km/h (3 Bft) 100,00 %
26.03.2019 22:52 5,2 C 8,3 C 4,4 C 68 % 1028,1 hPa 0,0 l/m 10,4 km/h (2 Bft) SW 230 0 min 0,000 mm 0,0 UV-I 0 W/m -0,2 C 2,0 C 17,7 km/h (3 Bft) 100,00 %
26.03.2019 22:54 5,2 C 8,3 C 4,4 C 68 % 1028,0 hPa 0,0 l/m 14,0 km/h (3 Bft) W 266 0 min 0,000 mm 0,0 UV-I 0 W/m -0,2 C -0,2 C 19,3 km/h (3 Bft) 100,00 %
26.03.2019 22:56 5,2 C 8,3 C 4,4 C 67 % 1028,1 hPa 0,0 l/m 15,7 km/h (3 Bft) W 259 0 min 0,000 mm 0,0 UV-I 0 W/m -0,4 C -1,0 C 24,1 km/h (4 Bft) 98,11 %
26.03.2019 22:58 5,2 C 8,3 C 4,4 C 67 % 1028,1 hPa 0,0 l/m 10,4 km/h (2 Bft) W 265 0 min 0,000 mm 0,0 UV-I 0 W/m -0,4 C 2,0 C 16,1 km/h (3 Bft) 97,37 %
26.03.2019 23:00 5,2 C 8,3 C 4,4 C 67 % 1028,1 hPa 0,0 l/m 12,8 km/h (3 Bft) W 263 0 min 0,025 mm 0,0 UV-I 0 W/m -0,4 C 0,5 C 19,3 km/h (3 Bft) 98,00 %
26.03.2019 23:02 5,2 C 8,3 C 4,4 C 67 % 1028,0 hPa 0,0 l/m 12,7 km/h (3 Bft) W-SW 249 0 min 0,000 mm 0,0 UV-I 0 W/m -0,4 C 0,6 C 17,7 km/h (3 Bft) 94,00 %
26.03.2019 23:04 5,2 C 8,3 C 4,4 C 67 % 1028,1 hPa 0,0 l/m 13,8 km/h (3 Bft) W 266 0 min 0,000 mm 0,0 UV-I 0 W/m -0,4 C -0,0 C 20,9 km/h (4 Bft) 96,00 %
26.03.2019 23:06 5,2 C 8,3 C 4,4 C 67 % 1028,1 hPa 0,0 l/m 14,6 km/h (3 Bft) W 259 0 min 0,000 mm 0,0 UV-I 0 W/m -0,4 C -0,5 C 20,9 km/h (4 Bft) 97,73 %
26.03.2019 23:08 5,3 C 8,3 C 4,4 C 67 % 1028,1 hPa 0,0 l/m 14,8 km/h (3 Bft) W 271 0 min 0,000 mm 0,0 UV-I 0 W/m -0,3 C -0,5 C 19,3 km/h (3 Bft) 97,92 %
26.03.2019 23:10 5,2 C 8,3 C 4,4 C 66 % 1028,1 hPa 0,0 l/m 10,2 km/h (2 Bft) W 265 0 min 0,000 mm 0,0 UV-I 0 W/m -0,6 C 2,2 C 12,9 km/h (3 Bft) 92,00 %
26.03.2019 23:12 5,2 C 8,3 C 4,4 C 66 % 1028,1 hPa 0,0 l/m 11,1 km/h (2 Bft) W 276 0 min 0,000 mm 0,0 UV-I 0 W/m -0,6 C 1,6 C 16,1 km/h (3 Bft) 97,87 %
26.03.2019 23:14 5,2 C 8,3 C 4,4 C 67 % 1028,1 hPa 0,0 l/m 9,4 km/h (2 Bft) W-SW 250 0 min 0,000 mm 0,0 UV-I 0 W/m -0,4 C 2,7 C 14,5 km/h (3 Bft) 97,14 %
26.03.2019 23:16 5,2 C 8,3 C 4,4 C 66 % 1028,2 hPa 0,0 l/m 10,8 km/h (2 Bft) NW 306 0 min 0,000 mm 0,0 UV-I 0 W/m -0,6 C 1,7 C 16,1 km/h (3 Bft) 92,45 %
26.03.2019 23:18 5,2 C 8,3 C 4,4 C 66 % 1028,2 hPa 0,0 l/m 11,3 km/h (2 Bft) W 266 0 min 0,000 mm 0,0 UV-I 0 W/m -0,6 C 1,4 C 16,1 km/h (3 Bft) 100,00 %
26.03.2019 23:20 5,2 C 8,3 C 4,4 C 66 % 1028,2 hPa 0,0 l/m 10,4 km/h (2 Bft) W-SW 247 0 min 0,000 mm 0,0 UV-I 0 W/m -0,6 C 2,0 C 16,1 km/h (3 Bft) 98,21 %
26.03.2019 23:22 5,2 C 8,3 C 4,4 C 66 % 1028,2 hPa 0,0 l/m 11,3 km/h (2 Bft) W 278 0 min 0,000 mm 0,0 UV-I 0 W/m -0,6 C 1,4 C 16,1 km/h (3 Bft) 97,87 %
26.03.2019 23:24 5,2 C 8,3 C 4,4 C 66 % 1028,2 hPa 0,0 l/m 12,8 km/h (3 Bft) W-SW 257 0 min 0,000 mm 0,0 UV-I 0 W/m -0,6 C 0,5 C 19,3 km/h (3 Bft) 93,62 %
26.03.2019 23:26 5,2 C 8,3 C 4,4 C 66 % 1028,3 hPa 0,0 l/m 11,6 km/h (2 Bft) W 279 0 min 0,000 mm 0,0 UV-I 0 W/m -0,6 C 1,2 C 17,7 km/h (3 Bft) 94,29 %
26.03.2019 23:28 5,3 C 8,3 C 4,4 C 66 % 1028,3 hPa 0,0 l/m 9,8 km/h (2 Bft) W 281 0 min 0,000 mm 0,0 UV-I 0 W/m -0,5 C 2,5 C 14,5 km/h (3 Bft) 96,00 %
26.03.2019 23:30 5,2 C 8,3 C 4,4 C 66 % 1028,3 hPa 0,0 l/m 11,3 km/h (2 Bft) W 265 0 min 0,000 mm 0,0 UV-I 0 W/m -0,6 C 1,4 C 17,7 km/h (3 Bft) 94,34 %
26.03.2019 23:32 5,2 C 8,3 C 4,4 C 66 % 1028,3 hPa 0,0 l/m 11,6 km/h (2 Bft) W 271 0 min 0,000 mm 0,0 UV-I 0 W/m -0,6 C 1,2 C 17,7 km/h (3 Bft) 95,74 %
26.03.2019 23:34 5,2 C 8,3 C 4,4 C 67 % 1028,4 hPa 0,0 l/m 10,9 km/h (2 Bft) W-SW 240 0 min 0,000 mm 0,0 UV-I 0 W/m -0,4 C 1,7 C 14,5 km/h (3 Bft) 91,49 %
26.03.2019 23:36 5,2 C 8,3 C 4,4 C 67 % 1028,4 hPa 0,0 l/m 10,0 km/h (2 Bft) W-SW 244 0 min 0,000 mm 0,0 UV-I 0 W/m -0,4 C 2,3 C 14,5 km/h (3 Bft) 95,74 %
26.03.2019 23:38 5,1 C 8,3 C 4,4 C 68 % 1028,4 hPa 0,0 l/m 9,8 km/h (2 Bft) W-SW 237 0 min 0,000 mm 0,0 UV-I 0 W/m -0,3 C 2,3 C 14,5 km/h (3 Bft) 96,00 %
26.03.2019 23:40 5,1 C 8,3 C 4,4 C 68 % 1028,4 hPa 0,0 l/m 8,3 km/h (2 Bft) W 266 0 min 0,000 mm 0,0 UV-I 0 W/m -0,3 C 3,5 C 12,9 km/h (3 Bft) 95,74 %
26.03.2019 23:42 5,0 C 8,3 C 4,4 C 69 % 1028,4 hPa 0,0 l/m 9,2 km/h (2 Bft) W-SW 244 0 min 0,000 mm 0,0 UV-I 0 W/m -0,2 C 2,7 C 12,9 km/h (3 Bft) 92,31 %
26.03.2019 23:44 4,9 C 8,3 C 4,4 C 69 % 1028,4 hPa 0,0 l/m 8,7 km/h (2 Bft) W-SW 248 0 min 0,000 mm 0,0 UV-I 0 W/m -0,3 C 2,9 C 12,9 km/h (3 Bft) 97,56 %
26.03.2019 23:46 4,8 C 8,3 C 4,4 C 70 % 1028,3 hPa 0,0 l/m 8,9 km/h (2 Bft) W-SW 248 0 min 0,000 mm 0,0 UV-I 0 W/m -0,2 C 2,7 C 14,5 km/h (3 Bft) 93,10 %
26.03.2019 23:49 4,8 C 8,3 C 4,4 C 70 % 1028,4 hPa 0,0 l/m 10,1 km/h (2 Bft) W-SW 240 0 min 0,000 mm 0,0 UV-I 0 W/m -0,2 C 1,8 C 12,9 km/h (3 Bft) 93,42 %
26.03.2019 23:50 4,8 C 8,3 C 4,4 C 70 % 1028,4 hPa 0,0 l/m 11,5 km/h (2 Bft) W 262 0 min 0,000 mm 0,0 UV-I 0 W/m -0,2 C 0,8 C 14,5 km/h (3 Bft) 91,67 %
26.03.2019 23:52 4,8 C 8,3 C 4,4 C 70 % 1028,3 hPa 0,0 l/m 9,5 km/h (2 Bft) W-SW 252 0 min 0,000 mm 0,0 UV-I 0 W/m -0,2 C 2,2 C 12,9 km/h (3 Bft) 92,00 %
26.03.2019 23:54 4,8 C 8,3 C 4,4 C 70 % 1028,3 hPa 0,0 l/m 10,6 km/h (2 Bft) W 259 0 min 0,000 mm 0,0 UV-I 0 W/m -0,2 C 1,4 C 16,1 km/h (3 Bft) 92,00 %
26.03.2019 23:56 4,8 C 8,3 C 4,4 C 70 % 1028,3 hPa 0,0 l/m 9,6 km/h (2 Bft) W-SW 253 0 min 0,000 mm 0,0 UV-I 0 W/m -0,2 C 2,1 C 14,5 km/h (3 Bft) 94,74 %
26.03.2019 23:58 4,8 C 8,3 C 4,4 C 70 % 1028,3 hPa 0,0 l/m 8,8 km/h (2 Bft) W 271 0 min 0,000 mm 0,0 UV-I 0 W/m -0,2 C 2,7 C 11,3 km/h (2 Bft) 92,45 %
_ Min-Zeit 06:22 00:00 05:36 16:22 00:00 - 04:44 - - - - - - 10:34 00:30 02:46 00:02
Minimum _ 2,0 C 8,3 C 1,1 C 57 % 1022,0 hPa - 4,9 km/h (1 Bft) - - - - - - -1,6 C -5,6 C 9,7 km/h (2 Bft) 6,67 %
_ Max-Zeit 15:28 00:00 09:56 04:40 23:34 00:00 14:24 - - 07:25 09:00 11:12 09:56 00:10 10:48 17:10 00:00
Maximum _ 7,2 C 8,3 C 16,7 C 89 % 1028,4 hPa 0,0 l/m 26,1 km/h
W (4 Bft)
- - 3 min 0,178 mm 1,9 UV-I 748 W/m 1,2 C 5,9 C 40,2 km/h
W (6 Bft)
100,00 %
Durchschnitt _ 4,7 C 8,3 C 5,4 C 73 % 1026,2 hPa #0,0 l/m 12,5 km/h (3 Bft) W - #2:58 h #1,727 mm 1,0 UV-I 198 W/m 0,0 C 0,4 C 19,2 km/h (3 Bft) 97,16 %